[[{"header":{"parameterUnit":"m.s-1","parameterCategory":1,"la1":30.6,"la2":29.2853,"lo1":-89.7004,"lo2":-87.6739,"dy":0.0162,"dx":0.0183,"nx":112,"ny":82,"refTime":"2024-03-14T18:00:00:Z","depth":0,"parameterNumber":2,"parameterNumberName":"U-component_of_WINDS"},"data":[0.0,0.0,0.0,0.0,0.0,0.0,0.0,0.0,0.0,0.0,0.0,0.0,0.0,0.0,0.0,0.0,0.0,0.0,0.0,0.0,0.0,0.0,0.0,0.0,0.0,0.0,0.0,0.0,0.0,0.0,0.0,0.0,0.0,0.0,0.0,0.0,0.0,0.0,0.0,0.0,0.0,0.0,0.0,0.0,0.0,0.0,0.0,0.0,0.0,0.0,0.0,0.0,0.0,0.0,0.0,0.0,0.0,0.0,0.0,0.0,0.0,0.0,0.0,0.0,0.0,0.0,0.0,0.0,0.0,0.0,0.0,0.0,0.0,0.0,0.0,0.0,0.0,0.0,0.0,0.0,0.0,0.0,0.0,0.0,0.0,0.0,0.0,0.0,0.0,0.0,4.1857,4.7488,5.2476,5.4869,5.3575,5.2508,4.9974,4.5287,0.0,0.0,0.0,0.0,0.0,0.0,0.0,0.0,0.0,0.0,0.0,0.0,0.0,0.0,0.0,0.0,0.0,0.0,0.0,0.0,0.0,0.0,0.0,0.0,0.0,0.0,0.0,0.0,0.0,0.0,0.0,0.0,0.0,0.0,0.0,0.0,0.0,0.0,0.0,0.0,0.0,0.0,0.0,0.0,0.0,0.0,0.0,0.0,0.0,0.0,0.0,0.0,0.0,0.0,0.0,0.0,0.0,0.0,0.0,0.0,0.0,0.0,0.0,0.0,0.0,0.0,0.0,0.0,0.0,0.0,0.0,0.0,0.0,0.0,0.0,0.0,0.0,0.0,0.0,0.0,0.0,0.0,0.0,0.0,0.0,0.0,0.0,0.0,0.0,0.0,0.0,0.0,0.0,0.0,0.0,0.0,0.0,0.0,0.0,0.0,0.0,0.0,0.0,0.0,4.2041,5.0235,5.3918,5.5238,5.3767,5.2214,4.9742,4.6035,0.0,0.0,0.0,0.0,0.0,0.0,0.0,0.0,0.0,0.0,0.0,0.0,0.0,0.0,0.0,0.0,0.0,0.0,0.0,0.0,0.0,0.0,0.0,0.0,0.0,0.0,0.0,0.0,0.0,0.0,0.0,0.0,0.0,0.0,0.0,0.0,0.0,0.0,0.0,0.0,0.0,0.0,0.0,0.0,0.0,0.0,0.0,0.0,0.0,0.0,0.0,0.0,0.0,0.0,0.0,0.0,0.0,0.0,0.0,0.0,0.0,0.0,0.0,0.0,0.0,0.0,0.0,0.0,0.0,0.0,0.0,0.0,0.0,0.0,0.0,0.0,0.0,0.0,0.0,0.0,0.0,0.0,0.0,0.0,0.0,0.0,0.0,0.0,0.0,0.0,0.0,0.0,0.0,0.0,0.0,0.0,0.0,0.0,0.0,0.0,0.0,0.0,0.0,4.2053,4.5889,5.1727,5.4497,5.5272,5.3684,5.2085,4.9726,4.623,4.1984,0.0,0.0,0.0,0.0,0.0,0.0,0.0,0.0,0.0,0.0,0.0,0.0,0.0,0.0,0.0,0.0,0.0,0.0,0.0,0.0,0.0,0.0,0.0,0.0,0.0,0.0,0.0,0.0,0.0,0.0,0.0,0.0,0.0,0.0,0.0,0.0,0.0,0.0,0.0,0.0,0.0,0.0,0.0,0.0,0.0,0.0,0.0,0.0,0.0,0.0,0.0,0.0,0.0,0.0,0.0,0.0,0.0,0.0,0.0,0.0,0.0,0.0,0.0,0.0,0.0,0.0,0.0,0.0,0.0,0.0,0.0,0.0,0.0,0.0,0.0,0.0,0.0,0.0,0.0,0.0,0.0,0.0,0.0,0.0,0.0,0.0,0.0,0.0,0.0,0.0,0.0,0.0,0.0,0.0,0.0,0.0,0.0,0.0,0.0,0.0,0.0,0.0,4.674,4.9647,5.2877,5.4844,5.5255,5.3623,5.1684,4.9182,4.5929,4.0749,0.0,0.0,0.0,0.0,0.0,0.0,0.0,0.0,0.0,0.0,0.0,0.0,0.0,0.0,0.0,0.0,0.0,0.0,0.0,0.0,0.0,0.0,0.0,0.0,0.0,0.0,0.0,0.0,0.0,0.0,0.0,0.0,0.0,0.0,0.0,0.0,0.0,0.0,0.0,0.0,0.0,0.0,0.0,0.0,0.0,0.0,0.0,0.0,0.0,0.0,0.0,0.0,0.0,0.0,0.0,0.0,0.0,0.0,0.0,0.0,0.0,0.0,0.0,0.0,0.0,0.0,0.0,0.0,0.0,0.0,0.0,0.0,0.0,0.0,0.0,0.0,0.0,0.0,0.0,0.0,0.0,0.0,0.0,0.0,0.0,0.0,0.0,0.0,0.0,0.0,0.0,0.0,0.0,0.0,0.0,0.0,0.0,0.0,0.0,0.0,0.0,0.0,4.7155,5.1272,5.4259,5.5393,5.5304,5.3819,5.0658,4.7678,4.5055,3.9263,0.0,0.0,0.0,0.0,0.0,0.0,0.0,0.0,0.0,0.0,0.0,0.0,0.0,0.0,0.0,0.0,0.0,0.0,0.0,0.0,0.0,0.0,0.0,0.0,0.0,0.0,0.0,0.0,0.0,0.0,0.0,0.0,0.0,0.0,0.0,0.0,0.0,0.0,0.0,0.0,0.0,0.0,0.0,0.0,0.0,0.0,0.0,0.0,0.0,0.0,0.0,0.0,0.0,0.0,0.0,0.0,0.0,0.0,0.0,0.0,0.0,0.0,0.0,0.0,0.0,0.0,0.0,0.0,0.0,0.0,0.0,0.0,0.0,0.0,0.0,0.0,0.0,0.0,0.0,0.0,0.0,0.0,0.0,0.0,0.0,0.0,0.0,0.0,0.0,0.0,0.0,0.0,0.0,0.0,0.0,0.0,0.0,0.0,0.0,0.0,0.0,0.0,4.6817,5.0486,5.4072,5.5465,5.5419,5.3669,5.1503,4.8677,4.5036,0.0,0.0,0.0,0.0,0.0,0.0,0.0,0.0,0.0,0.0,0.0,0.0,0.0,0.0,0.0,0.0,0.0,0.0,0.0,0.0,0.0,0.0,0.0,0.0,0.0,0.0,0.0,0.0,0.0,0.0,0.0,0.0,0.0,0.0,0.0,0.0,0.0,0.0,0.0,0.0,0.0,0.0,0.0,0.0,0.0,0.0,0.0,0.0,0.0,0.0,0.0,0.0,0.0,0.0,0.0,0.0,0.0,0.0,0.0,0.0,0.0,0.0,0.0,0.0,0.0,0.0,0.0,0.0,0.0,0.0,0.0,0.0,0.0,0.0,0.0,0.0,0.0,0.0,0.0,0.0,0.0,0.0,0.0,0.0,0.0,0.0,0.0,0.0,0.0,0.0,0.0,0.0,0.0,0.0,0.0,0.0,0.0,0.0,0.0,0.0,0.0,0.0,4.354,4.724,5.0635,5.4496,5.5738,5.5436,5.329,5.1412,4.8444,4.387,0.0,0.0,0.0,0.0,0.0,0.0,0.0,0.0,0.0,0.0,0.0,0.0,0.0,0.0,0.0,0.0,0.0,0.0,0.0,0.0,0.0,0.0,0.0,0.0,0.0,0.0,0.0,0.0,0.0,0.0,0.0,0.0,0.0,0.0,0.0,0.0,0.0,0.0,0.0,0.0,0.0,0.0,0.0,0.0,0.0,0.0,0.0,0.0,0.0,0.0,0.0,0.0,0.0,0.0,0.0,0.0,0.0,0.0,0.0,0.0,0.0,0.0,0.0,0.0,0.0,0.0,0.0,0.0,0.0,0.0,0.0,0.0,0.0,0.0,0.0,0.0,0.0,0.0,0.0,0.0,0.0,0.0,0.0,0.0,0.0,0.0,0.0,0.0,0.0,0.0,0.0,0.0,0.0,0.0,0.0,0.0,0.0,0.0,0.0,0.0,0.0,0.0,4.4603,4.8678,5.2268,5.5831,5.6251,5.523,5.2628,5.0091,4.6434,0.0,0.0,0.0,0.0,0.0,0.0,0.0,0.0,0.0,0.0,0.0,0.0,0.0,0.0,0.0,0.0,0.0,0.0,0.0,0.0,0.0,0.0,0.0,0.0,0.0,0.0,0.0,0.0,0.0,0.0,0.0,0.0,0.0,0.0,0.0,0.0,0.0,0.0,0.0,0.0,0.0,0.0,0.0,0.0,0.0,0.0,0.0,0.0,0.0,0.0,0.0,0.0,0.0,0.0,0.0,0.0,0.0,0.0,0.0,0.0,0.0,0.0,0.0,0.0,0.0,0.0,0.0,0.0,0.0,0.0,0.0,0.0,0.0,0.0,0.0,0.0,0.0,0.0,0.0,0.0,0.0,0.0,0.0,0.0,0.0,0.0,0.0,0.0,0.0,0.0,0.0,0.0,0.0,0.0,0.0,0.0,0.0,0.0,0.0,0.0,0.0,0.0,0.0,4.4696,4.8778,5.238,5.5831,5.6194,5.5433,5.3402,5.1451,4.7944,4.2198,0.0,0.0,0.0,0.0,0.0,0.0,0.0,0.0,0.0,0.0,0.0,0.0,0.0,0.0,0.0,0.0,0.0,0.0,0.0,0.0,0.0,0.0,0.0,0.0,0.0,0.0,0.0,0.0,0.0,0.0,0.0,0.0,0.0,0.0,0.0,0.0,0.0,0.0,0.0,0.0,0.0,0.0,0.0,0.0,0.0,0.0,0.0,0.0,0.0,0.0,0.0,0.0,0.0,0.0,0.0,0.0,0.0,0.0,0.0,0.0,0.0,0.0,0.0,0.0,0.0,0.0,0.0,0.0,0.0,0.0,0.0,0.0,0.0,0.0,0.0,0.0,0.0,0.0,0.0,0.0,0.0,0.0,0.0,0.0,0.0,0.0,0.0,0.0,0.0,0.0,0.0,0.0,0.0,0.0,0.0,0.0,0.0,0.0,0.0,0.0,0.0,0.0,4.468,4.8817,5.238,5.5746,5.6164,5.5365,5.3272,5.1864,4.8398,4.2082,0.0,0.0,0.0,0.0,0.0,0.0,0.0,0.0,0.0,0.0,0.0,0.0,0.0,0.0,0.0,0.0,0.0,0.0,0.0,0.0,0.0,0.0,0.0,0.0,0.0,0.0,0.0,0.0,0.0,0.0,0.0,0.0,0.0,0.0,0.0,0.0,0.0,0.0,0.0,0.0,0.0,0.0,0.0,0.0,0.0,0.0,0.0,0.0,0.0,0.0,0.0,0.0,0.0,0.0,0.0,0.0,0.0,0.0,0.0,0.0,0.0,0.0,0.0,0.0,0.0,0.0,0.0,0.0,0.0,0.0,0.0,0.0,0.0,0.0,0.0,0.0,0.0,0.0,0.0,0.0,0.0,0.0,0.0,0.0,0.0,0.0,0.0,0.0,0.0,0.0,0.0,0.0,0.0,0.0,0.0,0.0,0.0,0.0,0.0,0.0,0.0,0.0,4.4666,4.8848,5.2429,5.5664,5.6117,5.5195,5.2753,5.1735,4.8398,4.1791,0.0,0.0,0.0,0.0,0.0,0.0,0.0,0.0,0.0,0.0,0.0,0.0,0.0,0.0,0.0,0.0,0.0,0.0,0.0,0.0,0.0,0.0,0.0,0.0,0.0,0.0,0.0,0.0,0.0,0.0,0.0,0.0,0.0,0.0,0.0,0.0,0.0,0.0,0.0,0.0,0.0,0.0,0.0,0.0,0.0,0.0,0.0,0.0,0.0,0.0,0.0,0.0,0.0,0.0,0.0,0.0,0.0,0.0,0.0,0.0,4.9335,0.0,0.0,0.0,0.0,0.0,0.0,0.0,0.0,0.0,0.0,0.0,0.0,0.0,0.0,0.0,0.0,0.0,0.0,0.0,0.0,0.0,0.0,0.0,0.0,0.0,0.0,0.0,0.0,0.0,0.0,0.0,0.0,0.0,0.0,0.0,0.0,0.0,0.0,0.0,0.0,0.0,4.4743,4.9312,5.3073,5.5702,5.6029,5.5581,5.4381,5.2894,4.9976,4.513,4.1072,0.0,0.0,0.0,0.0,0.0,0.0,0.0,0.0,0.0,0.0,0.0,0.0,0.0,0.0,0.0,0.0,0.0,0.0,0.0,0.0,0.0,0.0,0.0,0.0,0.0,0.0,0.0,0.0,0.0,0.0,0.0,0.0,0.0,0.0,0.0,0.0,0.0,0.0,0.0,0.0,0.0,0.0,0.0,0.0,0.0,0.0,0.0,0.0,0.0,0.0,0.0,0.0,0.0,0.0,0.0,0.0,0.0,0.0,0.0,0.0,4.9784,0.0,0.0,0.0,0.0,0.0,0.0,0.0,0.0,0.0,0.0,0.0,0.0,0.0,0.0,0.0,0.0,0.0,0.0,0.0,0.0,0.0,0.0,0.0,0.0,0.0,0.0,0.0,0.0,0.0,0.0,0.0,0.0,0.0,0.0,0.0,0.0,0.0,0.0,0.0,0.0,4.5461,4.9753,5.3197,5.5741,5.6012,5.5664,5.4868,5.3266,5.0829,4.7391,4.3208,0.0,0.0,0.0,0.0,0.0,0.0,0.0,0.0,0.0,0.0,0.0,0.0,0.0,0.0,0.0,0.0,0.0,0.0,0.0,0.0,0.0,0.0,0.0,0.0,0.0,0.0,0.0,0.0,0.0,0.0,0.0,0.0,0.0,0.0,0.0,0.0,0.0,0.0,0.0,0.0,0.0,0.0,0.0,0.0,0.0,0.0,0.0,0.0,0.0,0.0,0.0,0.0,0.0,5.5122,5.5741,5.6205,5.6089,5.6399,5.6824,5.1873,5.0906,5.2685,5.0596,0.0,0.0,0.0,0.0,0.0,0.0,0.0,0.0,0.0,0.0,0.0,0.0,0.0,0.0,0.0,0.0,0.0,0.0,0.0,0.0,0.0,0.0,0.0,0.0,4.3166,4.3265,3.8838,0.0,0.0,0.0,0.0,0.0,0.0,0.0,0.0,0.0,0.0,0.0,4.6429,5.0271,5.3359,5.5758,5.6012,5.5758,5.511,5.363,5.1721,4.9317,4.547,4.2112,0.0,0.0,0.0,0.0,0.0,0.0,0.0,0.0,0.0,0.0,0.0,0.0,0.0,0.0,0.0,0.0,0.0,0.0,0.0,0.0,0.0,0.0,0.0,0.0,0.0,0.0,0.0,0.0,0.0,0.0,0.0,0.0,4.7463,4.8469,0.0,0.0,0.0,0.0,0.0,0.0,0.0,0.0,0.0,0.0,0.0,0.0,0.0,5.5818,5.6437,5.8062,5.8565,5.7907,5.8023,5.7753,5.7095,5.636,5.6051,5.6128,5.5354,0.0,5.547,5.5161,0.0,0.0,0.0,0.0,0.0,0.0,0.0,0.0,0.0,0.0,0.0,0.0,0.0,0.0,0.0,0.0,0.0,0.0,0.0,0.0,0.0,0.0,5.1773,4.8168,4.8632,4.9513,0.0,4.2458,3.7224,3.6056,3.4776,0.0,0.0,0.0,0.0,0.0,0.0,0.0,4.7378,5.1192,5.4095,5.5924,5.6101,5.6078,5.6009,5.5118,5.379,5.2007,4.9276,4.6268,4.2966,3.9548,0.0,0.0,0.0,0.0,0.0,0.0,0.0,0.0,0.0,0.0,0.0,0.0,0.0,0.0,0.0,0.0,0.0,0.0,0.0,0.0,0.0,0.0,0.0,0.0,0.0,0.0,0.0,0.0,0.0,4.8585,5.0094,5.048,5.1602,5.2221,0.0,0.0,0.0,0.0,0.0,0.0,0.0,0.0,0.0,5.5625,5.6824,5.7637,5.8023,5.9261,5.9919,5.9996,6.0499,6.0809,6.0886,5.9996,5.9609,5.9571,5.9068,5.8604,5.8023,5.6128,5.4929,5.4233,0.0,0.0,0.0,0.0,5.2801,5.2492,5.3459,5.3459,5.2995,5.2376,0.0,0.0,0.0,0.0,0.0,0.0,0.0,5.2562,0.0,0.0,5.2988,5.0999,5.1502,5.2191,5.1383,4.8474,4.4882,0.0,3.9697,3.7945,3.4263,3.4455,0.0,0.0,0.0,4.5061,4.9272,5.2468,5.4823,5.6033,5.6133,5.6133,5.618,5.5404,5.4604,5.3857,5.0984,4.8638,4.7162,4.285,3.9392,0.0,0.0,0.0,0.0,0.0,0.0,0.0,0.0,0.0,0.0,0.0,0.0,0.0,0.0,0.0,0.0,0.0,0.0,0.0,0.0,0.0,0.0,0.0,0.0,0.0,0.0,0.0,0.0,5.0558,5.195,5.2182,5.3343,5.3962,0.0,0.0,0.0,0.0,0.0,0.0,5.6631,5.7482,5.8062,5.8294,5.9106,5.9687,5.988,6.0538,6.1157,6.1776,6.2433,6.3052,6.3671,6.3245,6.2936,6.2704,6.2278,6.1505,6.0306,5.7327,5.6321,5.6553,5.5277,5.4813,5.489,5.5509,5.5354,5.4967,5.6244,5.6128,5.5277,5.4194,5.3127,5.1866,4.9722,0.0,0.0,0.0,0.0,5.3336,5.3746,5.3978,5.3917,5.3088,5.3569,5.4065,5.3421,5.3058,5.1354,0.0,4.4959,4.3173,3.8363,3.8877,0.0,4.0494,4.3918,4.771,5.1283,5.361,5.5225,5.6117,5.6164,5.6164,5.6209,5.5613,5.5123,5.4932,5.2394,5.0658,5.0231,4.6113,4.285,4.0713,0.0,0.0,0.0,0.0,0.0,0.0,0.0,0.0,0.0,0.0,0.0,0.0,0.0,0.0,0.0,0.0,0.0,0.0,0.0,0.0,0.0,0.0,0.0,0.0,0.0,0.0,0.0,0.0,0.0,5.2105,5.4387,0.0,0.0,0.0,0.0,5.6012,5.7482,5.841,5.8449,5.93,6.0112,6.0886,6.1737,6.2627,6.3439,6.3478,6.3516,6.3555,6.3594,6.3671,6.371,6.4522,6.4406,6.3671,6.4445,6.3826,6.2162,6.0383,5.9184,5.8449,5.8372,5.8333,5.8333,5.8372,5.8372,5.8372,5.8449,5.7907,5.7288,5.8023,5.7134,5.5586,5.4697,5.4426,0.0,0.0,5.5277,5.5664,5.4929,5.5316,5.5664,5.4851,5.5277,5.5874,5.6009,5.5127,5.3647,0.0,5.0041,4.8851,4.6874,0.0,4.5698,4.6629,4.7555,4.9475,5.3039,5.4322,5.5228,5.6121,5.6199,5.6213,5.6278,5.6213,5.5824,5.5035,5.4077,5.2795,5.1202,4.9299,4.6696,4.3355,3.9897,0.0,0.0,0.0,0.0,0.0,0.0,0.0,0.0,0.0,0.0,0.0,0.0,0.0,0.0,0.0,0.0,0.0,0.0,0.0,0.0,0.0,0.0,0.0,0.0,0.0,0.0,0.0,0.0,5.4619,5.6437,0.0,5.6824,5.7598,5.8449,5.9223,5.9841,6.0692,6.1814,6.2162,6.2472,6.2743,6.3052,6.3671,6.4522,6.5064,6.5296,6.5334,6.5876,6.5837,6.5296,6.5102,6.4831,6.4561,6.487,6.4329,6.3245,6.3207,6.1698,5.9377,5.8797,5.8604,5.8604,5.8604,5.8604,5.8604,5.8604,5.841,5.7907,5.6592,5.5354,5.4349,5.4039,5.3962,5.431,5.5935,5.6205,5.6205,5.7018,5.7056,5.6902,5.7172,5.7074,5.6914,5.6947,5.6249,5.5358,5.4551,5.2678,5.0542,4.8387,4.867,4.9083,4.8941,5.0546,5.2433,5.4272,5.5242,5.5849,5.616,5.6209,5.6223,5.6213,5.5694,5.5242,5.5009,5.3183,5.2057,5.1979,4.926,4.7201,4.5958,4.2578,3.8732,0.0,0.0,0.0,0.0,0.0,0.0,0.0,0.0,0.0,0.0,0.0,0.0,0.0,0.0,0.0,0.0,0.0,0.0,0.0,0.0,0.0,0.0,0.0,0.0,0.0,5.52,5.667,5.725,5.8836,5.9764,5.9455,5.9957,6.0654,6.1466,6.1814,6.2472,6.3632,6.4251,6.4522,6.4522,6.5102,6.5682,6.6263,6.6804,6.7075,6.7075,6.7655,6.7655,6.7075,6.6804,6.6533,6.6263,6.6263,6.5605,6.4561,6.487,6.3478,6.1079,6.0228,5.988,5.9841,5.9532,5.9609,5.988,5.988,5.988,5.9571,5.7559,5.636,5.5664,5.5664,5.5432,5.5586,5.725,5.7327,5.7134,5.8294,5.8178,5.7869,5.8449,5.8196,5.7727,5.745,5.6978,5.6505,5.6257,5.4691,5.2824,5.0932,5.1538,5.2119,5.1645,5.3003,5.44,5.5281,5.5888,5.6223,5.6223,5.6209,5.6209,5.6223,5.5423,5.4932,5.4945,5.2589,5.1435,5.1979,4.8988,4.7162,4.6851,4.3238,3.982,3.6673,0.0,0.0,0.0,0.0,0.0,0.0,0.0,0.0,0.0,0.0,0.0,0.0,0.0,0.0,0.0,0.0,0.0,0.0,0.0,0.0,0.0,0.0,0.0,5.6051,5.6863,5.8062,5.9725,6.1427,6.2124,6.1273,6.2704,6.3362,6.2588,6.3284,6.3787,6.3864,6.545,6.6301,6.6301,6.7965,6.8854,6.8854,6.8854,6.8854,6.8854,6.8854,6.8816,6.8816,6.9589,6.9551,6.8816,6.8816,6.7849,6.6185,6.5412,6.4599,6.3671,6.2781,6.2433,6.2317,6.1466,6.166,6.2356,6.2356,6.2356,6.224,6.135,6.0538,5.9919,5.9919,5.9339,5.8681,5.8681,5.8681,5.8681,5.8681,5.8681,5.8681,5.8681,5.8681,5.8484,5.766,5.7489,5.724,5.6397,5.6248,5.5938,5.501,5.4839,5.4839,5.4839,5.4839,0.0,5.6102,5.6218,5.6218,5.6218,5.6209,5.6185,5.618,5.5436,5.4919,5.484,5.2498,5.1163,5.1163,4.8677,4.689,4.6035,4.1917,3.9353,3.846,0.0,0.0,0.0,0.0,0.0,0.0,0.0,0.0,0.0,0.0,0.0,0.0,0.0,0.0,0.0,0.0,0.0,0.0,0.0,0.0,0.0,5.5045,5.5548,5.6786,5.8758,6.0228,6.0692,6.2278,6.3245,6.3013,6.34,6.4097,6.5064,6.5373,6.6301,6.8158,6.87,6.897,6.897,6.9435,6.9667,6.9667,6.9667,6.9667,6.9667,6.9667,6.9357,6.8816,6.9048,6.9009,6.8816,6.9435,6.87,6.7152,6.7578,6.6882,6.5373,6.3903,6.3323,6.3245,6.2356,6.1776,6.1466,6.1466,6.1466,6.1311,6.0499,6.046,6.0654,6.0074,6.0151,6.0422,6.0422,6.0422,6.0422,6.0422,6.0422,6.0422,6.0422,6.0422,6.019,5.9374,5.9198,5.8772,5.7284,5.7047,5.6808,5.5885,5.573,5.5785,5.5816,5.5816,5.5893,5.618,5.6149,5.6133,5.6133,5.6149,5.6164,5.6218,5.4865,5.378,5.3132,5.1319,5.027,5.027,4.8366,4.689,4.6035,4.3044,4.1063,0.0,0.0,0.0,0.0,0.0,0.0,0.0,0.0,0.0,0.0,0.0,0.0,0.0,0.0,0.0,0.0,0.0,0.0,0.0,0.0,0.0,0.0,5.6786,5.7404,5.872,6.019,6.1389,6.2085,6.34,6.4522,6.5218,6.5605,6.6379,6.7694,6.8119,6.8816,6.9938,7.0363,7.0363,7.0015,7.0363,7.0711,7.1098,7.1098,7.1098,7.1098,7.1098,7.0634,6.986,6.986,6.986,6.986,6.9938,6.9435,6.8545,6.8738,6.8197,0.0,0.0,0.0,0.0,0.0,6.3168,6.2781,6.3129,6.3013,6.2665,6.2201,6.1853,6.1543,6.1079,6.1002,6.1118,6.1118,6.1118,6.1118,6.1118,6.1118,6.1118,6.1118,6.1118,6.0886,6.0053,5.9895,5.9585,5.86,5.8424,0.0,5.7787,5.6781,5.6062,5.6117,5.6133,5.6133,5.6133,5.6062,5.6046,5.6046,5.6062,5.6117,5.6133,5.4953,0.0,0.0,0.0,4.9804,4.8327,4.7279,0.0,0.0,0.0,4.4443,4.4676,4.3549,0.0,0.0,4.0053,3.9413,0.0,0.0,0.0,0.0,0.0,0.0,0.0,0.0,0.0,0.0,0.0,0.0,0.0,0.0,0.0,0.0,5.8952,6.0228,6.1118,6.1427,6.2124,6.3671,6.4793,6.5992,6.7501,6.8506,6.9435,7.0208,7.0905,7.1059,7.0479,7.1175,0.0,0.0,0.0,7.2065,7.2723,7.2761,7.2761,7.2761,7.2761,7.2336,7.1601,7.1485,7.1446,7.1407,7.0634,7.017,6.9938,6.9357,6.8932,6.8429,6.6147,6.518,6.4986,6.4986,6.4948,6.4948,6.5682,0.0,0.0,6.4831,6.3864,6.2665,6.2588,6.2085,6.1505,6.1427,6.1389,6.1389,6.1273,6.1234,6.1234,6.1118,6.1195,6.102,6.0205,6.0089,6.0128,5.9934,5.9895,5.9856,5.9782,5.7907,5.6399,5.6321,5.6205,5.6167,5.6167,5.6051,5.6012,5.6012,0.0,0.0,5.6012,5.5312,5.4502,5.3659,5.2175,4.992,4.6735,4.6657,4.6696,4.6579,4.7356,4.8483,5.0037,5.0814,5.0814,4.9881,4.3821,4.2578,0.0,0.0,0.0,0.0,0.0,0.0,0.0,0.0,0.0,0.0,0.0,0.0,0.0,0.0,0.0,5.988,6.0112,6.0422,6.193,6.3362,6.4367,6.4715,6.6727,6.8197,6.8506,6.9938,7.1175,7.2026,7.1601,7.1833,7.3071,7.3303,7.3303,7.3148,7.396,7.4115,7.3651,7.3651,7.3651,7.3651,7.3651,0.0,7.338,7.2684,7.2336,7.2336,7.2181,7.1291,7.0054,7.0595,6.9649,6.7793,6.725,6.6185,6.4986,6.4986,6.4561,6.398,6.4135,6.4058,6.3942,6.3942,6.4213,6.4367,6.3671,6.3826,0.0,6.34,6.3207,6.3052,6.2317,6.2162,6.1969,6.1273,6.166,6.1892,6.1059,6.1446,6.1523,6.0169,5.9898,5.9666,5.8952,5.9029,5.8913,5.8178,5.7521,5.7056,5.7056,5.6437,5.6012,5.6012,5.6012,5.6029,5.6062,5.5304,5.4498,5.374,5.2731,5.1552,5.027,5.0814,5.0853,5.0192,5.0348,5.0619,5.0969,5.1125,5.1125,5.093,4.9609,4.8949,0.0,0.0,0.0,0.0,0.0,0.0,0.0,0.0,0.0,0.0,0.0,5.6145,5.8273,0.0,5.8856,6.1427,6.1466,6.1737,6.3478,6.518,6.6263,6.6263,6.7771,6.9319,7.0595,7.1446,7.2491,7.3767,7.3844,7.4231,7.5082,7.5546,7.5585,7.516,7.5546,7.5779,7.5817,7.5817,7.5585,7.516,7.516,7.4695,7.3883,7.3458,7.3264,7.3264,7.3264,7.2491,7.1291,7.1291,7.0307,6.8819,6.8759,6.7503,6.5683,6.5664,6.5374,6.4987,6.4967,6.4677,6.4329,6.4329,6.4329,6.4251,6.3826,6.398,6.4251,6.3826,6.371,6.3594,6.3168,6.3052,6.282,6.1969,6.2085,6.2162,6.1273,6.1427,6.1621,6.1234,6.1157,6.1002,6.0576,6.0847,6.0576,5.8874,5.8217,5.7946,5.7946,5.7559,5.7134,5.6708,5.667,5.6476,5.6084,5.5304,5.4706,5.4362,5.3521,5.2678,5.1824,5.2173,5.2212,5.1824,5.2212,5.2678,5.3106,5.396,5.4388,5.4427,5.4815,5.4077,0.0,0.0,0.0,0.0,0.0,0.0,0.0,5.4001,5.4667,5.4851,5.6089,5.7666,5.9188,6.0046,6.1,6.2588,6.2859,6.3439,6.5025,6.6688,6.7926,6.8429,6.928,7.0518,7.2413,7.3032,7.3883,7.5237,7.6011,7.6475,7.663,7.7326,7.7365,7.6668,7.6823,7.7248,7.7945,7.7945,7.7597,7.69,7.6707,7.5933,7.4618,7.4309,7.4115,7.4115,7.396,7.3496,7.2783,7.191,7.0965,7.0057,7.0036,6.8743,6.688,6.6825,6.6787,6.6748,6.6515,6.6051,6.545,6.5316,6.4774,6.4135,6.398,6.3942,6.3903,6.3748,6.371,6.371,6.371,6.371,6.3516,6.282,6.2665,6.2472,6.1776,6.1466,6.1543,6.2278,6.2278,6.2162,6.2162,6.2162,6.1466,5.9377,5.8952,5.8836,5.8836,5.8681,5.8333,5.7637,5.7559,5.7288,5.6571,5.5978,5.5666,5.5735,5.5087,5.4388,5.3689,5.365,5.365,5.365,5.431,5.5048,5.5747,5.7146,5.7806,5.7845,5.8855,5.804,5.6326,5.367,5.1575,5.3154,5.3046,5.3124,0.0,5.7224,5.8587,5.9258,6.0149,6.112,6.2091,6.2289,6.2633,6.3536,6.4251,6.5025,6.5953,6.7578,6.9512,7.1756,7.28,7.3148,7.2645,7.4657,7.6049,7.6243,7.632,7.6746,7.7519,7.7635,7.7674,7.7558,7.8293,7.8757,7.8834,7.8834,7.8796,7.868,7.7906,7.7442,7.721,7.5662,7.4966,7.4928,7.4231,7.3828,7.3678,7.2822,7.1549,7.0157,7.0098,6.9498,6.8607,6.8548,6.8506,6.8411,6.7677,6.7348,6.7075,6.64,6.6032,6.5799,6.5064,6.4831,6.4677,6.3903,6.371,6.371,6.371,6.371,6.3671,6.3555,6.3555,6.3516,6.3439,6.2781,6.2278,6.2394,6.1776,6.1234,6.1234,6.1234,6.1157,6.0847,6.019,5.9764,5.9764,5.9068,5.8565,5.8449,5.8449,5.8428,5.8402,5.8319,5.8289,5.8372,5.8298,5.8195,5.8078,5.8078,5.8078,5.8078,5.8195,5.8273,5.8389,5.8583,5.8661,5.87,6.037,6.0137,5.4999,5.3923,5.3454,5.2693,5.3359,5.4609,5.6172,5.7812,5.8942,5.8754,5.9789,6.1048,6.191,6.2435,6.3193,6.4482,6.4909,6.5489,6.6766,6.8003,6.9203,7.0247,7.1562,7.3032,7.4657,7.5779,7.6591,7.7132,7.7635,7.8293,7.9105,7.9647,7.9918,7.9918,8.0266,8.0459,8.0459,8.0459,8.0188,7.9685,7.9337,7.8641,7.7674,7.6939,7.6359,7.5817,7.4966,7.4579,7.4486,7.3148,7.2225,7.159,7.1066,7.066,7.0273,6.9207,6.878,6.8741,6.8432,6.7947,6.7423,6.7135,6.6651,6.6147,6.5838,6.5702,6.5605,6.5257,6.5141,6.5141,6.5141,6.5141,6.5025,6.4561,6.4445,6.4329,6.3787,6.34,6.3168,6.3168,6.2859,6.2588,6.2588,6.2588,6.2588,6.2588,6.1466,6.0615,6.0615,6.0267,5.988,5.9416,5.8913,5.8639,5.8706,5.8684,5.8731,5.8789,5.8803,5.8817,5.8817,5.8817,5.8817,5.8817,5.8817,5.8817,5.8817,5.9827,6.0332,6.037,6.2119,6.2507,5.4913,5.4453,5.4609,5.3203,5.4062,5.5586,5.6719,5.8203,5.9219,5.8555,5.9651,6.0864,6.1486,6.2524,6.3607,6.4769,6.5432,6.6224,6.7346,6.8429,6.9048,6.8816,7.0054,7.1988,7.4734,7.543,7.6165,7.7248,7.837,7.9453,8.0498,8.1155,8.1504,8.1504,8.1504,8.1504,8.1504,8.1504,8.1194,8.0575,8.0304,7.9453,7.8022,7.7558,7.6978,7.6359,7.574,7.5314,7.5028,7.3806,7.317,7.2964,7.2073,7.1784,7.1669,7.0118,6.9517,6.9478,6.9244,6.8738,6.8158,6.7987,6.7309,6.6592,6.6632,6.6477,6.6205,6.6264,6.6264,6.6264,6.6264,6.6264,6.6089,6.5509,6.5354,6.5141,6.4522,6.4213,6.4058,6.4058,6.3864,6.371,6.371,6.371,6.371,6.371,6.2627,6.1737,6.1505,6.1234,6.0886,6.0306,5.9648,5.9336,5.9365,5.9398,5.9429,5.9488,5.9502,5.9516,5.9516,5.9516,5.9516,5.9516,5.9516,5.9632,5.9865,6.1147,6.1886,6.2157,6.3634,6.4333,5.7796,5.582,5.4414,5.6055,5.5859,5.5742,5.7461,5.914,6.0351,6.0312,6.1015,6.1679,6.1679,6.3008,6.4053,6.4033,6.6057,6.7578,6.7501,6.8932,6.9667,6.8893,6.9512,7.0402,7.1369,7.2993,7.4657,7.632,7.8022,7.9724,8.1387,8.1504,8.1504,8.1504,8.1504,8.1504,8.1504,8.1504,8.1504,8.1465,8.0614,7.9763,7.8912,7.721,7.6436,7.6397,7.6359,7.594,7.521,7.5066,7.4563,7.3777,7.3003,7.2654,7.2538,7.1746,7.1378,7.1182,7.0369,7.0018,6.9804,6.9032,6.8161,6.7462,6.7522,6.6961,6.6322,6.6358,6.6376,6.6376,6.6376,6.634,6.6303,6.6264,6.6225,6.6147,6.6147,6.5489,6.4948,6.4948,6.429,6.371,6.371,6.371,6.371,6.371,6.3632,6.3323,6.2472,6.1621,6.1079,6.1079,6.1041,6.1059,6.1113,6.1203,6.1197,6.1205,6.1274,6.1342,6.1342,6.1342,6.1342,6.1342,6.1342,6.173,6.2585,6.2624,6.309,6.3945,6.4799,6.5149,5.6421,5.5873,5.5859,5.6445,5.7265,5.8164,5.9297,6.043,6.125,6.125,6.1484,6.2031,6.3203,6.3398,6.3899,6.5455,6.6477,6.7191,6.7578,6.8605,6.8738,6.7364,6.7887,6.8236,6.7926,7.1562,7.4811,7.7094,7.8834,8.0304,8.1465,8.1504,8.1504,8.1504,8.1504,8.1504,8.1504,8.1504,8.1504,8.1504,8.0614,7.9801,7.895,7.779,7.6962,7.6466,7.6421,7.6289,7.6024,7.5376,7.495,7.4668,7.3855,7.3199,7.2715,7.2425,7.1959,7.1474,7.1087,7.0542,7.0039,6.9729,6.909,6.8352,6.8374,6.8181,6.7947,6.7967,6.7987,6.7987,6.8065,6.76,6.7174,6.7154,6.6728,6.634,6.634,6.6108,6.5953,6.5953,6.5644,6.5432,6.5432,6.5393,6.518,6.4638,6.4058,6.3594,6.3284,6.3013,6.282,6.282,6.282,6.2839,6.2856,6.2909,6.2981,6.303,6.3099,6.3129,6.3129,6.3129,6.3129,6.3129,6.3129,6.3284,6.3556,6.41,6.4527,6.4838,6.5654,6.6081,5.6399,5.6814,5.7617,5.789,5.8789,5.9844,6.0664,6.1055,6.125,6.125,6.125,6.168,6.3125,6.3164,6.3785,6.6232,6.6942,6.7542,6.8524,6.8851,6.8682,6.7849,6.7364,6.723,6.7539,7.0827,7.3922,7.6165,7.8486,8.015,8.1001,8.1349,8.1504,8.1504,8.1504,8.1504,8.1504,8.1504,8.1504,8.1504,8.0614,7.9801,7.8989,7.8099,7.7233,7.6444,7.6421,7.6421,7.6405,7.5802,7.5608,7.5537,7.4685,7.409,7.3607,7.3278,7.2677,7.1977,7.1591,7.1048,7.0563,7.0563,6.9962,6.9283,6.9305,6.9111,6.8859,6.8878,6.8936,6.8936,6.8974,6.8548,6.8103,6.81,6.7674,6.7191,6.688,6.7074,6.7113,6.6531,6.6591,6.6689,6.6379,6.6284,6.6051,6.5489,6.4948,6.4367,6.3787,6.371,6.371,6.371,6.371,6.369,6.3728,6.3744,6.3834,6.3851,6.3953,6.3983,6.3983,6.3983,6.3983,6.3983,6.3983,6.4139,6.4411,6.4955,6.5382,6.5693,6.6237,6.6508,5.7799,5.8546,5.9453,6.0273,6.0469,6.0664,6.1523,6.1015,6.039,6.039,6.039,6.0664,6.1523,6.2383,6.375,6.6211,6.7353,6.8524,7.0107,6.9741,6.9525,7.0194,6.8158,6.7596,6.986,7.0905,7.2142,7.3844,7.7094,7.9376,8.0227,8.1039,8.1504,8.1504,8.1504,8.1504,8.1504,8.1504,8.1504,8.1504,8.0653,7.984,7.8989,7.8138,7.7248,7.6397,7.6397,7.6397,7.6397,7.6397,7.6397,7.632,7.5576,7.5249,7.5115,7.4343,7.3549,7.2771,7.194,7.1552,7.1415,7.1415,7.0834,7.0196,7.0235,6.9747,6.914,6.9212,6.9212,6.9212,6.9228,6.9157,6.9045,6.9062,6.8989,6.8682,6.785,6.8333,6.8449,6.6859,6.7152,6.7423,6.6648,6.6418,6.6322,6.6263,6.6224,6.5644,6.4019,6.3826,6.3826,6.3826,6.3826,6.3826,6.3826,6.3881,6.3934,6.3934,6.4054,6.4139,6.4139,6.4139,6.4139,6.4139,6.4139,6.4488,6.5265,6.5265,6.5693,6.6508,6.6508,6.6508,5.9378,5.9913,6.0312,6.1172,6.1367,6.1445,6.164,6.1015,6.039,6.039,6.039,6.0664,6.1523,6.1875,6.2851,6.5312,6.655,6.7751,6.9351,7.0951,7.177,7.1393,7.1125,7.1021,7.0982,7.2336,7.369,7.4734,7.7403,7.9647,8.1078,8.1387,8.1504,8.1504,8.1504,8.1504,8.1504,8.1504,8.1504,8.1504,8.1271,8.042,7.8989,7.8757,7.7852,7.6466,7.6421,7.6421,7.6466,7.6421,7.6397,7.6359,7.6234,7.5813,7.5273,7.5101,7.4536,7.3795,7.3583,7.2655,7.1513,7.1494,7.132,7.1165,7.1184,7.1029,7.0854,7.0872,7.0911,7.0911,7.0947,7.0481,6.9994,6.9989,6.9506,6.9001,6.8768,6.8885,6.8924,6.8497,6.8524,6.849,6.8219,6.7637,6.7212,6.7152,6.6611,6.6031,6.5605,6.5566,6.5566,6.5566,6.5566,6.5566,6.5566,6.5663,6.5717,6.5717,6.5801,6.5848,6.5848,6.5848,6.5848,6.5848,6.5848,6.5965,6.6159,6.6159,6.6275,6.6508,6.6508,6.6508,6.0156,6.0664,6.1094,6.1562,6.1719,6.1601,6.1211,6.0469,5.9883,5.9883,5.9883,6.0234,6.1484,6.1719,6.2656,6.5586,6.6523,6.788,7.0658,7.1885,7.2851,7.3806,7.3238,7.2778,7.2955,7.4193,7.5353,7.6165,7.7945,7.9569,8.0846,8.131,8.1504,8.1504,8.1504,8.1504,8.1504,8.1504,8.1504,8.1504,8.1504,8.0614,7.8989,7.8989,7.8085,7.6444,7.6421,7.6421,7.6444,7.6444,7.6444,7.6444,7.651,7.6281,7.5875,7.5915,7.541,7.4709,7.4709,7.3855,7.2673,7.221,7.2075,7.1997,7.1648,7.1532,7.1568,7.1568,7.1568,7.1568,7.1586,7.1253,7.0865,7.086,7.0549,7.0083,6.9694,6.9927,7.0083,6.9694,6.9256,6.8972,6.8859,6.8452,6.8103,6.8081,6.7346,6.6766,6.6766,6.6456,6.6185,6.6185,6.6185,6.6185,6.6185,6.6303,6.6358,6.6376,6.6445,6.6493,6.6508,6.6508,6.6508,6.6508,6.6508,6.6508,6.6508,6.6508,6.6508,6.6508,6.6897,6.7052,6.0547,6.1133,6.1719,6.1719,6.1601,6.1328,6.0586,5.9687,5.9062,5.918,5.9219,5.9687,6.125,6.1601,6.2773,6.6015,6.664,6.8242,7.2539,7.2578,7.3315,7.6438,7.4796,7.3876,7.516,7.6049,7.6939,7.779,7.868,7.9531,8.0343,8.1078,8.1504,8.1504,8.1504,8.1504,8.1504,8.1504,8.1504,8.1504,8.1504,8.0691,7.9144,7.9067,7.8099,7.6552,7.6436,7.6397,7.6397,7.6466,7.6488,7.6527,7.6553,7.6612,7.6632,7.6632,7.6148,7.5566,7.5566,7.5137,7.4356,7.3333,7.2983,7.2849,7.215,7.1952,7.1908,7.1792,7.1753,7.1753,7.1636,7.1598,7.1598,7.1598,7.1598,7.1403,7.0626,7.1054,7.1365,7.061,6.9911,6.939,6.9264,6.9149,6.9053,6.8991,6.8236,6.7655,6.7655,6.6804,6.6185,6.6185,6.6185,6.6185,6.6185,6.6284,6.6322,6.6415,6.6389,6.6422,6.6508,6.6508,6.6508,6.6508,6.6508,6.6508,6.6508,6.6625,6.6664,6.6703,6.7557,6.7985,6.1289,6.1562,6.1719,6.1719,6.1172,6.0586,6.043,5.9219,5.832,5.9062,5.9219,5.9492,6.0469,6.1211,6.2383,6.4414,6.5351,6.7305,7.1601,7.2617,7.3888,7.6495,7.6323,7.6011,7.6165,7.6939,7.7829,7.8718,7.9531,8.0382,8.1233,8.1426,8.1504,8.1504,8.1504,8.1504,8.1504,8.1504,8.1504,8.1504,8.1504,8.0962,7.9956,7.9299,7.8448,7.7442,7.6707,7.6397,7.6397,7.6421,7.6444,7.6488,7.6488,7.6591,7.6691,7.6691,7.6594,7.6475,7.6475,7.6358,7.6026,7.4455,7.395,7.3911,7.3795,7.3773,7.3618,7.288,7.2685,7.253,7.1792,7.1598,7.1598,7.1598,7.1598,7.1559,7.1403,7.1481,7.1542,7.1392,7.1258,7.1123,7.1068,7.0409,6.9866,6.9904,6.9108,6.8584,6.8584,6.7191,6.6185,6.6185,6.6185,6.6185,6.6185,6.6284,6.6322,6.6415,6.6389,6.6422,6.6508,6.6508,6.6508,6.6508,6.6508,6.6508,6.6508,6.7208,6.7557,6.7596,6.849,6.8878,6.1601,6.1719,6.1719,6.1719,6.0742,5.9765,5.9765,5.8789,5.8164,5.9023,5.9531,6.0078,6.0937,6.1406,6.2265,6.4023,6.4255,6.5888,7.0653,7.1634,7.2944,7.5892,7.6454,7.6588,7.645,7.7597,7.8515,7.894,8.0164,8.1078,8.1504,8.1504,8.1504,8.1504,8.1504,8.1504,8.1504,8.1504,8.1504,8.1504,8.1504,8.1039,8.0188,7.9376,7.8525,7.7635,7.6784,7.6397,7.6397,7.6444,7.6466,7.6488,7.6549,7.6612,7.6652,7.6652,7.6672,7.6652,7.6671,7.669,7.6573,7.5737,7.5211,7.4783,7.4356,7.42,7.4123,7.3695,7.3579,7.3462,7.3074,7.2957,7.2957,7.2957,7.2957,7.2957,7.2957,7.2957,7.2957,7.2962,7.2962,7.2789,7.2269,7.1785,7.132,7.0854,7.0039,6.9477,6.9435,6.8313,6.7539,6.7539,6.7173,6.6922,6.6922,6.6593,6.6358,6.6411,6.6816,6.7121,6.7169,6.7596,6.7868,6.7868,6.7868,6.7868,6.7868,6.8257,6.849,6.849,6.9344,6.9733,6.1719,6.1719,6.1719,6.1719,6.0312,5.8984,5.914,5.8398,5.793,5.8984,5.9844,6.0664,6.1523,6.1719,6.2265,6.4022,6.3891,6.516,6.9762,7.0909,7.23,7.5112,7.6202,7.669,7.6575,7.7976,7.8926,7.8926,8.0536,8.1504,8.1504,8.1504,8.1504,8.1504,8.1504,8.1504,8.1504,8.1504,8.1504,8.1504,8.1504,8.1155,8.0459,7.9647,7.8796,7.7945,7.7055,7.6552,7.6397,7.6637,7.6776,7.6798,7.6841,7.6863,7.6845,7.663,7.6612,7.6612,7.6672,7.6672,7.6691,7.669,7.6242,7.5638,7.4939,7.4744,7.4706,7.4511,7.4472,7.4434,7.4239,7.42,7.42,7.42,7.42,7.42,7.42,7.42,7.42,7.42,7.42,7.395,7.3216,7.2926,7.2559,7.1804,7.097,7.0369,7.0328,6.9786,6.9399,6.9399,6.847,6.7871,6.7871,6.729,6.6901,6.6916,6.7592,6.7997,6.8047,6.8723,6.9111,6.9111,6.9111,6.9111,6.9111,6.9267,6.9344,6.9383,7.0199,7.0588,6.1719,6.1719,6.1719,6.1719,5.9844,5.8242,5.9023,5.789,5.7187,5.8867,5.9844,6.0664,6.1523,6.1719,6.2264,6.4037,6.4882,6.6321,6.9142,7.1563,7.3406,7.44,7.5974,7.691,7.6801,7.8108,7.8994,7.9096,8.0593,8.1504,8.1504,8.1504,8.1504,8.1504,8.1504,8.1504,8.1504,8.1504,8.1504,8.1504,8.1504,8.1465,8.1349,8.0498,7.9647,7.8834,7.7945,7.7132,7.6436,7.7248,7.7643,7.7689,7.7643,7.7689,7.7698,7.682,7.657,7.6612,7.6612,7.6612,7.6612,7.6632,7.6614,7.657,7.6493,7.6493,7.6337,7.5599,7.5366,7.5211,7.4395,7.42,7.42,7.42,7.42,7.42,7.42,7.42,7.42,7.42,7.42,7.4162,7.4084,7.335,7.2771,7.2675,7.194,7.1359,7.1359,7.1281,7.1242,7.1242,6.9691,6.87,6.87,6.8622,6.8586,6.8588,6.8723,6.8798,6.889,6.904,6.9111,6.9111,6.9111,6.9111,6.9111,6.9849,7.0199,7.0199,7.1093,7.1481,6.0937,6.1316,6.1681,6.1717,6.0156,5.8711,5.9101,5.8672,5.8359,5.9062,6.0273,6.1288,6.1629,6.1704,6.229,6.4005,6.3716,6.4531,6.8122,6.9528,7.1078,7.347,7.5172,7.6325,7.6768,7.8193,7.9582,8.0689,8.1307,8.1624,8.162,8.1542,8.1504,8.1504,8.1504,8.1504,8.1504,8.1504,8.1504,8.1504,8.1504,8.1504,8.1465,8.0614,8.0034,7.9685,7.8834,7.8293,7.7983,7.8332,7.851,7.8471,7.7906,7.7736,7.7666,7.6753,7.6444,7.6488,7.6549,7.6531,7.657,7.6591,7.6594,7.6633,7.6671,7.6708,7.6648,7.6298,7.6221,7.6143,7.5793,7.5716,7.5716,7.5716,7.5716,7.5716,7.5716,7.5716,7.5716,7.5716,7.5716,7.556,7.5055,7.4649,7.4049,7.2965,7.2481,7.2114,7.1572,7.1494,7.1494,7.1494,7.0428,6.9692,6.9692,6.9264,6.8972,6.8989,6.9472,6.9761,6.9778,7.0299,7.0588,7.0588,7.0588,7.0588,7.0626,7.0937,7.1093,7.1093,7.1986,7.2375,6.0655,6.103,6.1331,6.1303,6.0192,5.9062,5.8867,5.9023,5.9218,5.9216,6.0543,6.1711,6.1694,6.1686,6.2271,6.4005,6.3486,6.4062,6.7615,6.8786,7.0152,7.2612,7.4554,7.5884,7.6469,7.817,8.003,8.1735,8.1815,8.1757,8.1746,8.1624,8.1553,8.1504,8.1504,8.1504,8.1504,8.1504,8.1504,8.1504,8.1504,8.1504,8.1504,8.0846,8.0459,8.0188,7.9608,7.9221,7.9028,7.926,7.9337,7.9299,7.868,7.8448,7.8332,7.7481,7.7171,7.7132,7.6908,7.6853,7.6815,7.6626,7.6531,7.6591,7.6632,7.6633,7.6671,7.6671,7.669,7.6708,7.6726,7.6687,7.6687,7.6687,7.6687,7.6687,7.6687,7.6687,7.6687,7.6687,7.6687,7.6531,7.5949,7.5638,7.5094,7.3816,7.3139,7.2616,7.1997,7.1687,7.1532,7.1532,7.1025,7.0693,7.0658,7.0132,6.98,6.98,7.036,7.0688,7.0688,7.1287,7.1598,7.1598,7.1598,7.1598,7.1598,7.1598,7.1714,7.1986,7.2608,7.319,6.1229,6.1062,6.039,6.0399,5.9768,5.8906,5.8086,5.8594,5.9217,5.9187,6.0549,6.1686,6.1707,6.1694,6.2267,6.4023,6.4999,6.6131,6.7849,7.0348,7.1987,7.2026,7.4251,7.5813,7.5813,7.8057,8.0143,8.167,8.1843,8.1913,8.1913,8.1776,8.1652,8.1504,8.1504,8.1504,8.1504,8.1504,8.1504,8.1504,8.1504,8.1504,8.1504,8.1504,8.1039,8.0188,8.0188,7.9724,7.9067,7.9879,8.0188,8.0188,8.0188,8.0188,8.0072,7.926,7.8989,7.8834,7.7983,7.7674,7.7558,7.6668,7.6444,7.6488,7.6488,7.657,7.6612,7.6612,7.6652,7.671,7.6708,7.6687,7.6687,7.6687,7.6687,7.6687,7.6687,7.6687,7.6687,7.6687,7.6687,7.6687,7.6687,7.6026,7.5482,7.5482,7.4006,7.2918,7.288,7.2142,7.1598,7.1598,7.1598,7.1564,7.1494,7.1494,7.1494,7.1494,7.1532,7.1607,7.1607,7.162,7.1598,7.1598,7.1598,7.1598,7.1598,7.1598,7.2025,7.288,7.2918,7.3812,5.909,5.9742,6.0273,5.9728,5.9342,5.8905,5.8081,5.9006,5.9865,5.9241,6.0518,6.1681,6.169,6.1686,6.2462,6.4804,6.5429,6.6405,6.8669,7.0206,7.1538,7.2729,7.5149,7.714,7.835,7.9197,8.0345,8.2026,8.2101,8.2052,8.2039,8.1813,8.1677,8.1652,8.1538,8.1504,8.1504,8.1504,8.1504,8.1504,8.1504,8.1194,8.0614,8.0614,8.015,7.9415,7.9956,8.0072,7.9879,8.073,8.1078,8.1039,8.042,8.0188,8.0111,7.9299,7.8989,7.895,7.868,7.8602,7.8448,7.7558,7.7311,7.7195,7.6614,7.6488,7.6612,7.6612,7.6652,7.6691,7.6633,7.6671,7.6708,7.669,7.6708,7.6687,7.6687,7.6687,7.6687,7.6687,7.6687,7.6687,7.6687,7.6493,7.6143,7.556,7.5016,7.4472,7.389,7.354,7.3152,7.2569,7.2962,7.2849,7.1666,7.1589,7.1571,7.1494,7.1513,7.1513,7.1513,7.1532,7.1822,7.2401,7.2401,7.2729,7.3385,7.3385,7.3812,7.4667,7.4667,7.5288,5.8398,5.8856,5.9313,5.8793,5.8903,5.8783,5.7688,5.8718,5.9773,5.9198,6.0245,6.133,6.1642,6.172,6.2345,6.4297,6.4882,6.5785,6.7707,6.9273,7.1108,7.3471,7.5433,7.7425,7.9483,7.9689,8.0275,8.1708,8.1711,8.1529,8.1197,8.0941,8.0766,8.0747,8.1213,8.1453,8.1453,8.1453,8.1324,8.1001,8.1001,8.0575,7.9763,7.9763,7.9453,7.9028,7.984,8.0188,0.0,8.1155,8.1504,8.1465,8.0923,8.0691,8.0653,8.015,7.9956,7.9918,7.9569,7.9453,7.926,7.8061,7.7481,7.7094,7.6552,7.6466,7.651,7.657,7.6612,7.6632,7.6612,7.6614,7.6671,7.6691,7.671,7.6708,7.6726,7.6687,7.6687,7.6687,7.6687,7.6687,7.6687,7.6687,7.6531,7.6026,7.5677,7.5288,7.4744,7.4395,7.4006,7.3462,7.3816,7.3664,7.2579,7.2502,7.2502,7.2463,7.2425,7.2425,7.2425,7.2425,7.2715,7.3276,7.3276,7.3604,7.42,7.4511,7.4977,7.5521,7.5793,7.6221,0.0,5.8395,5.7773,5.7732,5.8315,5.8512,5.6948,5.7832,0.0,5.9104,5.9807,6.0705,6.1603,6.1759,6.2032,6.3008,6.3906,6.4774,6.5573,6.7945,7.0821,7.4101,7.5369,7.6935,7.9371,7.9664,8.0059,8.0861,8.0894,8.0543,7.9762,7.9439,7.9267,7.922,8.0539,8.1207,8.1246,8.1246,8.0847,8.0111,8.0111,7.9685,7.8912,7.8912,7.8873,7.8873,7.9685,8.0034,8.0111,8.0962,8.1349,8.1426,8.1426,8.1465,8.1504,8.1504,8.1504,8.1387,8.0575,8.0304,8.0034,7.8332,7.7171,7.6397,7.6397,7.6397,7.6421,7.6466,7.6488,7.6488,7.6591,7.6612,7.6632,7.6672,7.6691,7.671,7.6708,7.6687,7.6687,7.6687,7.6687,7.6687,7.6687,7.6687,7.6687,7.6687,7.6065,7.5599,7.5599,7.4861,7.4356,7.4317,7.4356,7.4321,7.4112,7.4053,7.4014,7.3994,7.3994,7.3994,7.3994,7.3994,7.4073,7.4189,7.4227,7.4303,7.4395,7.5172,7.5599,7.5599,7.6337,7.6726,5.7132,0.0,5.7718,5.7065,5.7024,5.7093,0.0,5.7391,5.8285,5.8948,5.9807,6.0861,6.2423,6.2149,6.2423,6.4648,6.5663,6.6297,6.651,6.933,7.2142,7.4243,7.643,7.8032,7.8653,7.932,7.9795,7.9997,7.9997,7.9915,7.9707,7.9533,7.9422,7.9338,7.9427,7.9467,7.9389,7.9389,7.9339,7.9224,7.9224,7.8785,7.8022,7.8022,7.7635,7.7055,7.7906,7.8293,7.837,7.9221,7.9956,8.0498,8.0498,8.0923,8.1504,8.1504,8.1504,8.1465,8.1271,8.1194,8.0923,7.9221,7.7635,7.6397,7.6397,7.6397,7.6397,7.6421,7.6444,7.6488,7.6444,7.651,7.6612,7.6632,7.6672,7.671,7.6708,7.6687,7.6687,7.6687,7.6687,7.6687,7.6687,7.6687,7.6687,7.6687,7.6531,7.6415,7.6415,7.6259,7.5871,7.5249,7.5758,7.5856,7.512,7.4422,7.3974,7.3928,7.3928,7.3928,7.3928,7.3928,7.4221,7.4943,7.5683,7.6089,7.6104,7.6337,7.6415,7.6415,7.6609,7.7075,5.6575,5.7231,5.7781,5.7285,5.7161,5.7153,5.7153,5.7192,5.7504,5.8324,5.9183,6.0198,6.1564,6.208,6.2748,6.4179,6.5095,6.6201,6.7769,7.0663,7.3202,7.4919,7.7067,7.8395,7.8395,7.8827,7.9101,7.9101,7.9101,7.8944,7.8512,7.8395,7.8261,7.8213,7.7912,7.8108,7.8838,7.8772,7.8552,7.8258,7.8258,7.7821,7.6996,7.6996,7.6751,7.6389,7.7278,7.7689,7.7751,7.8641,7.9453,8.0188,8.0188,8.0498,8.0962,8.1349,8.1271,8.0962,8.1349,8.1001,8.0188,7.9299,7.7829,7.6475,7.6862,7.6707,7.6397,7.6397,7.6444,7.6488,7.6444,7.651,7.6612,7.6652,7.6672,7.671,7.6708,7.6687,7.6687,7.6687,7.6687,7.6687,7.6687,7.6687,7.6687,7.6687,7.6687,7.6687,7.6687,7.6687,7.6531,7.6104,7.6436,7.6516,7.6031,7.5547,7.5216,7.5089,7.5089,7.5066,7.5044,7.5044,7.526,7.5791,7.64,7.671,7.669,7.6708,7.6687,7.6726,7.7114,7.7541,5.6766,5.7309,5.7859,5.766,5.7699,5.7777,5.7625,5.7079,5.6844,5.7625,5.8484,5.946,6.0592,6.2091,6.3266,6.3525,6.4213,6.5937,6.9492,7.1797,7.3789,7.5586,7.7343,7.8359,7.8203,7.8315,7.8352,7.8201,7.8202,7.789,7.7148,7.6974,7.6894,7.6833,7.6582,7.7113,7.8524,7.8335,7.7891,7.7279,7.7279,7.6893,7.6198,7.6198,7.6225,7.6314,7.7048,7.7408,7.7534,7.8269,7.9067,7.984,7.984,7.9956,8.0266,8.0885,8.073,8.0304,8.1039,8.0382,7.9144,7.9028,7.7906,7.6707,7.7326,7.6978,7.6397,7.6397,7.6444,7.6466,7.6488,7.6531,7.6612,7.6672,7.6691,7.671,7.6708,7.6708,7.6708,7.6708,7.6708,7.6708,7.6687,7.6687,7.6687,7.6687,7.6687,7.6687,7.6687,7.6687,7.6687,7.6687,7.6687,7.6708,7.671,7.671,7.6672,7.6549,7.6488,7.6466,7.6397,7.6421,7.6444,7.6488,7.6632,7.6672,7.6691,7.6806,7.6863,7.6902,7.7813,7.828,5.7426,5.7711,5.7642,5.6962,5.7309,5.7625,5.6939,5.6708,5.6825,5.7645,5.8504,5.9832,6.2175,6.3416,6.4544,6.6,6.6325,6.789,7.2109,7.2411,7.3107,7.5507,7.7341,7.8118,7.7374,7.7959,7.811,7.7352,7.7307,7.7239,7.71,7.707,7.7066,7.7052,7.6755,7.669,7.6962,7.6585,7.638,7.6311,7.6311,7.6261,7.6198,7.6198,7.6198,7.6198,7.6353,7.6443,7.6519,7.6673,7.7278,7.8061,7.8061,7.895,8.015,7.9608,7.9724,8.0227,8.0343,8.0227,7.9918,7.9221,7.8332,7.7403,7.6784,7.6514,7.6397,7.6397,7.6397,7.6421,7.6466,7.6488,7.657,7.6672,7.6691,7.6691,7.671,7.671,7.671,7.671,7.671,7.671,7.6708,7.6687,7.6687,7.6687,7.6687,7.6687,7.6687,7.6687,7.6687,7.6687,7.6687,7.6726,7.6708,7.6708,7.669,7.6672,7.6531,7.6466,7.6397,7.6444,7.6466,7.6488,7.651,7.657,7.6632,7.737,7.77,7.7758,7.8689,7.9484,5.7035,5.748,5.7606,5.6819,5.6861,5.7064,5.6676,5.5857,5.57,5.7454,5.8116,5.921,6.1826,6.3391,6.4997,6.7146,6.8707,7.0463,7.2957,7.4123,7.5173,7.6352,7.7644,7.8071,7.7161,7.7473,7.7547,7.714,7.7101,7.7107,7.7083,7.71,7.7108,7.7108,7.6847,7.6675,7.6609,7.6305,7.6106,7.6034,7.6034,7.6062,7.609,7.609,7.609,7.6145,7.6145,7.6172,7.625,7.6276,7.6828,7.7664,7.7713,7.8448,7.9492,7.9144,7.9221,7.9569,7.9569,7.9221,7.8796,7.8409,7.7713,7.7016,7.7094,7.6784,7.6591,7.7519,7.7156,7.6444,7.6488,7.6549,7.6591,7.6632,7.6652,7.6652,7.6652,7.7021,7.7351,7.7351,7.7758,7.7951,7.7503,7.7386,7.7231,7.6764,7.6687,7.6687,7.6687,7.6687,7.6687,7.6687,7.6687,7.6687,7.6687,7.6687,7.6708,7.6691,7.6612,7.6531,7.6488,7.6531,7.6764,7.7229,7.7271,7.7504,7.793,7.8379,7.8573,7.8592,7.9486,8.0146,5.684,5.7207,5.7374,5.6751,5.6756,5.6875,5.6875,5.5859,5.5508,5.7655,5.8279,5.9216,6.1833,6.4219,6.6519,6.8644,7.0878,7.26,7.3476,7.5443,7.6853,7.7062,7.7708,7.7829,7.714,7.7101,7.7101,7.7101,7.7101,7.7101,7.7101,7.7087,7.7105,7.7109,7.6906,7.6727,7.6609,7.6415,7.6199,7.6015,7.6015,7.6015,7.6015,7.6015,7.6005,7.6062,7.6062,7.6118,7.6172,7.6225,7.6662,7.728,7.733,7.7858,7.8708,7.9095,7.9095,7.8965,7.8965,7.8564,7.7983,7.7751,7.7248,7.6784,7.7248,7.7055,7.6978,7.8332,7.793,7.7047,7.6876,7.682,7.6824,7.6651,7.6767,7.6904,7.6883,7.7583,7.8205,7.8205,7.8787,7.9077,7.8435,7.8124,7.7775,7.7114,7.6842,7.6687,7.6687,7.6687,7.6687,7.6687,7.6687,7.6687,7.6687,7.6687,7.6708,7.671,7.6633,7.6632,7.6612,7.6826,7.7214,7.7891,7.8088,7.8476,7.9093,7.9368,7.9445,7.9463,8.0358,8.0805,5.7504,5.7207,5.6673,5.6601,5.7148,5.7695,5.7729,5.761,5.7806,5.8782,5.9641,6.1008,6.3623,6.7451,7.0575,7.1549,7.2567,7.3498,7.4296,7.5272,7.6209,7.6984,7.714,7.7179,7.7101,7.7101,7.7101,7.7101,7.7101,7.7101,7.7101,7.7087,7.7105,7.7109,7.6906,7.6727,7.6609,7.6415,7.6199,7.6015,7.6015,7.6015,7.6015,7.6015,7.6015,7.6015,7.6015,7.6072,7.6118,7.6118,7.6184,7.6314,7.6314,7.6816,7.778,7.9324,7.9493,7.8889,7.8889,7.8901,7.8757,7.7945,7.7674,7.7481,7.6707,7.7016,7.7635,7.7751,7.8293,7.8665,7.7899,7.7728,7.7556,7.6785,7.7234,7.7797,7.7796,7.8476,7.9097,7.9097,7.9136,7.9195,7.9212,7.8552,7.7969,7.793,7.7231,7.6687,7.6687,7.6687,7.6687,7.6687,7.6687,7.6687,7.6687,7.6687,7.6687,7.6726,7.6708,7.6671,7.6612,7.7389,7.7836,7.7891,7.8628,7.9016,7.9093,7.9908,8.0317,8.0417,8.131,8.1718,5.6973,5.6829,5.6718,5.7222,5.7996,5.846,5.791,5.7789,5.8495,6.1004,6.1358,6.2178,6.5261,6.7168,6.9074,7.1573,7.2744,7.3754,7.511,7.6047,7.6711,7.7062,7.7101,7.7101,7.7101,7.7101,7.7101,7.7101,7.7101,7.7101,7.7101,7.7112,7.7091,7.7105,7.7028,7.69,7.6715,7.6549,7.6394,7.6173,7.6062,7.6015,7.6015,7.6015,7.6015,7.6015,7.6015,7.6005,7.6034,7.6062,7.6118,7.6261,7.7329,7.7317,7.6893,7.859,7.8374,7.7267,7.7267,7.7316,7.7326,7.6978,7.7248,7.7635,7.7287,7.7829,7.8602,7.9105,7.9492,7.9569,7.8742,7.8549,7.8495,7.817,7.837,7.8646,7.8663,7.9347,7.999,7.999,8.0495,8.0708,8.0222,7.9834,7.9251,7.8163,7.7736,7.7308,7.6764,7.6687,7.6687,7.6687,7.6687,7.6687,7.6687,7.7192,7.7503,7.7503,7.6998,7.6941,7.7448,7.7777,7.8476,7.9544,7.9893,8.0262,8.0785,8.1134,8.1269,8.1269,8.1639,8.1834,5.6595,5.66,5.6718,5.7252,5.8258,5.9031,5.8705,5.9056,6.0119,6.2514,6.2943,6.3685,6.6336,6.7264,6.839,7.0771,7.2606,7.4095,7.5227,7.6399,7.7101,7.7101,7.7101,7.7101,7.7101,7.7101,7.7101,7.7101,7.7101,7.7101,7.7101,7.6828,7.6688,7.6707,7.6403,7.6323,7.6404,7.6274,7.6244,7.6289,7.6106,7.6015,7.6015,7.6015,7.6015,7.6015,7.6015,7.6015,7.6015,7.6034,7.6062,7.6216,7.7698,7.7544,7.6696,7.8122,7.7792,7.6675,7.6675,7.6557,7.6374,7.6397,7.6784,7.7326,7.7635,7.8293,7.9183,7.9956,8.042,8.0498,7.9918,7.9608,7.9299,7.9067,7.9254,7.9493,7.9493,8.026,8.0961,8.0961,8.1446,8.1698,8.1116,8.0766,8.0183,7.9018,7.859,7.8085,7.7231,7.7114,7.6998,7.6726,7.6959,7.7114,7.7114,7.7891,7.8396,7.8396,7.7852,7.7775,7.8396,7.8668,7.9367,8.0572,8.0882,8.1291,8.1834,8.1834,8.1814,8.1755,8.1814,8.1834,5.6601,5.6601,5.6562,5.651,5.7838,5.9319,6.021,6.1765,6.3026,6.3026,6.4379,6.5769,6.6666,6.8241,6.9387,6.9426,7.2249,7.4486,7.4486,7.6008,7.7101,7.7101,7.7101,7.7101,7.7101,7.7101,7.7101,7.7101,7.7101,7.7062,7.7062,7.6242,7.579,7.5809,7.4949,7.4844,7.5579,7.5402,7.5633,7.6302,7.6083,7.6015,7.6015,7.6015,7.6015,7.6015,7.6015,7.6015,7.6015,7.6015,7.6015,7.6092,7.6938,7.7284,7.74,7.8169,7.8036,7.74,7.7483,7.6984,7.6301,7.6374,7.6397,7.6552,7.7442,7.8293,7.9183,7.9956,8.0807,8.1504,8.1504,8.0846,7.9995,7.9221,7.9741,8.0412,8.0412,8.1193,8.1892,8.1892,8.1892,8.1892,8.1892,8.1193,8.061,8.061,7.9872,7.8979,7.8124,7.8008,7.7658,7.6842,7.7503,7.8008,7.8008,7.8823,7.929,7.929,7.9328,7.9328,7.929,8.0144,8.061,8.061,8.1465,8.1892,8.1892,8.1834,8.1834,8.1892,8.1834,8.1854,5.66,5.5696,5.5185,5.6957,5.827,5.9474,6.099,6.2629,6.4385,6.6205,6.6993,6.778,6.9263,6.8964,6.9093,7.0928,7.2054,7.3107,7.433,7.5449,7.6425,7.7023,7.7101,7.7101,7.7101,7.7101,7.6861,7.6223,7.6184,7.5904,7.5311,7.5031,7.4882,7.4896,7.4613,7.4598,7.4803,7.5272,7.553,7.5611,7.5989,7.616,7.6015,7.6015,7.6015,7.6015,7.6015,7.6015,7.6015,7.6015,7.6015,7.6092,7.6938,7.6938,7.6476,7.7323,7.715,7.6475,7.6503,7.6403,7.6225,7.6301,7.6751,7.7316,7.7635,7.8293,7.9067,7.9299,7.9956,8.0614,8.0614,8.0846,8.1039,8.0807,8.1035,8.1259,8.1303,8.16,8.1854,8.1892,8.1892,8.1892,8.1892,8.1698,8.131,8.0688,8.0377,7.9911,7.9018,7.8396,7.8124,7.8474,7.8746,7.8901,7.8901,7.9717,8.0222,8.0222,8.0805,8.0844,8.0222,8.0455,8.0882,8.1504,8.1776,8.1892,8.1892,8.1873,8.1873,8.1892,8.1873,8.1873,5.6038,5.5521,5.5357,5.6899,5.8454,6.0249,6.2675,6.4275,6.5868,6.8109,6.8312,6.8515,6.988,6.9315,6.9126,7.0693,7.178,7.2795,7.3849,7.474,7.5475,7.5989,7.6067,7.6067,7.6067,7.6067,7.5865,7.5311,7.5265,7.507,7.4546,7.4156,7.3961,7.3961,7.3654,7.3632,7.3984,7.4372,7.4655,7.4883,7.5538,7.5791,7.5632,7.588,7.6015,7.6015,7.6015,7.6015,7.6015,7.6015,7.6015,7.6053,7.6592,7.6476,7.6053,7.6592,7.6467,7.6062,7.609,7.6118,7.6172,7.6225,7.6598,7.7125,7.7524,7.778,7.8051,7.8747,7.9313,7.9801,8.0111,8.0846,8.1504,8.1504,8.1553,8.1624,8.1646,8.1713,8.1755,8.1854,8.1854,8.1873,8.1892,8.1892,8.1737,8.1193,8.0805,8.0416,7.9872,7.9057,7.8707,7.9251,7.96,7.9834,7.9834,8.061,8.1116,8.1116,8.1621,8.1659,8.1154,8.1116,8.1349,8.1892,8.1892,8.1892,8.1892,8.1892,8.1892,8.1892,8.1892,8.1892,5.5265,5.5728,5.6235,5.6626,5.8705,6.152,6.486,6.6226,6.728,6.8936,6.8858,6.8663,6.9405,6.9575,6.9627,6.9627,7.1624,7.3192,7.3218,7.3875,7.4414,7.4476,7.4507,7.4507,7.4507,7.4507,7.4468,7.439,7.439,7.4351,7.4264,7.3484,7.3064,7.3064,7.2299,7.2275,7.3055,7.3046,7.3377,7.4109,7.4781,7.508,7.5017,7.5709,7.6015,7.6015,7.6015,7.6015,7.6015,7.6015,7.6015,7.6015,7.6015,7.6015,7.6015,7.6015,7.6015,7.6015,7.6062,7.609,7.609,7.6172,7.6198,7.6353,7.7124,7.6829,7.6533,7.8194,7.8708,7.8989,7.9879,8.073,8.1387,8.1504,8.1553,8.16,8.16,8.1646,8.1713,8.1794,8.1814,8.1834,8.1873,8.1892,8.1892,8.1892,8.1154,8.0649,8.0727,7.995,7.9445,7.9523,8.0261,8.0727,8.0727,8.1426,8.1892,8.1892,8.1892,8.1892,8.1892,8.1892,8.1892,8.1892,8.1892,8.1892,8.1892,8.1892,8.1892,8.1892,8.1892,8.1892,5.5699,5.4909,5.4328,5.7695,6.0505,6.316,6.592,6.6667,6.7292,6.8936,7.0231,7.1136,7.1292,7.139,7.1435,7.1435,7.1858,7.2438,7.3192,7.3406,7.3743,7.4414,7.4515,7.4507,7.4507,7.4507,7.4225,7.3544,7.3466,7.3144,7.2423,7.2189,7.2111,7.2111,7.1975,7.2002,7.2174,7.284,7.3199,7.3256,7.4055,7.4365,7.43,7.5577,7.609,7.6015,7.6015,7.6015,7.6015,7.6015,7.6015,7.6015,7.6015,7.6015,7.6015,7.6015,7.6015,7.6015,7.6044,7.6005,7.6005,7.609,7.6118,7.6156,7.6403,7.5942,7.549,7.6571,7.6891,7.7287,7.8873,7.9879,8.0653,8.1349,8.1504,8.1528,8.16,8.1624,8.1646,8.1713,8.1713,8.1734,8.1834,8.1834,8.1854,8.1892,8.1154,8.0844,8.1543,8.0844,8.0572,8.1271,8.1504,8.1621,8.1621,8.1776,8.1892,8.1892,8.1892,8.1892,8.1892,8.1892,8.1892,8.1892,8.1892,8.1892,8.1892,8.1892,8.1892,8.1892,8.1892,8.1892,5.5416,5.5221,5.546,5.9373,6.1681,6.3672,6.6199,6.679,6.718,6.845,7.0096,7.1468,7.1858,7.1982,7.1987,7.1987,7.1982,7.2093,7.2561,7.2587,7.2767,7.3197,7.3267,7.325,7.3241,7.3241,7.3037,7.2589,7.2539,7.2306,7.1817,7.1817,7.1817,7.1817,7.1887,7.1906,7.1893,7.2346,7.2553,7.2498,7.3306,7.3836,7.4146,7.5171,7.576,7.6015,7.6015,7.6015,7.6015,7.6015,7.6015,7.6015,7.6015,7.6015,7.6015,7.6015,7.6015,7.6015,7.6015,7.6015,7.6015,7.6034,7.6034,7.6034,7.609,7.5528,7.508,7.6019,7.6301,7.6736,7.8564,7.9608,8.042,8.131,8.1504,8.1504,8.1553,8.1553,8.1577,8.1646,8.1646,8.1669,8.1734,8.1734,8.1814,8.1873,8.1485,8.1369,8.1854,8.1504,8.1387,8.1854,8.1892,8.1892,8.1892,8.1892,8.1892,8.1892,8.1892,8.1892,8.1892,8.1892,8.1892,8.1892,8.1892,8.1892,8.1892,8.1892,8.1892,8.1892,8.1892,8.1892,5.4708,5.5962,5.7724,6.0895,6.2462,6.3867,6.6249,6.6678,6.6873,6.7888,6.9372,7.0738,7.1597,7.1792,7.1831,7.1987,7.1987,7.1982,7.193,7.193,7.1916,7.1901,7.1893,7.1885,7.1906,7.1906,7.1897,7.1827,7.1827,7.1827,7.1817,7.1817,7.1817,7.1817,7.1838,7.1906,7.1885,7.1909,7.1909,7.1906,7.2616,7.3345,7.3991,7.4438,7.4997,7.5589,7.5572,7.5659,7.5784,7.5784,7.5861,7.6015,7.6015,7.6015,7.6015,7.6015,7.6015,7.6015,7.6015,7.6015,7.6015,7.6015,7.6015,7.6015,7.6015,7.5456,7.4973,7.5914,7.6135,7.6519,7.8307,7.9351,8.0202,8.1078,8.1362,8.1478,8.1504,8.1504,8.1504,8.1577,8.16,8.1624,8.1669,8.1691,8.1734,8.1854,8.1834,8.1814,8.1873,8.1873,8.1892,8.1892,8.1892,8.1854,8.1698,8.1698,8.1621,8.1465,8.1465,8.1504,8.1659,8.1698,8.1737,8.1892,8.1892,8.1892,8.1892,8.1892,8.1892,8.1892,8.1892,8.1892,5.3738,5.6397,5.9217,6.1213,6.293,6.4609,6.6405,6.6249,6.6209,6.7771,6.8903,6.984,7.0699,7.0855,7.1128,7.187,7.1987,7.1987,7.1987,7.1937,7.1884,7.1884,7.1901,7.1893,7.1885,7.1885,7.1915,7.1897,7.1887,7.1838,7.1778,7.1817,7.1817,7.1817,7.1817,7.1838,7.1897,7.1906,7.1893,7.1897,7.202,7.2417,7.3087,7.3163,7.3483,7.401,7.4007,7.4333,7.4861,7.4861,7.5322,7.6015,7.6015,7.6015,7.6015,7.6015,7.6015,7.6015,7.6015,7.6015,7.6015,7.6015,7.6015,7.6015,7.6015,7.5456,7.4973,7.5859,7.5658,7.5567,7.7305,7.8451,7.9301,8.0164,8.0912,8.1427,8.1478,8.1504,8.1504,8.1504,8.1553,8.16,8.1624,8.1669,8.1691,8.1713,8.1713,8.1734,8.1775,8.1834,8.1854,8.1892,8.1892,8.1582,8.0844,8.0766,8.0455,7.9678,7.9639,7.9989,8.0727,8.0766,8.1116,8.1892,8.1892,8.1892,8.1892,8.1892,8.1892,8.1892,8.1892,8.1892,5.4255,5.6523,5.8792,6.0549,6.1915,6.3438,6.5624,6.5858,6.5936,6.7146,6.7693,6.8357,6.9723,6.9957,7.0113,7.0465,7.0543,7.0699,7.1206,7.124,7.139,7.1897,7.1969,7.1924,7.1909,7.148,7.1394,7.1876,7.1438,7.138,7.1838,7.1827,7.1583,7.1154,7.1126,7.1146,7.1174,7.123,7.148,7.1976,7.1963,7.2101,7.2383,7.2378,7.2916,7.3894,7.3859,7.401,7.4253,7.4694,7.5066,7.549,7.5841,7.6015,7.6015,7.6015,7.6015,7.6015,7.6015,7.6015,7.6015,7.6015,7.6015,7.6015,7.6015,7.5774,7.5572,7.5975,7.5875,7.5928,7.7241,7.8207,7.9056,7.997,8.0834,8.1427,8.1478,8.1504,8.1504,8.1504,8.1528,8.1553,8.16,8.16,8.1624,8.1691,8.1243,8.0932,8.1015,8.0609,8.0319,8.0379,8.0379,8.0223,7.9911,7.9872,7.9717,7.9328,7.9756,8.0183,8.0572,8.1077,8.1504,8.1892,8.1892,8.1892,8.1892,8.1892,8.1892,8.1892,8.1892,8.1892,5.4498,5.6216,5.7855,5.9378,6.09,6.2618,6.4765,6.5273,6.5546,6.66,6.6639,6.6951,6.8474,6.8903,6.9137,6.9372,6.9411,6.9645,7.027,7.0387,7.0621,7.1245,7.1324,7.1318,7.1267,7.072,7.0636,7.1238,7.0676,7.058,7.1204,7.1175,7.0892,7.0307,7.0279,7.0259,7.0277,7.0536,7.098,7.1663,7.1864,7.1982,7.1987,7.1936,7.2489,7.3481,7.3432,7.3503,7.3643,7.4186,7.4679,7.5098,7.5567,7.587,7.6072,7.6015,7.6015,7.6015,7.6015,7.6015,7.6015,7.6015,7.6015,7.6015,7.6015,7.6015,7.6015,7.6062,7.609,7.6272,7.7035,7.7935,7.8861,7.9674,8.0628,8.1374,8.1478,8.1504,8.1504,8.1504,8.1504,8.1426,8.1267,8.118,8.1141,8.1004,8.04,8.0013,8.008,7.9498,7.9132,7.9155,7.9155,7.9097,7.8961,7.8922,7.8844,7.8668,7.9445,8.0028,8.0261,8.1116,8.1659,8.1892,8.1892,8.1892,8.1892,8.1892,8.1892,8.1892,8.1892,8.2009,5.36,5.5357,5.6879,5.7738,6.0432,6.3164,6.414,6.4375,6.4843,6.6444,6.617,6.5936,6.6795,6.7615,6.8435,6.9255,6.9411,6.9411,6.945,6.945,6.9489,6.9528,6.9528,6.9528,6.9528,6.9489,6.9483,6.9543,6.9497,6.9451,6.9428,6.9449,6.9392,6.9353,6.9372,6.9372,6.9372,7.0172,7.0628,7.0684,7.1526,7.1937,7.1987,7.1993,7.2014,7.1992,7.1875,7.2188,7.2756,7.2803,7.3734,7.5196,7.5082,7.5491,7.6172,7.6072,7.6015,7.6015,7.6015,7.6015,7.6015,7.6015,7.6015,7.6015,7.6015,7.6015,7.6015,7.5976,7.6034,7.609,7.6156,7.74,7.8661,7.8902,8.0134,8.1234,8.1453,8.1504,8.1504,8.1504,8.1504,8.1233,8.042,8.0266,7.9995,7.9221,7.9105,7.9091,7.916,7.9122,7.9106,7.9093,7.9093,7.8804,7.805,7.7972,7.7642,7.6881,7.7658,7.8513,7.9328,8.0183,8.1077,8.1892,8.1892,8.1892,8.1892,8.1892,8.1892,8.1892,8.1892,8.232,5.3132,5.4849,5.6684,5.6957,5.8792,6.0744,6.1603,6.3086,6.4453,6.5077,6.5429,6.5858,6.6639,6.7068,6.7381,6.7693,6.7732,6.7927,6.8474,6.8552,6.8786,6.9333,6.9411,6.9411,6.9411,6.8903,6.8786,6.9366,6.8886,6.8795,6.9334,6.9319,6.9021,6.8466,6.8514,6.8514,6.8522,6.9341,7.0052,7.0606,7.0926,7.1363,7.1955,7.193,7.1903,7.188,7.1908,7.1988,7.221,7.2656,7.3202,7.3754,7.42,7.4808,7.5415,7.5401,7.5628,7.6015,7.6015,7.6015,7.6015,7.6015,7.6015,7.6015,7.6015,7.6015,7.6015,7.6015,7.6044,7.6188,7.6755,7.7757,7.8844,8.0078,8.0867,8.1347,8.1427,8.1478,8.1504,8.1504,8.1504,8.1233,8.0343,8.0188,7.9918,7.9105,7.8525,7.8177,7.8201,7.7721,7.7395,7.744,7.744,7.7306,7.7098,7.7564,7.7778,7.7486,7.8844,7.9795,8.0105,8.096,8.1582,8.1892,8.1892,8.1892,8.1892,8.1892,8.2164,8.2669,8.2669,8.3136,5.2858,5.4381,5.6294,5.6879,5.7855,5.9065,6.051,6.172,6.2891,6.4062,6.4531,6.5077,6.617,6.6405,6.6483,6.6756,6.6795,6.699,6.7576,6.7654,6.7888,6.8474,6.8513,6.8513,6.8513,6.8005,6.7888,6.8474,6.7994,6.791,6.8496,6.8483,6.818,6.7569,6.7625,6.7625,6.7625,6.8436,6.9146,6.974,7.0325,7.091,7.1464,7.1753,7.1916,7.1916,7.1969,7.1967,7.1953,7.2408,7.2744,7.3041,7.3464,7.4272,7.515,7.5139,7.5559,7.6204,7.6195,7.6171,7.621,7.6199,7.6199,7.6199,7.6199,7.616,7.6106,7.6106,7.609,7.6188,7.6794,7.7757,7.8998,8.0731,8.1263,8.14,8.1374,8.1427,8.1504,8.1504,8.1271,8.0807,7.9956,7.9569,7.9067,7.8254,7.7635,7.7248,7.7248,7.6746,7.6421,7.6444,7.6466,7.6604,7.6958,7.7542,7.799,7.8282,7.9718,8.067,8.0942,8.1796,8.2281,8.2262,8.2262,8.2145,8.1892,8.1892,8.232,8.3097,8.3097,8.3718,0.0,0.0,0.0,5.7309,5.7699,5.8363,6.0939,6.0237,6.0041,6.3477,6.3516,6.3516,6.5273,6.5585,6.5819,6.6639,6.6756,6.6717,6.6717,6.6717,6.6756,6.6756,6.6756,6.6756,6.6795,6.6795,6.6795,6.6795,6.6795,6.6795,6.6795,6.6784,6.6759,6.6711,6.6711,6.6702,6.6712,6.753,6.7969,6.8037,6.9713,7.0541,7.0606,7.1464,7.1854,7.1854,7.1893,7.1955,7.1987,7.1942,7.2381,7.3124,7.2969,7.3938,7.5395,7.5307,7.583,7.6559,7.6572,7.6582,7.6606,7.6605,7.6609,7.6609,7.6609,7.6477,7.6305,7.6389,7.6287,7.6118,7.6195,7.7428,7.9057,8.07,8.1234,8.1374,8.1291,8.14,8.1504,8.1465,8.0769,7.9956,7.9105,7.8254,7.7403,7.6514,7.6397,7.6397,7.6397,7.6397,7.6397,7.6397,7.6397,7.6769,7.7705,7.7844,7.8215,7.9111,7.9985,8.0877,8.173,8.2583,8.3031,8.3056,8.3056,8.2688,8.197,8.1931,8.2359,8.3136,8.3174,8.4107,5.2858,0.0,0.0,0.0,0.0,0.0,5.6762,5.7621,5.8792,6.1017,6.1798,6.2774,6.5155,6.5077,6.4921,6.578,6.539,6.4999,6.4999,6.4999,6.5234,6.5858,6.5936,6.617,6.6756,6.6795,6.6795,6.6795,6.6795,6.6795,6.6795,6.6784,6.6805,6.6759,6.6783,6.6767,6.6702,6.6936,6.7394,6.8008,6.8476,6.906,6.9704,7.0571,7.097,7.097,7.1612,7.1901,7.1909,7.1903,7.2076,7.2326,7.2226,7.2801,7.3749,7.4297,7.4977,7.5741,7.6391,7.6586,7.6621,7.6591,7.6582,7.6609,7.6609,7.6573,7.6536,7.6555,7.6517,7.6708,7.778,7.8851,7.9918,8.0885,8.1184,8.1234,8.1291,8.1374,8.1234,8.0666,8.0382,7.9724,7.8293,7.7867,7.7403,7.6514,7.6397,7.6397,7.6397,7.6397,7.6397,7.6397,7.6397,7.6746,7.7659,7.8363,7.9354,8.081,8.1785,8.266,8.3474,8.3746,8.3862,8.3884,8.3884,8.3768,8.3557,8.3019,8.3213,8.4068,8.5311,8.6166,0.0,0.0,5.5357,5.5552,0.0,0.0,5.5552,5.5747,5.6177,5.7894,5.8987,6.0237,6.2462,6.2774,6.2852,6.336,6.3008,6.3047,6.414,6.4297,6.4492,6.4999,6.5077,6.5234,6.5702,6.5741,6.5897,6.6288,6.6288,6.6444,6.6795,6.679,6.6817,6.6811,6.6805,6.6783,6.6711,6.6711,6.6927,6.7452,6.7842,6.8271,6.8816,7.0045,7.06,7.0639,7.1507,7.1867,7.1915,7.1893,7.1909,7.193,7.1924,7.2374,7.3163,7.4022,7.4832,7.5633,7.6521,7.6816,7.6802,7.6817,7.6819,7.6816,7.6816,7.6521,7.6256,7.6621,7.6692,7.6998,7.8533,7.9305,7.9935,8.0972,8.128,8.1308,8.1291,8.1347,8.1156,8.0357,7.9918,7.926,7.7945,7.7403,7.6978,7.6475,7.6397,7.6397,7.6397,7.6397,7.6397,7.6397,7.6397,7.69,7.8138,7.8766,7.9927,8.1964,8.2607,8.3444,8.4582,8.466,8.4684,8.4708,8.4708,8.4731,8.4754,8.3967,8.4008,8.4901,8.632,8.6941,0.0,0.0,0.0,5.7153,5.5942,0.0,5.6138,5.481,5.3717,5.524,5.6177,5.727,5.9065,6.0002,6.0588,6.0666,6.0705,6.1486,6.3711,6.4023,6.4062,6.414,6.414,6.4179,6.4297,6.4297,6.4609,6.539,6.5468,6.578,6.6483,6.6522,6.6556,6.6661,6.6661,6.6681,6.672,6.672,6.6702,6.6712,6.7491,6.7842,6.792,6.9557,7.0375,7.0492,7.131,7.1749,7.1897,7.1897,7.1906,7.1893,7.1916,7.2353,7.3172,7.4044,7.4909,7.5774,7.6657,7.7016,7.7058,7.699,7.6952,7.6944,7.6827,7.6191,7.5629,7.643,7.6624,7.6957,7.852,7.9031,7.9504,8.0942,8.1407,8.1499,8.14,8.14,8.1221,8.0357,7.9569,7.868,7.7713,7.69,7.6397,7.6397,7.6397,7.6397,7.6397,7.6397,7.6397,7.6397,7.6397,7.7094,7.8834,7.8989,8.0111,8.278,8.2935,8.3708,8.5372,8.5449,8.5475,8.5526,8.5526,8.5551,8.5623,8.4754,8.4793,8.5646,8.6505,8.6899,0.0,0.0,0.0,5.5864,5.6411,0.0,5.5786,5.6216,5.6918,5.7231,5.7465,5.8324,6.0744,6.133,6.1681,6.2384,6.2501,6.2423,6.2228,6.2228,6.2462,6.3164,6.3243,6.3516,6.4219,6.4297,6.4375,6.4531,6.4531,6.4609,6.4765,6.4804,6.5116,6.5814,6.5814,6.616,6.6766,6.6766,6.6744,6.6702,6.6858,6.6966,6.6985,6.8037,6.8894,6.9596,7.0453,7.1193,7.1827,7.1827,7.1858,7.1893,7.1893,7.2018,7.2253,7.3111,7.4016,7.4874,7.5741,7.6464,7.6917,7.6267,7.6048,7.5937,7.5228,7.4865,7.4731,7.4909,7.5436,7.6193,7.7026,7.8287,7.9569,8.0398,8.1136,8.1659,8.1691,8.173,8.1453,8.0536,7.9647,7.8486,7.69,7.6514,7.6397,7.6397,7.6397,7.6397,7.6397,7.6397,7.6397,7.6397,7.6397,7.7094,7.8834,7.8989,8.0382,8.3631,8.3863,8.4598,8.63,8.6339,8.6339,8.6365,8.6365,8.6365,8.6365,8.5638,8.5684,8.6537,8.6731,8.6832,5.5645,5.6134,5.6452,5.6523,5.6567,0.0,0.0,5.5279,5.5396,5.5825,5.5903,5.6567,5.8753,5.9143,5.9573,6.0861,6.0354,6.0237,6.1525,6.172,6.1876,6.2306,6.2345,6.254,6.2969,6.3008,6.3164,6.3633,6.4062,6.4297,6.4297,6.4297,6.4492,6.4921,6.496,6.5346,6.6148,6.6148,6.6323,6.6711,6.6711,6.6693,6.6751,6.7608,6.8465,6.9362,7.0219,7.1076,7.1817,7.1817,7.1838,7.1858,7.1867,7.1915,7.1993,7.2869,7.3493,7.4039,7.5365,7.6045,7.634,7.5924,7.5794,7.5655,7.4765,7.4489,7.4439,7.4023,7.4525,7.5417,7.6622,7.794,7.9198,8.027,8.1213,8.1843,8.1833,8.1796,8.1424,8.0101,7.9447,7.868,7.7287,7.6668,7.6397,7.6397,7.6397,7.6397,7.6397,7.6397,7.6397,7.6397,7.6397,7.6939,7.8254,7.8757,8.0266,8.3244,8.3863,8.483,8.6532,8.661,8.661,8.661,8.661,8.661,8.661,8.6223,8.6286,8.6713,8.6737,8.6761,5.7069,5.7362,5.7585,5.7941,5.7372,5.6514,0.0,0.0,0.0,5.442,5.4498,5.4966,5.6528,5.684,5.727,5.8636,5.8011,5.8246,6.0822,6.133,6.1564,6.1915,6.1369,6.1213,6.1876,6.1798,6.1993,6.2696,6.3399,6.3789,6.3789,6.3789,6.3867,6.4023,6.4062,6.4448,6.5256,6.5451,6.5822,6.6486,6.6642,6.6702,6.6722,6.7413,6.831,6.9323,7.0024,7.0881,7.1817,7.1817,7.1817,7.1817,7.1838,7.1887,7.1975,7.2656,7.3055,7.3406,7.4966,7.5629,7.5746,7.5577,7.5293,7.4935,7.4201,7.3983,7.3858,7.3217,7.3637,7.4569,7.6008,7.7257,7.8494,7.9939,8.1048,8.1805,8.1881,8.1904,8.1502,8.0085,7.952,7.8912,7.7674,7.6862,7.6397,7.6397,7.6397,7.6397,7.6397,7.6397,7.6397,7.6397,7.6397,7.6746,7.7635,7.8332,7.9918,8.2625,8.3438,8.4675,8.6532,8.661,8.661,8.661,8.661,8.661,8.661,8.661,8.661,8.661,8.6662,8.6687,5.9978,6.1225,6.1305,5.928,6.0321,6.0893,5.7294,0.0,5.7972,5.6606,0.0,5.6567,5.7504,0.0,0.0,5.7933,5.9065,5.9846,5.9456,6.0041,6.1134,6.2657,6.0119,5.9456,6.254,6.2149,6.1759,6.1837,6.1954,6.1993,6.1993,6.1993,6.2345,6.3125,6.3164,6.3555,6.4414,6.5194,6.5613,6.5634,6.644,6.6767,6.6702,6.68,6.7725,6.9323,6.9401,7.0336,7.1817,7.1817,7.1817,7.1817,7.1817,7.1827,7.1827,7.1905,7.2451,7.323,7.4205,7.5062,7.5569,7.4821,7.3548,7.2305,7.2241,7.2218,7.2187,7.2067,7.2726,7.3498,7.3671,7.5462,7.7492,7.8461,7.9899,8.1304,8.2078,8.2226,8.2153,8.1827,8.0591,7.895,7.7055,7.6552,7.6397,7.6397,7.6397,7.6397,7.6397,7.6397,7.6397,7.6397,7.6397,7.6746,7.7635,7.779,7.926,8.2587,8.2896,8.4057,8.6494,8.661,8.661,8.661,8.661,8.661,8.661,8.661,8.661,8.661,8.661,8.661,6.0768,6.0976,6.0638,5.975,5.9593,5.9199,5.7549,0.0,5.7427,5.7304,0.0,0.0,0.0,0.0,0.0,0.0,5.7582,5.766,5.8246,5.6957,5.7504,6.1759,6.051,5.9885,6.1369,6.1174,6.0744,6.0237,6.1134,6.1486,6.0978,6.1447,6.1876,6.2228,6.2267,6.2657,6.3555,6.4414,6.5072,6.5523,6.6375,6.6791,6.6767,6.6702,6.7394,6.8564,6.8554,6.9518,7.1115,7.1115,7.1388,7.1817,7.1817,7.1817,7.1817,7.1817,7.2011,7.2557,7.3921,7.4311,7.4127,7.3817,7.2877,7.1903,7.1967,7.1942,7.1949,7.1953,7.2222,7.2642,7.3182,7.4457,7.6086,7.796,7.9366,8.0615,8.1981,8.2293,8.2131,8.1555,8.0436,7.9182,7.7805,7.6978,7.6475,7.6397,7.6397,7.6397,7.6397,7.6397,7.6397,7.6397,7.6397,7.6552,7.69,7.7867,7.9492,8.189,8.3902,8.5488,8.6571,8.661,8.661,8.661,8.661,8.661,8.661,8.661,8.661,8.661,8.661,8.661,6.146,6.1348,6.0906,6.0406,5.9328,5.8168,5.737,0.0,0.0,5.7629,5.7674,0.0,0.0,0.0,5.7348,5.7465,0.0,5.6606,5.7348,5.5318,5.5552,6.0393,6.0861,6.0666,6.0432,6.0393,6.0041,5.9183,6.0041,6.0354,5.9729,6.051,6.1095,6.133,6.1564,6.1993,6.2657,6.3516,6.437,6.5178,6.6031,6.6571,6.6791,6.6728,6.7188,6.8046,6.8028,6.9031,7.058,7.058,7.1087,7.1817,7.1817,7.1817,7.1817,7.1817,7.1817,7.2011,7.3531,7.3648,7.3114,7.3193,7.2596,7.1916,7.1953,7.1967,7.1975,7.1986,7.1953,7.2108,7.273,7.354,7.4813,7.7425,7.8708,7.9873,8.1864,8.2293,8.2026,8.1156,8.027,7.9356,7.8435,7.7387,7.663,7.6514,7.6475,7.6436,7.6436,7.6397,7.6397,7.6397,7.6397,7.6397,7.6397,7.779,7.9569,8.1736,8.483,8.661,8.661,8.661,8.661,8.661,8.661,8.661,8.661,8.661,8.661,8.661,8.661,8.661,6.2781,0.0,6.3892,6.1543,0.0,0.0,0.0,0.0,5.8428,5.7731,5.8918,5.9871,5.9173,5.9026,0.0,0.0,5.7933,0.0,0.0,5.6528,5.7153,5.8987,6.0666,6.133,6.0471,6.0393,6.0041,5.9183,5.8363,5.7894,5.7894,5.8714,5.9573,6.0432,6.1252,6.172,6.1759,6.2618,6.3477,6.4336,6.5178,6.5992,6.6811,6.6791,6.729,6.8109,6.8109,6.9068,7.06,7.06,7.1058,7.1817,7.1817,7.1817,7.1817,7.1817,7.1817,7.1934,7.283,7.3103,7.3114,7.3173,7.2599,7.1906,7.1885,7.1909,7.1891,7.1909,7.188,7.1897,7.1949,7.2578,7.3902,7.6512,7.7825,7.9131,8.1747,8.2293,8.2026,8.1156,8.027,7.9414,7.8476,7.7456,7.6808,7.6808,7.6668,7.6591,7.6591,7.6475,7.6397,7.6397,7.6397,7.6397,7.6397,7.721,7.9183,8.2548,8.5178,8.661,8.661,8.661,8.661,8.661,8.661,8.661,8.661,8.661,8.661,8.661,8.661,8.661,0.0,0.0,6.2737,6.194,0.0,0.0,0.0,0.0,5.9149,5.8454,6.0151,6.1473,6.0628,6.0117,5.9459,0.0,5.8181,5.766,0.0,5.5747,5.5942,5.6528,5.8089,5.8987,5.8714,5.8207,5.7504,5.6645,5.6294,5.6138,5.6138,5.8011,5.9222,5.9534,6.0939,6.172,6.172,6.2579,6.3438,6.4297,6.515,6.6009,6.679,6.6811,6.6961,6.7234,6.7259,6.7907,6.899,6.9506,7.0238,7.1048,7.1633,7.1858,7.1838,7.1827,7.1817,7.1856,7.2128,7.2635,7.3036,7.2511,7.214,7.1885,7.1909,7.193,7.1982,7.1987,7.1919,7.1893,7.1942,7.2575,7.3867,7.6475,7.7755,7.9113,8.1753,8.2293,8.202,8.1173,8.0305,7.9414,7.8594,7.7669,7.6985,7.684,7.677,7.6687,7.6598,7.6552,7.6475,7.6397,7.6397,7.6397,7.6397,7.8757,8.1426,8.4289,8.5797,8.661,8.661,8.661,8.661,8.661,8.661,8.661,8.661,8.661,8.661,8.661,8.661,8.661,6.2596,6.232,0.0,6.1736,6.0381,0.0,5.8528,0.0,6.0442,6.004,6.1779,6.3253,6.3045,6.194,6.0767,5.9903,5.8882,5.7518,0.0,5.5044,5.4966,5.524,5.6762,5.7699,5.7387,5.6918,5.6255,5.5357,5.4732,5.4654,5.5279,5.6879,5.8011,5.8636,6.0315,6.1408,6.172,6.2267,6.3125,6.4297,6.4882,6.5702,6.6795,6.6784,6.6784,6.6778,6.6811,6.7305,6.8156,6.8975,6.9834,7.0684,7.1542,7.1885,7.1906,7.1838,7.1827,7.1817,7.1817,7.2167,7.2557,7.2033,7.1867,7.1893,7.1909,7.193,7.1982,7.1969,7.1937,7.1903,7.1948,7.2592,7.378,7.6094,7.7303,7.8587,8.0879,8.1612,8.1485,8.0302,7.9867,7.9335,7.8242,7.7578,7.7144,7.6965,7.6911,7.6855,7.6759,7.6707,7.663,7.6475,7.6475,7.6823,7.7674,8.0343,8.2935,8.5178,8.6107,8.661,8.661,8.661,8.661,8.661,8.661,8.661,8.661,8.661,8.661,8.661,8.661,8.661]},{"header":{"parameterUnit":"m.s-1","parameterCategory":1,"la1":30.6,"la2":29.2853,"lo1":-89.7004,"lo2":-87.6739,"dy":0.0162,"dx":0.0183,"nx":112,"ny":82,"refTime":"2024-03-14T18:00:00:Z","depth":0,"parameterNumber":3,"parameterNumberName":"V-component_of_WINDS"},"data":[0.0,0.0,0.0,0.0,0.0,0.0,0.0,0.0,0.0,0.0,0.0,0.0,0.0,0.0,0.0,0.0,0.0,0.0,0.0,0.0,0.0,0.0,0.0,0.0,0.0,0.0,0.0,0.0,0.0,0.0,0.0,0.0,0.0,0.0,0.0,0.0,0.0,0.0,0.0,0.0,0.0,0.0,0.0,0.0,0.0,0.0,0.0,0.0,0.0,0.0,0.0,0.0,0.0,0.0,0.0,0.0,0.0,0.0,0.0,0.0,0.0,0.0,0.0,0.0,0.0,0.0,0.0,0.0,0.0,0.0,0.0,0.0,0.0,0.0,0.0,0.0,0.0,0.0,0.0,0.0,0.0,0.0,0.0,0.0,0.0,0.0,0.0,0.0,0.0,0.0,-1.1314,-1.2171,-1.1634,-1.0046,-0.7529,-0.7263,-0.6468,-0.486,0.0,0.0,0.0,0.0,0.0,0.0,0.0,0.0,0.0,0.0,0.0,0.0,0.0,0.0,0.0,0.0,0.0,0.0,0.0,0.0,0.0,0.0,0.0,0.0,0.0,0.0,0.0,0.0,0.0,0.0,0.0,0.0,0.0,0.0,0.0,0.0,0.0,0.0,0.0,0.0,0.0,0.0,0.0,0.0,0.0,0.0,0.0,0.0,0.0,0.0,0.0,0.0,0.0,0.0,0.0,0.0,0.0,0.0,0.0,0.0,0.0,0.0,0.0,0.0,0.0,0.0,0.0,0.0,0.0,0.0,0.0,0.0,0.0,0.0,0.0,0.0,0.0,0.0,0.0,0.0,0.0,0.0,0.0,0.0,0.0,0.0,0.0,0.0,0.0,0.0,0.0,0.0,0.0,0.0,0.0,0.0,0.0,0.0,0.0,0.0,0.0,0.0,0.0,0.0,-0.9609,-0.9537,-0.8902,-0.7763,-0.6007,-0.5834,-0.5448,-0.4839,0.0,0.0,0.0,0.0,0.0,0.0,0.0,0.0,0.0,0.0,0.0,0.0,0.0,0.0,0.0,0.0,0.0,0.0,0.0,0.0,0.0,0.0,0.0,0.0,0.0,0.0,0.0,0.0,0.0,0.0,0.0,0.0,0.0,0.0,0.0,0.0,0.0,0.0,0.0,0.0,0.0,0.0,0.0,0.0,0.0,0.0,0.0,0.0,0.0,0.0,0.0,0.0,0.0,0.0,0.0,0.0,0.0,0.0,0.0,0.0,0.0,0.0,0.0,0.0,0.0,0.0,0.0,0.0,0.0,0.0,0.0,0.0,0.0,0.0,0.0,0.0,0.0,0.0,0.0,0.0,0.0,0.0,0.0,0.0,0.0,0.0,0.0,0.0,0.0,0.0,0.0,0.0,0.0,0.0,0.0,0.0,0.0,0.0,0.0,0.0,0.0,0.0,0.0,-0.9902,-0.9754,-1.0055,-0.8753,-0.7522,-0.671,-0.5934,-0.5226,-0.4859,-0.4135,0.0,0.0,0.0,0.0,0.0,0.0,0.0,0.0,0.0,0.0,0.0,0.0,0.0,0.0,0.0,0.0,0.0,0.0,0.0,0.0,0.0,0.0,0.0,0.0,0.0,0.0,0.0,0.0,0.0,0.0,0.0,0.0,0.0,0.0,0.0,0.0,0.0,0.0,0.0,0.0,0.0,0.0,0.0,0.0,0.0,0.0,0.0,0.0,0.0,0.0,0.0,0.0,0.0,0.0,0.0,0.0,0.0,0.0,0.0,0.0,0.0,0.0,0.0,0.0,0.0,0.0,0.0,0.0,0.0,0.0,0.0,0.0,0.0,0.0,0.0,0.0,0.0,0.0,0.0,0.0,0.0,0.0,0.0,0.0,0.0,0.0,0.0,0.0,0.0,0.0,0.0,0.0,0.0,0.0,0.0,0.0,0.0,0.0,0.0,0.0,0.0,0.0,-1.0255,-1.0101,-1.0278,-0.8809,-0.7643,-0.7179,-0.6003,-0.5169,-0.4726,-0.3924,0.0,0.0,0.0,0.0,0.0,0.0,0.0,0.0,0.0,0.0,0.0,0.0,0.0,0.0,0.0,0.0,0.0,0.0,0.0,0.0,0.0,0.0,0.0,0.0,0.0,0.0,0.0,0.0,0.0,0.0,0.0,0.0,0.0,0.0,0.0,0.0,0.0,0.0,0.0,0.0,0.0,0.0,0.0,0.0,0.0,0.0,0.0,0.0,0.0,0.0,0.0,0.0,0.0,0.0,0.0,0.0,0.0,0.0,0.0,0.0,0.0,0.0,0.0,0.0,0.0,0.0,0.0,0.0,0.0,0.0,0.0,0.0,0.0,0.0,0.0,0.0,0.0,0.0,0.0,0.0,0.0,0.0,0.0,0.0,0.0,0.0,0.0,0.0,0.0,0.0,0.0,0.0,0.0,0.0,0.0,0.0,0.0,0.0,0.0,0.0,0.0,0.0,-0.9808,-0.9734,-0.7988,-0.7785,-0.7281,-0.5894,-0.5324,-0.4906,-0.4438,-0.3867,0.0,0.0,0.0,0.0,0.0,0.0,0.0,0.0,0.0,0.0,0.0,0.0,0.0,0.0,0.0,0.0,0.0,0.0,0.0,0.0,0.0,0.0,0.0,0.0,0.0,0.0,0.0,0.0,0.0,0.0,0.0,0.0,0.0,0.0,0.0,0.0,0.0,0.0,0.0,0.0,0.0,0.0,0.0,0.0,0.0,0.0,0.0,0.0,0.0,0.0,0.0,0.0,0.0,0.0,0.0,0.0,0.0,0.0,0.0,0.0,0.0,0.0,0.0,0.0,0.0,0.0,0.0,0.0,0.0,0.0,0.0,0.0,0.0,0.0,0.0,0.0,0.0,0.0,0.0,0.0,0.0,0.0,0.0,0.0,0.0,0.0,0.0,0.0,0.0,0.0,0.0,0.0,0.0,0.0,0.0,0.0,0.0,0.0,0.0,0.0,0.0,0.0,-0.8255,-0.8109,-0.8685,-0.7548,-0.6682,-0.6828,-0.5868,-0.5116,-0.4634,0.0,0.0,0.0,0.0,0.0,0.0,0.0,0.0,0.0,0.0,0.0,0.0,0.0,0.0,0.0,0.0,0.0,0.0,0.0,0.0,0.0,0.0,0.0,0.0,0.0,0.0,0.0,0.0,0.0,0.0,0.0,0.0,0.0,0.0,0.0,0.0,0.0,0.0,0.0,0.0,0.0,0.0,0.0,0.0,0.0,0.0,0.0,0.0,0.0,0.0,0.0,0.0,0.0,0.0,0.0,0.0,0.0,0.0,0.0,0.0,0.0,0.0,0.0,0.0,0.0,0.0,0.0,0.0,0.0,0.0,0.0,0.0,0.0,0.0,0.0,0.0,0.0,0.0,0.0,0.0,0.0,0.0,0.0,0.0,0.0,0.0,0.0,0.0,0.0,0.0,0.0,0.0,0.0,0.0,0.0,0.0,0.0,0.0,0.0,0.0,0.0,0.0,-0.8365,-0.7376,-0.7116,-0.8509,-0.6967,-0.6194,-0.7016,-0.5971,-0.5092,-0.4514,0.0,0.0,0.0,0.0,0.0,0.0,0.0,0.0,0.0,0.0,0.0,0.0,0.0,0.0,0.0,0.0,0.0,0.0,0.0,0.0,0.0,0.0,0.0,0.0,0.0,0.0,0.0,0.0,0.0,0.0,0.0,0.0,0.0,0.0,0.0,0.0,0.0,0.0,0.0,0.0,0.0,0.0,0.0,0.0,0.0,0.0,0.0,0.0,0.0,0.0,0.0,0.0,0.0,0.0,0.0,0.0,0.0,0.0,0.0,0.0,0.0,0.0,0.0,0.0,0.0,0.0,0.0,0.0,0.0,0.0,0.0,0.0,0.0,0.0,0.0,0.0,0.0,0.0,0.0,0.0,0.0,0.0,0.0,0.0,0.0,0.0,0.0,0.0,0.0,0.0,0.0,0.0,0.0,0.0,0.0,0.0,0.0,0.0,0.0,0.0,0.0,0.0,-0.7764,-0.7275,-0.6997,-0.6855,-0.6285,-0.5927,-0.5996,-0.5486,-0.4778,0.0,0.0,0.0,0.0,0.0,0.0,0.0,0.0,0.0,0.0,0.0,0.0,0.0,0.0,0.0,0.0,0.0,0.0,0.0,0.0,0.0,0.0,0.0,0.0,0.0,0.0,0.0,0.0,0.0,0.0,0.0,0.0,0.0,0.0,0.0,0.0,0.0,0.0,0.0,0.0,0.0,0.0,0.0,0.0,0.0,0.0,0.0,0.0,0.0,0.0,0.0,0.0,0.0,0.0,0.0,0.0,0.0,0.0,0.0,0.0,0.0,0.0,0.0,0.0,0.0,0.0,0.0,0.0,0.0,0.0,0.0,0.0,0.0,0.0,0.0,0.0,0.0,0.0,0.0,0.0,0.0,0.0,0.0,0.0,0.0,0.0,0.0,0.0,0.0,0.0,0.0,0.0,0.0,0.0,0.0,0.0,0.0,0.0,0.0,0.0,0.0,0.0,0.0,-0.768,-0.6855,-0.6431,-0.6855,-0.6775,-0.6561,-0.6439,-0.5976,-0.5357,-0.4715,0.0,0.0,0.0,0.0,0.0,0.0,0.0,0.0,0.0,0.0,0.0,0.0,0.0,0.0,0.0,0.0,0.0,0.0,0.0,0.0,0.0,0.0,0.0,0.0,0.0,0.0,0.0,0.0,0.0,0.0,0.0,0.0,0.0,0.0,0.0,0.0,0.0,0.0,0.0,0.0,0.0,0.0,0.0,0.0,0.0,0.0,0.0,0.0,0.0,0.0,0.0,0.0,0.0,0.0,0.0,0.0,0.0,0.0,0.0,0.0,0.0,0.0,0.0,0.0,0.0,0.0,0.0,0.0,0.0,0.0,0.0,0.0,0.0,0.0,0.0,0.0,0.0,0.0,0.0,0.0,0.0,0.0,0.0,0.0,0.0,0.0,0.0,0.0,0.0,0.0,0.0,0.0,0.0,0.0,0.0,0.0,0.0,0.0,0.0,0.0,0.0,0.0,-0.7778,-0.6861,-0.6431,-0.7215,-0.7021,-0.6798,-0.6541,-0.6139,-0.5514,-0.4702,0.0,0.0,0.0,0.0,0.0,0.0,0.0,0.0,0.0,0.0,0.0,0.0,0.0,0.0,0.0,0.0,0.0,0.0,0.0,0.0,0.0,0.0,0.0,0.0,0.0,0.0,0.0,0.0,0.0,0.0,0.0,0.0,0.0,0.0,0.0,0.0,0.0,0.0,0.0,0.0,0.0,0.0,0.0,0.0,0.0,0.0,0.0,0.0,0.0,0.0,0.0,0.0,0.0,0.0,0.0,0.0,0.0,0.0,0.0,0.0,0.0,0.0,0.0,0.0,0.0,0.0,0.0,0.0,0.0,0.0,0.0,0.0,0.0,0.0,0.0,0.0,0.0,0.0,0.0,0.0,0.0,0.0,0.0,0.0,0.0,0.0,0.0,0.0,0.0,0.0,0.0,0.0,0.0,0.0,0.0,0.0,0.0,0.0,0.0,0.0,0.0,0.0,-0.8077,-0.7192,-0.667,-0.7823,-0.7388,-0.6899,-0.6594,-0.6238,-0.5514,-0.4485,0.0,0.0,0.0,0.0,0.0,0.0,0.0,0.0,0.0,0.0,0.0,0.0,0.0,0.0,0.0,0.0,0.0,0.0,0.0,0.0,0.0,0.0,0.0,0.0,0.0,0.0,0.0,0.0,0.0,0.0,0.0,0.0,0.0,0.0,0.0,0.0,0.0,0.0,0.0,0.0,0.0,0.0,0.0,0.0,0.0,0.0,0.0,0.0,0.0,0.0,0.0,0.0,0.0,0.0,0.0,0.0,0.0,0.0,0.0,0.0,-0.6824,0.0,0.0,0.0,0.0,0.0,0.0,0.0,0.0,0.0,0.0,0.0,0.0,0.0,0.0,0.0,0.0,0.0,0.0,0.0,0.0,0.0,0.0,0.0,0.0,0.0,0.0,0.0,0.0,0.0,0.0,0.0,0.0,0.0,0.0,0.0,0.0,0.0,0.0,0.0,0.0,0.0,-0.8091,-0.726,-0.6869,-0.7828,-0.775,-0.7564,-0.7401,-0.6729,-0.6136,-0.5541,-0.4589,0.0,0.0,0.0,0.0,0.0,0.0,0.0,0.0,0.0,0.0,0.0,0.0,0.0,0.0,0.0,0.0,0.0,0.0,0.0,0.0,0.0,0.0,0.0,0.0,0.0,0.0,0.0,0.0,0.0,0.0,0.0,0.0,0.0,0.0,0.0,0.0,0.0,0.0,0.0,0.0,0.0,0.0,0.0,0.0,0.0,0.0,0.0,0.0,0.0,0.0,0.0,0.0,0.0,0.0,0.0,0.0,0.0,0.0,0.0,0.0,-0.6997,0.0,0.0,0.0,0.0,0.0,0.0,0.0,0.0,0.0,0.0,0.0,0.0,0.0,0.0,0.0,0.0,0.0,0.0,0.0,0.0,0.0,0.0,0.0,0.0,0.0,0.0,0.0,0.0,0.0,0.0,0.0,0.0,0.0,0.0,0.0,0.0,0.0,0.0,0.0,0.0,-0.7608,-0.7214,-0.7122,-0.7834,-0.7872,-0.7823,-0.7589,-0.6894,-0.6241,-0.5714,-0.4827,0.0,0.0,0.0,0.0,0.0,0.0,0.0,0.0,0.0,0.0,0.0,0.0,0.0,0.0,0.0,0.0,0.0,0.0,0.0,0.0,0.0,0.0,0.0,0.0,0.0,0.0,0.0,0.0,0.0,0.0,0.0,0.0,0.0,0.0,0.0,0.0,0.0,0.0,0.0,0.0,0.0,0.0,0.0,0.0,0.0,0.0,0.0,0.0,0.0,0.0,0.0,0.0,0.0,-0.7747,-0.7834,-0.7899,-0.7883,-0.7926,-0.7986,-0.729,-0.7154,-0.7404,-0.7111,0.0,0.0,0.0,0.0,0.0,0.0,0.0,0.0,0.0,0.0,0.0,0.0,0.0,0.0,0.0,0.0,0.0,0.0,0.0,0.0,0.0,0.0,0.0,0.0,-0.7127,-0.6756,-0.6238,0.0,0.0,0.0,0.0,0.0,0.0,0.0,0.0,0.0,0.0,0.0,-0.725,-0.7177,-0.738,-0.7712,-0.7872,-0.7712,-0.7255,-0.6823,-0.6351,-0.5728,-0.498,-0.4426,0.0,0.0,0.0,0.0,0.0,0.0,0.0,0.0,0.0,0.0,0.0,0.0,0.0,0.0,0.0,0.0,0.0,0.0,0.0,0.0,0.0,0.0,0.0,0.0,0.0,0.0,0.0,0.0,0.0,0.0,0.0,0.0,-0.6671,-0.6812,0.0,0.0,0.0,0.0,0.0,0.0,0.0,0.0,0.0,0.0,0.0,0.0,0.0,-0.7845,-0.7932,-0.816,-0.8231,-0.8138,-0.8155,-0.8117,-0.8024,-0.7921,-0.7877,-0.7888,-0.778,0.0,-0.7796,-0.7752,0.0,0.0,0.0,0.0,0.0,0.0,0.0,0.0,0.0,0.0,0.0,0.0,0.0,0.0,0.0,0.0,0.0,0.0,0.0,0.0,0.0,0.0,-0.7161,-0.6984,-0.7051,-0.6959,0.0,-0.6345,-0.6647,-0.652,-0.6132,0.0,0.0,0.0,0.0,0.0,0.0,0.0,-0.7504,-0.7081,-0.6882,-0.7362,-0.751,-0.7383,-0.7001,-0.689,-0.6485,-0.5925,-0.5397,-0.4863,-0.4516,-0.4157,0.0,0.0,0.0,0.0,0.0,0.0,0.0,0.0,0.0,0.0,0.0,0.0,0.0,0.0,0.0,0.0,0.0,0.0,0.0,0.0,0.0,0.0,0.0,0.0,0.0,0.0,0.0,0.0,0.0,-0.6828,-0.704,-0.7095,-0.7252,-0.7339,0.0,0.0,0.0,0.0,0.0,0.0,0.0,0.0,0.0,-0.7818,-0.7986,-0.81,-0.8155,-0.8329,-0.8421,-0.8432,-0.8503,-0.8546,-0.8557,-0.8432,-0.8378,-0.8372,-0.8301,-0.8236,-0.8155,-0.7888,-0.772,-0.7622,0.0,0.0,0.0,0.0,-0.7421,-0.7377,-0.7513,-0.7513,-0.7448,-0.7361,0.0,0.0,0.0,0.0,0.0,0.0,0.0,-0.7153,0.0,0.0,-0.7211,-0.7054,-0.7124,-0.6987,-0.6537,-0.6489,-0.6508,0.0,-0.6554,-0.6605,-0.5657,-0.6153,0.0,0.0,0.0,-0.6634,-0.6706,-0.6675,-0.6731,-0.7128,-0.7266,-0.7266,-0.6898,-0.6803,-0.6584,-0.6255,-0.5584,-0.5112,-0.4957,-0.4504,-0.414,0.0,0.0,0.0,0.0,0.0,0.0,0.0,0.0,0.0,0.0,0.0,0.0,0.0,0.0,0.0,0.0,0.0,0.0,0.0,0.0,0.0,0.0,0.0,0.0,0.0,0.0,0.0,0.0,-0.7105,-0.7301,-0.7334,-0.7497,-0.7584,0.0,0.0,0.0,0.0,0.0,0.0,-0.7959,-0.8079,-0.816,-0.8193,-0.8307,-0.8388,-0.8416,-0.8508,-0.8595,-0.8682,-0.8774,-0.8861,-0.8948,-0.8889,-0.8845,-0.8812,-0.8753,-0.8644,-0.8475,-0.8057,-0.7915,-0.7948,-0.7769,-0.7703,-0.7714,-0.7801,-0.778,-0.7725,-0.7905,-0.7888,-0.7769,-0.7616,-0.7348,-0.7059,-0.6877,0.0,0.0,0.0,0.0,-0.7259,-0.7434,-0.7466,-0.7338,-0.7343,-0.729,-0.7118,-0.6915,-0.6985,-0.6761,0.0,-0.6519,-0.6838,-0.5733,-0.6244,0.0,-0.5151,-0.6075,-0.6599,-0.607,-0.6345,-0.6659,-0.6766,-0.7021,-0.7021,-0.6653,-0.6705,-0.6524,-0.6137,-0.5622,-0.5324,-0.5279,-0.4847,-0.4504,-0.4279,0.0,0.0,0.0,0.0,0.0,0.0,0.0,0.0,0.0,0.0,0.0,0.0,0.0,0.0,0.0,0.0,0.0,0.0,0.0,0.0,0.0,0.0,0.0,0.0,0.0,0.0,0.0,0.0,0.0,-0.7323,-0.7644,0.0,0.0,0.0,0.0,-0.7872,-0.8079,-0.8209,-0.8214,-0.8334,-0.8448,-0.8557,-0.8677,-0.8802,-0.8916,-0.8921,-0.8927,-0.8932,-0.8938,-0.8948,-0.8954,-0.9068,-0.9052,-0.8948,-0.9057,-0.897,-0.8736,-0.8486,-0.8318,-0.8214,-0.8204,-0.8198,-0.8198,-0.8204,-0.8204,-0.8204,-0.8214,-0.8138,-0.8051,-0.8155,-0.803,-0.7812,-0.7687,-0.7649,0.0,0.0,-0.7769,-0.7823,-0.772,-0.7774,-0.7823,-0.7709,-0.7769,-0.7728,-0.7001,-0.7993,-0.8377,0.0,-0.5923,-0.5674,-0.5755,0.0,-0.6321,-0.5829,-0.6578,-0.6953,-0.6512,-0.6309,-0.6292,-0.6394,-0.6403,-0.628,-0.6039,-0.628,-0.6237,-0.5906,-0.5684,-0.5549,-0.5382,-0.5181,-0.4908,-0.4557,-0.4193,0.0,0.0,0.0,0.0,0.0,0.0,0.0,0.0,0.0,0.0,0.0,0.0,0.0,0.0,0.0,0.0,0.0,0.0,0.0,0.0,0.0,0.0,0.0,0.0,0.0,0.0,0.0,0.0,-0.7676,-0.7932,0.0,-0.7986,-0.8095,-0.8214,-0.8323,-0.841,-0.853,-0.8687,-0.8736,-0.878,-0.8818,-0.8861,-0.8948,-0.9068,-0.9144,-0.9177,-0.9182,-0.9258,-0.9253,-0.9177,-0.915,-0.9111,-0.9073,-0.9117,-0.9041,-0.8889,-0.8883,-0.8671,-0.8345,-0.8263,-0.8236,-0.8236,-0.8236,-0.8236,-0.8236,-0.8236,-0.8209,-0.8138,-0.7954,-0.778,-0.7638,-0.7595,-0.7584,-0.7633,-0.7861,-0.7899,-0.7899,-0.8013,-0.8019,-0.7997,-0.8035,-0.7894,-0.7619,-0.7371,-0.7281,-0.7165,-0.6698,-0.7169,-0.7216,-0.5941,-0.6192,-0.6353,-0.5576,-0.5982,-0.6322,-0.6064,-0.6172,-0.6363,-0.6399,-0.6653,-0.653,-0.628,-0.6346,-0.6172,-0.5782,-0.559,-0.5471,-0.5463,-0.5177,-0.4961,-0.483,-0.4475,-0.4071,0.0,0.0,0.0,0.0,0.0,0.0,0.0,0.0,0.0,0.0,0.0,0.0,0.0,0.0,0.0,0.0,0.0,0.0,0.0,0.0,0.0,0.0,0.0,0.0,0.0,-0.7758,-0.7964,-0.8046,-0.8269,-0.8399,-0.8356,-0.8426,-0.8524,-0.8638,-0.8687,-0.878,-0.8943,-0.903,-0.9068,-0.9068,-0.915,-0.9231,-0.9313,-0.9389,-0.9427,-0.9427,-0.9508,-0.9508,-0.9427,-0.9389,-0.9351,-0.9313,-0.9313,-0.922,-0.9073,-0.9117,-0.8921,-0.8584,-0.8465,-0.8416,-0.841,-0.8367,-0.8378,-0.8416,-0.8416,-0.8416,-0.8372,-0.8089,-0.7921,-0.7823,-0.7823,-0.779,-0.7812,-0.8046,-0.8057,-0.803,-0.8193,-0.8176,-0.8133,-0.8214,-0.8049,-0.7728,-0.7436,-0.7122,-0.6813,-0.6908,-0.7443,-0.7541,-0.6366,-0.6556,-0.663,-0.5998,-0.6156,-0.6318,-0.6176,-0.6368,-0.653,-0.653,-0.6653,-0.6653,-0.653,-0.6315,-0.6137,-0.6017,-0.5643,-0.5406,-0.5463,-0.5149,-0.4957,-0.4924,-0.4545,-0.4185,-0.3854,0.0,0.0,0.0,0.0,0.0,0.0,0.0,0.0,0.0,0.0,0.0,0.0,0.0,0.0,0.0,0.0,0.0,0.0,0.0,0.0,0.0,0.0,0.0,-0.7877,-0.7992,-0.816,-0.8394,-0.8633,-0.8731,-0.8611,-0.8812,-0.8905,-0.8796,-0.8894,-0.8965,-0.8976,-0.9198,-0.9318,-0.9318,-0.9552,-0.9677,-0.9677,-0.9677,-0.9677,-0.9677,-0.9677,-0.9671,-0.9671,-0.978,-0.9775,-0.9671,-0.9671,-0.9536,-0.9302,-0.9193,-0.9079,-0.8948,-0.8823,-0.8774,-0.8758,-0.8638,-0.8666,-0.8764,-0.8764,-0.8764,-0.8747,-0.8622,-0.8508,-0.8421,-0.8421,-0.8339,-0.8247,-0.8247,-0.8247,-0.8247,-0.8247,-0.8247,-0.8247,-0.8247,-0.8247,-0.7959,-0.7335,-0.7441,-0.7536,-0.705,-0.6657,-0.6621,-0.712,-0.722,-0.722,-0.722,-0.722,0.0,-0.6888,-0.6903,-0.6903,-0.6903,-0.6653,-0.6526,-0.6898,-0.6194,-0.5893,-0.6248,-0.575,-0.5377,-0.5377,-0.5116,-0.4928,-0.4839,-0.4406,-0.4136,-0.4042,0.0,0.0,0.0,0.0,0.0,0.0,0.0,0.0,0.0,0.0,0.0,0.0,0.0,0.0,0.0,0.0,0.0,0.0,0.0,0.0,0.0,-0.7736,-0.7807,-0.7981,-0.8258,-0.8465,-0.853,-0.8753,-0.8889,-0.8856,-0.891,-0.9008,-0.9144,-0.9188,-0.9318,-0.9579,-0.9655,-0.9693,-0.9693,-0.9758,-0.9791,-0.9791,-0.9791,-0.9791,-0.9791,-0.9791,-0.9748,-0.9671,-0.9704,-0.9699,-0.9671,-0.9758,-0.9655,-0.9438,-0.9497,-0.94,-0.9188,-0.8981,-0.8899,-0.8889,-0.8764,-0.8682,-0.8638,-0.8638,-0.8638,-0.8617,-0.8503,-0.8497,-0.8524,-0.8443,-0.8454,-0.8492,-0.8492,-0.8492,-0.8492,-0.8492,-0.8492,-0.8492,-0.8492,-0.8492,-0.8459,-0.8081,-0.7925,-0.7868,-0.7796,-0.751,-0.7227,-0.7357,-0.7337,-0.722,-0.6977,-0.6977,-0.6987,-0.6898,-0.7143,-0.7266,-0.7266,-0.7143,-0.7021,-0.6903,-0.6372,-0.589,-0.5702,-0.5394,-0.5284,-0.5284,-0.5084,-0.4928,-0.4839,-0.4524,-0.4316,0.0,0.0,0.0,0.0,0.0,0.0,0.0,0.0,0.0,0.0,0.0,0.0,0.0,0.0,0.0,0.0,0.0,0.0,0.0,0.0,0.0,0.0,-0.7981,-0.8068,-0.8253,-0.8459,-0.8628,-0.8725,-0.891,-0.9068,-0.9166,-0.922,-0.9329,-0.9514,-0.9574,-0.9671,-0.9829,-0.9889,-0.9889,-0.984,-0.9889,-0.9938,-0.9992,-0.9992,-0.9992,-0.9992,-0.9992,-0.9927,-0.9818,-0.9818,-0.9818,-0.9818,-0.9829,-0.9758,-0.9633,-0.9661,-0.9584,0.0,0.0,0.0,0.0,0.0,-0.8878,-0.8823,-0.8872,-0.8856,-0.8807,-0.8742,-0.8693,-0.8649,-0.8584,-0.8573,-0.859,-0.859,-0.859,-0.859,-0.859,-0.859,-0.859,-0.859,-0.859,-0.8557,-0.8306,-0.8018,-0.7977,-0.7975,-0.7821,0.0,-0.7865,-0.7728,-0.7505,-0.7388,-0.7266,-0.7266,-0.7266,-0.7505,-0.7627,-0.7627,-0.7505,-0.7388,-0.7266,-0.6626,0.0,0.0,0.0,-0.5235,-0.5079,-0.4969,0.0,0.0,0.0,-0.4671,-0.4696,-0.4577,0.0,0.0,-0.421,-0.4316,0.0,0.0,0.0,0.0,0.0,0.0,0.0,0.0,0.0,0.0,0.0,0.0,0.0,0.0,0.0,0.0,-0.8285,-0.8465,-0.859,-0.8633,-0.8731,-0.8948,-0.9106,-0.9275,-0.9487,-0.9628,-0.9758,-0.9867,-0.9965,-0.9987,-0.9905,-1.0003,0.0,0.0,0.0,-1.0128,-1.0221,-1.0226,-1.0226,-1.0226,-1.0226,-1.0166,-1.0063,-1.0047,-1.0041,-1.0036,-0.9927,-0.9862,-0.9829,-0.9748,-0.9688,-0.9617,-0.9296,-0.916,-0.9133,-0.9133,-0.9128,-0.9128,-0.9231,0.0,0.0,-0.9111,-0.8976,-0.8807,-0.8796,-0.8725,-0.8644,-0.8633,-0.8628,-0.8628,-0.8611,-0.8606,-0.8606,-0.859,-0.86,-0.844,-0.806,-0.8044,-0.8049,-0.8024,-0.8018,-0.8013,-0.8269,-0.8138,-0.7926,-0.7915,-0.7899,-0.7894,-0.7894,-0.7877,-0.7872,-0.7872,0.0,0.0,-0.7872,-0.6914,-0.6451,-0.6589,-0.5829,-0.5247,-0.4912,-0.4904,-0.4908,-0.4896,-0.4977,-0.5096,-0.5259,-0.5341,-0.5341,-0.5243,-0.4606,-0.4475,0.0,0.0,0.0,0.0,0.0,0.0,0.0,0.0,0.0,0.0,0.0,0.0,0.0,0.0,0.0,-0.8416,-0.8448,-0.8492,-0.8704,-0.8905,-0.9046,-0.9095,-0.9378,-0.9584,-0.9628,-0.9829,-1.0003,-1.0123,-1.0063,-1.0095,-1.0269,-1.0302,-1.0302,-1.028,-1.0394,-1.0416,-1.0351,-1.0351,-1.0351,-1.0351,-1.0351,0.0,-1.0313,-1.0215,-1.0166,-1.0166,-1.0144,-1.0019,-0.9845,-0.9921,-0.9634,-0.9076,-0.9302,-0.9302,-0.9133,-0.9133,-0.9073,-0.8992,-0.9014,-0.9003,-0.8986,-0.8986,-0.9024,-0.9046,-0.8948,-0.897,0.0,-0.891,-0.8883,-0.8861,-0.8758,-0.8736,-0.8709,-0.8611,-0.8666,-0.8698,-0.8446,-0.8499,-0.851,-0.8322,-0.8285,-0.8253,-0.8285,-0.8296,-0.828,-0.8176,-0.8084,-0.8019,-0.8019,-0.7932,-0.7872,-0.7872,-0.7872,-0.775,-0.7505,-0.7281,-0.6812,-0.6242,-0.5775,-0.5418,-0.5284,-0.5341,-0.5345,-0.5275,-0.5292,-0.532,-0.5357,-0.5373,-0.5373,-0.5353,-0.5214,-0.5145,0.0,0.0,0.0,0.0,0.0,0.0,0.0,0.0,0.0,0.0,0.0,-0.7766,-0.806,0.0,-0.8403,-0.8633,-0.8638,-0.8677,-0.8921,-0.916,-0.9313,-0.9313,-0.9525,-0.9742,-0.9921,-1.0041,-1.0188,-1.0367,-1.0378,-1.0433,-1.0552,-1.0617,-1.0623,-1.0563,-1.0617,-1.065,-1.0655,-1.0655,-1.0623,-1.0563,-1.0563,-1.0498,-1.0384,-1.0324,-1.0297,-1.0297,-1.0297,-1.0188,-1.0019,-1.0019,-0.9725,-0.9366,-0.9511,-0.9187,-0.8647,-0.8791,-0.8897,-0.8844,-0.8986,-0.909,-0.9041,-0.9041,-0.9041,-0.903,-0.897,-0.8992,-0.903,-0.897,-0.8954,-0.8938,-0.8878,-0.8861,-0.8829,-0.8709,-0.8725,-0.8736,-0.8611,-0.8633,-0.866,-0.8606,-0.8595,-0.8573,-0.8513,-0.8552,-0.8513,-0.8274,-0.8182,-0.8144,-0.8144,-0.8089,-0.803,-0.797,-0.7964,-0.7937,-0.7633,-0.7281,-0.6717,-0.5954,-0.5743,-0.5537,-0.5447,-0.5484,-0.5488,-0.5447,-0.5488,-0.5537,-0.5582,-0.5671,-0.5716,-0.572,-0.5761,-0.5684,0.0,0.0,0.0,0.0,0.0,0.0,0.0,-0.3303,-0.6712,-0.7709,-0.7883,-0.7592,-0.7398,-0.7772,-0.8302,-0.8796,-0.8834,-0.8916,-0.9139,-0.9372,-0.9546,-0.9617,-0.9737,-0.9911,-1.0177,-1.0264,-1.0384,-1.0574,-1.0683,-1.0748,-1.077,-1.0867,-1.0873,-1.0775,-1.0797,-1.0857,-1.0954,-1.0954,-1.0905,-1.0808,-1.078,-1.0672,-1.0487,-1.0443,-1.0416,-1.0416,-1.0394,-1.0329,-1.0067,-1.0106,-0.9816,-0.9534,-0.9687,-0.905,-0.8212,-0.8649,-0.8941,-0.8936,-0.92,-0.9136,-0.9198,-0.9034,-0.8959,-0.9014,-0.8992,-0.8986,-0.8981,-0.8959,-0.8954,-0.8954,-0.8954,-0.8954,-0.8927,-0.8829,-0.8807,-0.878,-0.8682,-0.8638,-0.8649,-0.8753,-0.8753,-0.8736,-0.8736,-0.8736,-0.8638,-0.8345,-0.8285,-0.8269,-0.8269,-0.8247,-0.8198,-0.81,-0.8089,-0.8051,-0.7825,-0.7245,-0.6589,-0.5981,-0.579,-0.5716,-0.5643,-0.5639,-0.5639,-0.5639,-0.5708,-0.5786,-0.5859,-0.6006,-0.6076,-0.608,-0.6186,-0.61,0.0492,-0.293,-0.5193,-0.1044,-0.0231,-0.0348,0.0,-0.0499,-0.2302,-0.7145,-0.8186,-0.7369,-0.5159,-0.5587,-0.6859,-0.8788,-0.903,-0.9139,-0.9269,-0.9497,-0.9769,-1.0085,-1.0231,-1.028,-1.021,-1.0492,-1.0688,-1.0715,-1.0726,-1.0786,-1.0895,-1.0911,-1.0916,-1.09,-1.1003,-1.1069,-1.1079,-1.1079,-1.1074,-1.1058,-1.0949,-1.0884,-1.0851,-1.0634,-1.0536,-1.053,-1.0433,-1.0212,-0.9864,-1.0073,-0.9578,-0.877,-0.9229,-0.8995,-0.8576,-0.9329,-0.9628,-0.9462,-0.906,-0.9166,-0.9427,-0.8889,-0.8987,-0.9247,-0.9144,-0.9111,-0.909,-0.8981,-0.8954,-0.8954,-0.8954,-0.8954,-0.8948,-0.8932,-0.8932,-0.8927,-0.8916,-0.8823,-0.8753,-0.8769,-0.8682,-0.8606,-0.8606,-0.8606,-0.8595,-0.8552,-0.8459,-0.8399,-0.8399,-0.8301,-0.8231,-0.8214,-0.8214,-0.8082,-0.7689,-0.7419,-0.7028,-0.6651,-0.6256,-0.6117,-0.6104,-0.6104,-0.6104,-0.6104,-0.6117,-0.6125,-0.6137,-0.6157,-0.6166,-0.617,-0.6345,-0.6321,-0.024,-0.153,-0.2568,-0.046,0.0,0.0,0.0,0.0,-0.0643,-0.2951,-0.5889,-0.7631,-0.6644,-0.4229,-0.4003,-0.8489,-0.9122,-0.9204,-0.9383,-0.9557,-0.9726,-0.9873,-1.0057,-1.0264,-1.0492,-1.065,-1.0764,-1.084,-1.0911,-1.1003,-1.1118,-1.1194,-1.1232,-1.1232,-1.1281,-1.1308,-1.1308,-1.1308,-1.127,-1.1199,-1.115,-1.1052,-1.0916,-1.0813,-1.0732,-1.0655,-1.0536,-1.0481,-1.0303,-1.028,-0.9829,-0.9266,-0.9356,-0.9146,-0.8784,-0.9111,-0.9361,-0.9355,-0.9313,-0.9398,-0.9476,-0.8988,-0.9071,-0.9296,-0.896,-0.9088,-0.922,-0.9171,-0.9155,-0.9155,-0.9155,-0.9155,-0.9139,-0.9073,-0.9057,-0.9041,-0.8965,-0.891,-0.8878,-0.8878,-0.8834,-0.8796,-0.8796,-0.8796,-0.8796,-0.8796,-0.8638,-0.8519,-0.8519,-0.847,-0.8416,-0.835,-0.828,-0.798,-0.7468,-0.7335,-0.6951,-0.6438,-0.631,-0.6182,-0.6182,-0.6182,-0.6182,-0.6182,-0.6182,-0.6182,-0.6182,-0.6288,-0.6341,-0.6345,-0.6529,-0.657,-0.0959,0.0,0.0,0.0,0.0,0.0,0.0,0.0,0.0,0.0,-0.2996,-0.5727,-0.5785,-0.2593,-0.1804,-0.7093,-0.876,-0.9307,-0.9465,-0.9617,-0.9704,-0.9671,-0.9845,-1.0117,-1.0503,-1.0601,-1.0704,-1.0857,-1.1014,-1.1166,-1.1313,-1.1406,-1.1455,-1.1455,-1.1455,-1.1455,-1.1455,-1.1455,-1.1411,-1.1324,-1.1286,-1.1166,-1.0965,-1.09,-1.0819,-1.0732,-1.0645,-1.0585,-1.0378,-1.0373,-1.0121,-0.9606,-0.9489,-0.9291,-0.8959,-0.9076,-0.9152,-0.9147,-0.9424,-0.9661,-0.9579,-0.9102,-0.916,-0.9211,-0.892,-0.8899,-0.9157,-0.9018,-0.9018,-0.9018,-0.9018,-0.9018,-0.9141,-0.9061,-0.904,-0.9155,-0.9068,-0.9024,-0.9003,-0.9003,-0.8976,-0.8954,-0.8954,-0.8954,-0.8954,-0.8954,-0.8802,-0.8677,-0.8644,-0.8606,-0.8557,-0.8475,-0.8383,-0.8075,-0.7552,-0.7293,-0.7034,-0.6515,-0.6385,-0.6255,-0.6255,-0.6255,-0.6255,-0.6255,-0.6255,-0.6268,-0.6292,-0.6427,-0.6504,-0.6533,-0.6688,-0.6762,-0.1387,0.0,0.0,0.0,0.0,0.0,0.0,0.0,0.0,0.0,-0.0133,-0.0269,-0.0269,-0.0137,-0.1118,-0.4337,-0.7526,-0.9497,-0.9487,-0.9688,-0.9791,-0.9682,-0.9769,-0.9894,-1.003,-1.0259,-1.0492,-1.0726,-1.0965,-1.1204,-1.1438,-1.1455,-1.1455,-1.1455,-1.1455,-1.1455,-1.1455,-1.1455,-1.1455,-1.1449,-1.133,-1.121,-1.109,-1.0851,-1.0742,-1.0737,-1.0732,-1.0335,-0.9902,-1.0383,-1.0313,-0.9713,-0.9611,-0.9565,-0.955,-0.8968,-0.908,-0.9371,-0.9264,-0.9529,-0.9655,-0.9242,-0.9276,-0.9481,-0.9039,-0.8816,-0.8584,-0.8295,-0.815,-0.815,-0.815,-0.844,-0.8729,-0.8724,-0.9013,-0.9296,-0.9296,-0.9204,-0.9128,-0.9128,-0.9035,-0.8954,-0.8954,-0.8954,-0.8954,-0.8954,-0.8943,-0.8899,-0.878,-0.866,-0.8584,-0.8584,-0.8579,-0.8446,-0.8046,-0.765,-0.7379,-0.6973,-0.6711,-0.6447,-0.6447,-0.6447,-0.6447,-0.6447,-0.6447,-0.6488,-0.6578,-0.6582,-0.6631,-0.6721,-0.6811,-0.6847,-0.5806,-0.2684,0.0,0.0,0.0,0.0,0.0,0.0,0.0,0.0,0.0,0.0,0.0,0.0,-0.0976,-0.4147,-0.728,-0.9443,-0.9497,-0.9489,-0.9661,-0.9617,-0.9541,-0.959,-0.9546,-1.0057,-1.0514,-1.0835,-1.1079,-1.1286,-1.1449,-1.1455,-1.1455,-1.1455,-1.1455,-1.1455,-1.1455,-1.1455,-1.1455,-1.1455,-1.133,-1.1215,-1.1096,-1.0933,-1.0645,-1.0237,-1.057,-1.0382,-1.0009,-1.0426,-1.0367,-0.983,-0.9723,-0.9312,-0.8767,-0.8893,-0.8836,-0.8618,-0.9201,-0.9444,-0.9376,-0.9335,-0.9403,-0.9606,-0.9153,-0.9128,-0.9398,-0.925,-0.9102,-0.9102,-0.881,-0.875,-0.8695,-0.8543,-0.8489,-0.844,-0.844,-0.841,-0.839,-0.839,-0.8642,-0.876,-0.876,-0.9045,-0.916,-0.9084,-0.9003,-0.8938,-0.8894,-0.8856,-0.8829,-0.8829,-0.8829,-0.8692,-0.8275,-0.7864,-0.7594,-0.7181,-0.691,-0.6635,-0.6635,-0.6635,-0.6635,-0.6635,-0.6635,-0.6651,-0.668,-0.6737,-0.6782,-0.6815,-0.69,-0.6945,-0.7926,-0.3973,0.0,0.0,0.0,0.0,0.0,0.0,0.0,0.0,0.0,0.0,0.0,0.0,-0.0696,-0.2747,-0.6593,-0.8892,-0.7959,-0.7845,-0.8281,-0.9536,-0.9617,-0.9449,-0.9492,-0.9954,-1.0389,-1.0704,-1.1031,-1.1264,-1.1384,-1.1433,-1.1455,-1.1455,-1.1455,-1.1455,-1.1455,-1.1455,-1.1455,-1.1455,-1.133,-1.1215,-1.1101,-1.0976,-1.0683,-1.0404,-1.057,-1.057,-1.0398,-1.0485,-1.0458,-1.0112,-0.9998,-0.9425,-0.8875,-0.8997,-0.8763,-0.836,-0.8949,-0.9196,-0.929,-0.929,-0.9366,-0.9429,-0.897,-0.8945,-0.9065,-0.8915,-0.877,-0.877,-0.8469,-0.8417,-0.8513,-0.8211,-0.8159,-0.825,-0.8212,-0.8236,-0.824,-0.8169,-0.8324,-0.8484,-0.8444,-0.8874,-0.9136,-0.9204,-0.9128,-0.9046,-0.8965,-0.8954,-0.8954,-0.8954,-0.8954,-0.8809,-0.8531,-0.8109,-0.7697,-0.7557,-0.7004,-0.6725,-0.6725,-0.6725,-0.6725,-0.6725,-0.6725,-0.6741,-0.677,-0.6827,-0.6872,-0.6905,-0.6962,-0.699,-0.7481,-0.3837,0.0,0.0,0.0,0.0,0.0,0.0,0.0,0.0,0.0,0.0,0.0,0.0,0.0,0.0,-0.5005,-0.7959,-0.5364,-0.503,-0.6236,-0.9397,-0.9579,-0.965,-0.9818,-0.9965,-1.0139,-1.0378,-1.0835,-1.1156,-1.1275,-1.1389,-1.1455,-1.1455,-1.1455,-1.1455,-1.1455,-1.1455,-1.1455,-1.1455,-1.1335,-1.1221,-1.1101,-1.0982,-1.0857,-1.0737,-1.0737,-1.0737,-1.0737,-1.0737,-1.0737,-1.0726,-1.0118,-0.9907,-0.9722,-0.9293,-0.8705,-0.8291,-0.8674,-0.8944,-0.9402,-0.9402,-0.9325,-0.9086,-0.8779,-0.8255,-0.7725,-0.7427,-0.7427,-0.7427,-0.7276,-0.7574,-0.7867,-0.7716,-0.8013,-0.8281,-0.8331,-0.8239,-0.8253,-0.8061,-0.8245,-0.8279,-0.8183,-0.8449,-0.8879,-0.9313,-0.9307,-0.9226,-0.8997,-0.897,-0.897,-0.897,-0.897,-0.897,-0.897,-0.8268,-0.785,-0.785,-0.7157,-0.6741,-0.6741,-0.6741,-0.6741,-0.6741,-0.6741,-0.6778,-0.686,-0.686,-0.6905,-0.699,-0.699,-0.699,-0.2074,-0.1046,0.0,0.0,0.0,0.0,0.0,0.0,0.0,0.0,0.0,0.0,0.0,0.0,0.0,0.0,-0.1307,-0.3699,-0.7595,-0.6519,-0.5648,-0.6403,-0.8576,-0.9981,-0.9976,-1.0166,-1.0356,-1.0503,-1.0878,-1.1194,-1.1395,-1.1438,-1.1455,-1.1455,-1.1455,-1.1455,-1.1455,-1.1455,-1.1455,-1.1455,-1.1422,-1.1302,-1.1101,-1.1069,-1.0768,-1.0237,-1.057,-1.057,-1.0237,-1.057,-1.0737,-1.0732,-1.0206,-0.9813,-0.9409,-0.8889,-0.8328,-0.7919,-0.8059,-0.8278,-0.8622,-0.8778,-0.8915,-0.8896,-0.874,-0.8721,-0.8543,-0.8388,-0.8393,-0.8393,-0.8083,-0.803,-0.782,-0.7511,-0.7612,-0.7557,-0.7531,-0.7544,-0.7548,-0.7502,-0.7959,-0.8561,-0.9133,-0.9355,-0.9296,-0.9438,-0.9362,-0.928,-0.922,-0.9215,-0.9215,-0.9215,-0.9215,-0.9215,-0.9215,-0.8499,-0.8069,-0.8069,-0.7352,-0.6921,-0.6921,-0.6921,-0.6921,-0.6921,-0.6921,-0.6933,-0.6954,-0.6954,-0.6966,-0.699,-0.699,-0.699,0.0,0.0,0.0,0.0,0.0,0.0,0.0,0.0,0.0,0.0,0.0,0.0,0.0,0.0,0.0,0.0,0.0,-0.1185,-0.4786,-0.3925,-0.4137,-0.7432,-0.9317,-1.039,-1.0253,-1.0427,-1.059,-1.0704,-1.0954,-1.1183,-1.1362,-1.1427,-1.1455,-1.1455,-1.1455,-1.1455,-1.1455,-1.1455,-1.1455,-1.1455,-1.1455,-1.133,-1.1101,-1.1101,-1.08,-1.0404,-1.057,-1.057,-1.0404,-1.0404,-1.0404,-1.0404,-0.9903,-0.9535,-0.9316,-0.8985,-0.8592,-0.8182,-0.8182,-0.8088,-0.8119,-0.8387,-0.8531,-0.8521,-0.848,-0.8466,-0.8154,-0.8154,-0.8154,-0.8154,-0.7998,-0.7804,-0.7761,-0.7448,-0.7415,-0.7366,-0.7325,-0.735,-0.7366,-0.7325,-0.7738,-0.8163,-0.9065,-0.9164,-0.9117,-0.9568,-0.9465,-0.9383,-0.9383,-0.934,-0.9302,-0.9302,-0.9302,-0.9302,-0.9302,-0.8729,-0.8295,-0.815,-0.757,-0.7135,-0.699,-0.699,-0.699,-0.699,-0.699,-0.699,-0.699,-0.699,-0.699,-0.699,-0.7031,-0.7047,0.0,0.0,0.0,0.0,0.0,0.0,0.0,0.0,0.0,0.0,0.0,0.0,0.0,0.0,0.0,0.0,0.0,0.0,0.0,0.0,-0.256,-0.9216,-1.0345,-1.0711,-1.0563,-1.0688,-1.0813,-1.0933,-1.1058,-1.1177,-1.1291,-1.1395,-1.1455,-1.1455,-1.1455,-1.1455,-1.1455,-1.1455,-1.1455,-1.1455,-1.1455,-1.134,-1.1123,-1.1112,-1.0976,-1.0759,-1.0742,-1.0737,-1.0737,-1.0237,-1.007,-1.0075,-0.9569,-0.9407,-0.924,-0.924,-0.9013,-0.861,-0.861,-0.8229,-0.7815,-0.8193,-0.8154,-0.83,-0.822,-0.788,-0.7558,-0.7546,-0.7542,-0.7542,-0.7529,-0.7525,-0.7525,-0.7525,-0.7525,-0.7505,-0.7423,-0.7468,-0.7501,-0.7577,-0.7502,-0.7599,-0.8351,-0.8644,-0.8785,-0.9543,-0.959,-0.9508,-0.9508,-0.9389,-0.9302,-0.9302,-0.9302,-0.9302,-0.9302,-0.8874,-0.8584,-0.8155,-0.7711,-0.7421,-0.699,-0.699,-0.699,-0.699,-0.699,-0.699,-0.699,-0.7003,-0.7007,-0.7011,-0.7101,-0.7145,0.0,0.0,0.0,0.0,0.0,0.0,0.0,0.0,0.0,0.0,0.0,0.0,0.0,0.0,0.0,0.0,0.0,0.0,0.0,0.0,-0.1612,-0.5852,-0.8865,-1.0683,-1.0704,-1.0813,-1.0938,-1.1063,-1.1177,-1.1297,-1.1417,-1.1444,-1.1455,-1.1455,-1.1455,-1.1455,-1.1455,-1.1455,-1.1455,-1.1455,-1.1455,-1.1378,-1.1237,-1.1145,-1.1025,-1.0884,-1.078,-1.0737,-1.0737,-1.057,-1.0404,-1.007,-1.007,-0.9574,-0.8738,-0.8738,-0.8558,-0.8207,-0.8207,-0.8194,-0.7991,-0.799,-0.7936,-0.7931,-0.7919,-0.7754,-0.7738,-0.766,-0.764,-0.7623,-0.7546,-0.7525,-0.7525,-0.7525,-0.7525,-0.7521,-0.7505,-0.7513,-0.7677,-0.7976,-0.8119,-0.8261,-0.8726,-0.8957,-0.9198,-0.9203,-0.9559,-0.9639,-0.9639,-0.9443,-0.9302,-0.9302,-0.9302,-0.9302,-0.9302,-0.8874,-0.8584,-0.8155,-0.7711,-0.7421,-0.699,-0.699,-0.699,-0.699,-0.699,-0.699,-0.699,-0.7064,-0.7101,-0.7105,-0.7199,-0.7239,0.0,0.0,0.0,0.0,0.0,0.0,0.0,0.0,0.0,0.0,0.0,0.0,0.0,0.0,0.0,0.0,-0.0561,-0.115,-0.1233,-0.0938,-0.191,-0.4974,-0.8036,-0.9913,-1.0065,-1.0905,-1.1384,-1.1446,-1.1445,-1.1395,-1.1455,-1.1455,-1.1455,-1.1455,-1.1455,-1.1455,-1.1455,-1.1455,-1.1455,-1.1455,-1.1455,-1.1389,-1.127,-1.1156,-1.1036,-1.0911,-1.0791,-1.0737,-1.0737,-1.0404,-1.0237,-1.007,-0.9908,-0.9407,-0.9072,-0.9072,-0.8905,-0.8733,-0.8566,-0.8399,-0.8386,-0.8127,-0.7905,-0.786,-0.7815,-0.7799,-0.7791,-0.7746,-0.7733,-0.7721,-0.768,-0.7668,-0.7668,-0.7668,-0.7668,-0.7668,-0.7668,-0.7668,-0.7668,-0.7991,-0.7991,-0.8132,-0.8554,-0.8655,-0.8915,-0.9171,-0.9376,-0.9455,-0.9758,-0.9601,-0.9492,-0.9492,-0.9291,-0.9108,-0.9108,-0.8619,-0.8295,-0.786,-0.776,-0.7499,-0.706,-0.7105,-0.7133,-0.7133,-0.7133,-0.7133,-0.7133,-0.7174,-0.7199,-0.7199,-0.7288,-0.7329,0.0,0.0,0.0,0.0,0.0,0.0,0.0,0.0,0.0,0.0,0.0,0.0,0.0,0.0,-0.0136,-0.0419,-0.1394,-0.2133,-0.2436,-0.2012,-0.2525,-0.4923,-0.7002,-0.8399,-0.8725,-1.0439,-1.1268,-1.1268,-1.1319,-1.1455,-1.1455,-1.1455,-1.1455,-1.1455,-1.1455,-1.1455,-1.1455,-1.1455,-1.1455,-1.1455,-1.1455,-1.1406,-1.1308,-1.1194,-1.1074,-1.0954,-1.0829,-1.0759,-1.0737,-1.043,-1.0278,-1.0111,-0.9775,-0.9608,-0.9435,-0.9579,-0.9407,-0.9407,-0.8905,-0.8905,-0.8738,-0.8399,-0.8182,-0.795,-0.7876,-0.7856,-0.7852,-0.7831,-0.7827,-0.7823,-0.7803,-0.7799,-0.7799,-0.7799,-0.7799,-0.7799,-0.7799,-0.7799,-0.7799,-0.7799,-0.7799,-0.7936,-0.818,-0.8309,-0.8427,-0.9135,-0.9186,-0.9264,-0.9571,-0.9497,-0.9445,-0.9445,-0.9318,-0.9086,-0.9086,-0.871,-0.8363,-0.792,-0.7851,-0.7747,-0.7302,-0.7223,-0.7264,-0.7264,-0.7264,-0.7264,-0.7264,-0.728,-0.7288,-0.7292,-0.7378,-0.7419,0.0,0.0,0.0,0.0,0.0,0.0,0.0,0.0,0.0,0.0,0.0,0.0,0.0,0.0,-0.0408,-0.1817,-0.2266,-0.2461,-0.2263,-0.2343,-0.3205,-0.5039,-0.5479,-0.6053,-0.6888,-0.8727,-0.9874,-0.9362,-1.061,-1.1455,-1.1455,-1.1455,-1.1455,-1.1455,-1.1455,-1.1455,-1.1455,-1.1455,-1.1455,-1.1455,-1.1455,-1.1449,-1.1433,-1.1313,-1.1194,-1.1079,-1.0954,-1.084,-1.0742,-1.0857,-1.0567,-1.0228,-1.0567,-1.0228,-0.954,-0.9943,-0.9741,-0.9407,-0.9407,-0.9407,-0.9407,-0.924,-0.8729,-0.8048,-0.804,-0.804,-0.8023,-0.7946,-0.7921,-0.7905,-0.7819,-0.7799,-0.7799,-0.7799,-0.7799,-0.7799,-0.7799,-0.7799,-0.7799,-0.7799,-0.7799,-0.7795,-0.7787,-0.8033,-0.8291,-0.8441,-0.8674,-0.892,-0.892,-0.891,-0.8905,-0.8905,-0.933,-0.9655,-0.9655,-0.9644,-0.9334,-0.903,-0.859,-0.8295,-0.7849,-0.7561,-0.7264,-0.7264,-0.7264,-0.7264,-0.7264,-0.7341,-0.7378,-0.7378,-0.7472,-0.7513,0.0,0.1204,0.2154,0.0404,0.0,0.0,0.0,0.0,0.0,0.0,0.0,-0.0267,-0.121,-0.1346,-0.1359,-0.1536,-0.2086,-0.2253,-0.2379,-0.2428,-0.2793,-0.3529,-0.4598,-0.5505,-0.5873,-0.7529,-0.854,-0.8837,-0.9623,-1.0565,-1.1471,-1.146,-1.1455,-1.1455,-1.1455,-1.1455,-1.1455,-1.1455,-1.1455,-1.1455,-1.1455,-1.1455,-1.1449,-1.133,-1.1248,-1.1199,-1.1079,-1.1003,-1.096,-1.1009,-1.0859,-1.0854,-1.0949,-1.0752,-1.0397,-1.0446,-1.0404,-1.007,-0.9908,-0.9736,-0.9741,-0.9574,-0.9235,-0.8901,-0.8566,-0.8232,-0.8056,-0.8019,-0.8011,-0.8003,-0.7966,-0.7958,-0.7958,-0.7958,-0.7958,-0.7958,-0.7958,-0.7958,-0.7958,-0.7958,-0.7958,-0.7942,-0.7889,-0.8011,-0.811,-0.8313,-0.8418,-0.8535,-0.8788,-0.8778,-0.8778,-0.8778,-0.8804,-0.8711,-0.8711,-0.8351,-0.8163,-0.8013,-0.7915,-0.7794,-0.7642,-0.7544,-0.7419,-0.7419,-0.7419,-0.7419,-0.7423,-0.7456,-0.7472,-0.7472,-0.7566,-0.7607,0.1059,0.2798,0.3751,0.1739,0.0657,0.0,0.0,0.0,-0.0129,-0.0517,-0.066,-0.0943,-0.175,-0.2019,-0.2039,-0.1536,-0.194,-0.2237,-0.2361,-0.2402,-0.245,-0.2536,-0.3744,-0.4475,-0.451,-0.5981,-0.7178,-0.823,-0.8599,-0.9134,-1.0218,-1.0565,-1.1099,-1.1455,-1.1455,-1.1455,-1.1455,-1.1455,-1.1455,-1.1455,-1.1455,-1.1455,-1.1455,-1.1362,-1.1308,-1.127,-1.1188,-1.1134,-1.1107,-1.1139,-1.115,-1.1145,-1.1058,-1.1025,-1.1009,-1.0889,-1.0846,-1.084,-1.0467,-1.0289,-1.0283,-0.9918,-0.9736,-0.9574,-0.924,-0.8901,-0.8566,-0.8566,-0.8399,-0.8232,-0.8064,-0.806,-0.806,-0.806,-0.806,-0.806,-0.806,-0.806,-0.806,-0.806,-0.806,-0.8044,-0.7983,-0.795,-0.7893,-0.8084,-0.8171,-0.8274,-0.8521,-0.8485,-0.8466,-0.8466,-0.8092,-0.7898,-0.8207,-0.7991,-0.7798,-0.7798,-0.7706,-0.7586,-0.7586,-0.7493,-0.7525,-0.7525,-0.7525,-0.7525,-0.7525,-0.7525,-0.7537,-0.7566,-0.7631,-0.7693,0.3477,0.427,0.4355,0.4224,0.2087,0.0,0.0,0.0,-0.0388,-0.1938,-0.2114,-0.2019,-0.1212,-0.175,-0.2174,-0.2236,-0.227,-0.2309,-0.2369,-0.2457,-0.2514,-0.2515,-0.2593,-0.2647,-0.2647,-0.4091,-0.578,-0.7684,-0.752,-0.7167,-0.7167,-0.8595,-1.0026,-1.1455,-1.1455,-1.1455,-1.1455,-1.1455,-1.1455,-1.1455,-1.1455,-1.1455,-1.1455,-1.1455,-1.1389,-1.127,-1.127,-1.1204,-1.1112,-1.1226,-1.127,-1.127,-1.127,-1.127,-1.1253,-1.1139,-1.1101,-1.1079,-1.096,-1.0916,-1.09,-1.0775,-1.0404,-1.007,-1.007,-0.9741,-0.9407,-0.9407,-0.9072,-0.8571,-0.8232,-0.806,-0.806,-0.806,-0.806,-0.806,-0.806,-0.806,-0.806,-0.806,-0.806,-0.806,-0.806,-0.7991,-0.7934,-0.7934,-0.7778,-0.7664,-0.766,-0.7582,-0.7525,-0.7525,-0.7525,-0.7838,-0.8778,-0.8778,-0.8778,-0.8778,-0.8466,-0.8159,-0.8159,-0.7686,-0.7525,-0.7525,-0.7525,-0.7525,-0.7525,-0.7525,-0.757,-0.766,-0.7664,-0.7758,0.116,0.2739,0.4347,0.4308,0.363,0.2186,-0.076,-0.1416,-0.1437,-0.1422,-0.1849,-0.2154,-0.1885,-0.2019,-0.2181,-0.2263,-0.2285,-0.2319,-0.2398,-0.1992,-0.1873,-0.254,-0.2624,-0.2694,-0.2736,-0.3112,-0.3684,-0.4478,-0.5201,-0.5918,-0.6097,-0.8238,-0.9487,-1.0026,-1.0916,-1.1455,-1.1455,-1.1455,-1.1455,-1.1455,-1.1455,-1.1411,-1.133,-1.133,-1.1264,-1.1161,-1.1237,-1.1253,-1.1226,-1.1346,-1.1395,-1.1389,-1.1302,-1.127,-1.1259,-1.1145,-1.1101,-1.1096,-1.1058,-1.1047,-1.1025,-1.09,-1.0693,-1.0677,-1.0597,-1.007,-0.9407,-0.9407,-0.9072,-0.8738,-0.8901,-0.8566,-0.8232,-0.8399,-0.8232,-0.806,-0.806,-0.806,-0.806,-0.806,-0.806,-0.806,-0.806,-0.804,-0.8003,-0.7942,-0.7885,-0.7827,-0.7766,-0.7729,-0.7689,-0.7627,-0.7991,-0.83,-0.8324,-0.8315,-0.8471,-0.8778,-0.8622,-0.8622,-0.8622,-0.8466,-0.8342,-0.8089,-0.8089,-0.7965,-0.7713,-0.7713,-0.7758,-0.7848,-0.7848,-0.7913,-0.0255,0.1156,0.2719,0.2953,0.3087,0.231,-0.0881,-0.1922,-0.1957,-0.155,-0.1841,-0.2142,-0.2153,-0.2155,-0.2177,-0.2245,-0.2266,-0.2154,-0.1921,-0.1814,-0.1862,-0.2566,-0.2305,-0.2366,-0.2776,-0.2435,-0.2453,-0.2853,-0.3746,-0.4273,-0.4611,-0.7081,-0.8489,-0.8665,-1.0692,-1.181,-1.181,-1.181,-1.161,-1.1384,-1.1384,-1.1324,-1.121,-1.121,-1.1166,-1.1107,-1.1221,-1.127,0.0,-1.1406,-1.1455,-1.1449,-1.1373,-1.134,-1.1335,-1.1264,-1.1237,-1.1232,-1.1183,-1.1166,-1.1139,-1.0971,-1.0889,-1.0835,-1.0759,-1.0237,-0.9903,-0.9741,-0.9407,-0.924,-0.9407,-0.9068,-0.8566,-0.8738,-0.8571,-0.8232,-0.8064,-0.806,-0.806,-0.806,-0.806,-0.806,-0.806,-0.806,-0.8044,-0.7991,-0.7954,-0.7913,-0.7856,-0.7819,-0.7778,-0.7721,-0.8084,-0.8393,-0.859,-0.8581,-0.8581,-0.8897,-0.8893,-0.8893,-0.8893,-0.8893,-0.8767,-0.8349,-0.8349,-0.8224,-0.7799,-0.7831,-0.788,-0.7938,-0.7966,-0.8011,0.0,-0.0637,-0.0,0.0504,0.0763,0.0638,-0.0745,-0.1514,0.0,-0.2064,-0.2089,-0.212,-0.2151,-0.2157,-0.2166,-0.22,-0.2232,-0.1979,-0.1288,-0.1779,-0.2318,-0.2426,-0.1809,-0.1679,-0.2598,-0.1912,-0.1747,-0.2471,-0.2648,-0.2637,-0.2611,-0.5207,-0.6935,-0.7454,-1.0424,-1.2137,-1.2142,-1.2142,-1.1902,-1.1259,-1.1259,-1.1199,-1.109,-1.109,-1.1085,-1.1085,-1.1199,-1.1248,-1.1259,-1.1378,-1.1433,-1.1444,-1.1444,-1.1449,-1.1455,-1.1455,-1.1455,-1.1438,-1.1324,-1.1286,-1.1248,-1.1009,-1.0846,-1.0737,-1.0737,-1.0737,-1.057,-1.0237,-1.007,-1.007,-0.9574,-0.9407,-0.924,-0.8905,-0.8738,-0.8571,-0.8232,-0.806,-0.806,-0.806,-0.806,-0.806,-0.806,-0.806,-0.806,-0.806,-0.7995,-0.7946,-0.7946,-0.7868,-0.7815,-0.7811,-0.7815,-0.8139,-0.8936,-0.9093,-0.9088,-0.9249,-0.9249,-0.9249,-0.9249,-0.9249,-0.8931,-0.8617,-0.8621,-0.8302,-0.7819,-0.7901,-0.7946,-0.7946,-0.8023,-0.8064,-0.1371,0.0,-0.1385,-0.0747,-0.0871,-0.137,0.0,-0.1879,-0.2035,-0.2059,-0.2089,-0.2125,-0.218,-0.217,-0.218,-0.2258,-0.2293,-0.2026,-0.1306,-0.0908,-0.0944,-0.1458,-0.1501,-0.1532,-0.1716,-0.1558,-0.1219,-0.0698,-0.0698,-0.1046,-0.1739,-0.3473,-0.4858,-0.607,-0.9225,-1.1345,-1.2397,-1.2397,-1.2211,-1.1663,-1.1663,-1.1423,-1.0965,-1.0965,-1.0911,-1.0829,-1.0949,-1.1003,-1.1014,-1.1134,-1.1237,-1.1313,-1.1313,-1.1373,-1.1455,-1.1455,-1.1455,-1.1449,-1.1422,-1.1411,-1.1373,-1.1134,-1.0911,-1.0737,-1.0737,-1.0737,-1.0737,-1.057,-1.0404,-1.007,-1.0404,-0.9903,-0.9407,-0.924,-0.8905,-0.8571,-0.8232,-0.806,-0.806,-0.806,-0.806,-0.806,-0.806,-0.806,-0.806,-0.806,-0.8044,-0.8032,-0.8032,-0.8015,-0.7974,-0.7909,-0.8297,-0.8475,-0.8725,-0.8973,-0.9411,-1.0061,-1.0061,-1.0061,-1.0061,-1.0061,-0.9936,-0.9534,-0.8958,-0.8501,-0.7999,-0.8023,-0.8032,-0.8032,-0.8052,-0.8101,-0.1729,-0.1999,-0.1892,-0.15,-0.1746,-0.1996,-0.1996,-0.1997,-0.2008,-0.2037,-0.2067,-0.2102,-0.215,-0.1897,-0.178,-0.2241,-0.1705,-0.1156,-0.0739,-0.0308,-0.0319,-0.0654,-0.0673,-0.0684,-0.0684,-0.0344,-0.0173,-0.0,-0.0,-0.0344,-0.0685,-0.2566,-0.393,-0.4784,-0.8361,-1.063,-1.1607,-1.23,-1.2441,-1.2045,-1.2045,-1.1804,-1.1507,-1.1507,-1.1299,-1.1076,-1.1205,-1.1091,-1.0927,-1.1052,-1.1166,-1.127,-1.127,-1.1313,-1.1378,-1.1433,-1.1422,-1.1378,-1.1433,-1.1384,-1.127,-1.1145,-1.0938,-1.0748,-1.0802,-1.078,-1.0737,-1.0737,-1.0404,-1.007,-1.0404,-0.9903,-0.9407,-0.9072,-0.8905,-0.8571,-0.8232,-0.806,-0.806,-0.806,-0.806,-0.806,-0.806,-0.806,-0.806,-0.806,-0.806,-0.806,-0.806,-0.806,-0.8044,-0.7999,-0.8202,-0.8549,-0.8663,-0.8774,-0.9235,-1.0219,-1.0219,-1.0383,-1.0547,-1.0547,-1.041,-0.9978,-0.9212,-0.8571,-0.8399,-0.8232,-0.806,-0.8064,-0.8105,-0.815,-0.1858,-0.2001,-0.1894,-0.2014,-0.2015,-0.2018,-0.1886,-0.1869,-0.1861,-0.1886,-0.1915,-0.1947,-0.1984,-0.149,-0.138,-0.1941,-0.0841,0.0,0.0,0.0157,0.0161,0.0,0.0169,0.0171,0.0171,0.0854,0.1026,0.0512,0.0341,0.034,0.0168,-0.168,-0.3021,-0.3523,-0.7543,-0.981,-1.0164,-1.2057,-1.286,-1.224,-1.224,-1.2179,-1.2069,-1.2069,-1.1902,-1.1576,-1.1687,-1.1396,-1.1069,-1.1174,-1.1112,-1.1221,-1.1221,-1.1237,-1.1281,-1.1368,-1.1346,-1.1286,-1.1389,-1.1297,-1.1123,-1.1107,-1.0949,-1.078,-1.0867,-1.0819,-1.0737,-1.0737,-1.0404,-1.0237,-1.007,-0.9736,-0.9407,-0.8905,-0.8738,-0.8571,-0.8232,-0.8232,-0.8232,-0.8232,-0.8232,-0.8232,-0.806,-0.806,-0.806,-0.806,-0.806,-0.806,-0.806,-0.806,-0.806,-0.806,-0.806,-0.8232,-0.8571,-0.8571,-0.8905,-0.9908,-1.007,-1.0237,-1.0737,-1.057,-1.0404,-1.007,-0.924,-0.8905,-0.8738,-0.8412,-0.8248,-0.8252,-0.8179,-0.8228,-0.2005,-0.1637,-0.1258,-0.1865,-0.2001,-0.1886,-0.1242,-0.1114,-0.1116,-0.1132,-0.1149,-0.1175,-0.1221,-0.1661,-0.1831,-0.144,-0.0579,0.0,0.0,0.1264,0.1595,0.0165,0.0675,0.1023,0.1182,0.1191,0.1534,0.2194,0.2362,0.2023,0.1178,0.0,-0.0841,-0.1681,-0.6041,-0.8399,-0.8429,-1.1617,-1.3125,-1.2599,-1.2599,-1.242,-1.2069,-1.2069,-1.2069,-1.2069,-1.2093,-1.1766,-1.1265,-1.1288,-1.1205,-1.0971,-1.0971,-1.1096,-1.1264,-1.1188,-1.1204,-1.1275,-1.1291,-1.1275,-1.1232,-1.1134,-1.1009,-1.0878,-1.0791,-1.0753,-1.0737,-1.0737,-1.0737,-1.057,-1.0237,-1.007,-0.9741,-0.8905,-0.8738,-0.8738,-0.8571,-0.8571,-0.8571,-0.8571,-0.8571,-0.8571,-0.8232,-0.806,-0.806,-0.806,-0.806,-0.806,-0.806,-0.806,-0.806,-0.806,-0.806,-0.8064,-0.8232,-0.8232,-0.8399,-0.8905,-0.9736,-1.0237,-1.0737,-1.0404,-1.0237,-1.007,-0.9903,-0.9741,-0.924,-0.8986,-0.8853,-0.8688,-0.8444,-0.8354,-0.1992,-0.1505,-0.1131,-0.1364,-0.1241,-0.0872,-0.0618,-0.0487,-0.0608,-0.0877,-0.1014,-0.1034,-0.1079,-0.0968,-0.0567,0.0586,0.075,0.0922,0.1273,0.1617,0.1804,0.1499,0.1355,0.1533,0.2021,0.2029,0.22,0.2694,0.2692,0.2524,0.2018,0.1178,0.0336,-0.0505,-0.4027,-0.654,-0.8052,-1.0554,-1.2395,-1.3065,-1.3065,-1.2899,-1.2733,-1.2733,-1.2733,-1.2401,-1.2401,-1.2235,-1.1736,-1.157,-1.1311,-1.1261,-1.0922,-1.1025,-1.1172,-1.1123,-1.1134,-1.1183,-1.1183,-1.1134,-1.1074,-1.102,-1.0922,-1.0824,-1.0835,-1.0791,-1.0764,-1.0895,-1.0672,-1.0404,-1.007,-0.9908,-0.9574,-0.924,-0.9072,-0.9072,-0.9072,-0.8946,-0.8813,-0.8813,-0.8688,-0.8365,-0.8146,-0.8134,-0.8117,-0.8068,-0.806,-0.806,-0.806,-0.806,-0.806,-0.806,-0.806,-0.806,-0.806,-0.806,-0.8232,-0.8738,-0.9407,-0.9736,-1.007,-0.9736,-0.9766,-0.9825,-0.9488,-0.9516,-0.9569,-0.9103,-0.9126,-0.9302,-0.9056,-0.8777,-0.1985,-0.1498,-0.1001,-0.0867,-0.0371,-0.0,0.0124,0.0122,0.0,-0.0377,-0.0509,-0.0517,-0.054,-0.0,0.0726,0.1947,0.1701,0.1584,0.2405,0.1976,0.1845,0.2691,0.2035,0.1868,0.2694,0.2692,0.2692,0.2692,0.2692,0.2692,0.2692,0.185,0.0841,0.0,-0.2686,-0.5365,-0.8052,-0.9721,-1.1558,-1.3403,-1.3403,-1.3403,-1.3403,-1.3403,-1.3231,-1.2899,-1.2899,-1.2567,-1.2235,-1.1902,-1.1628,-1.1722,-1.1385,-1.1289,-1.1412,-1.1468,-1.1468,-1.1274,-1.1274,-1.1041,-1.096,-1.0927,-1.0857,-1.0791,-1.0857,-1.0829,-1.0819,-1.1009,-1.0779,-1.0314,-1.0121,-0.9943,-0.9603,-0.9412,-0.9426,-0.9272,-0.944,-0.9183,-0.891,-0.891,-0.8629,-0.8486,-0.8244,-0.8211,-0.8174,-0.8105,-0.8076,-0.806,-0.806,-0.806,-0.806,-0.806,-0.806,-0.806,-0.806,-0.806,-0.8232,-0.8571,-0.8901,-0.924,-0.9407,-0.9263,-0.931,-0.9564,-0.9242,-0.9288,-0.9711,-0.9394,-0.9403,-0.9581,-0.9333,-0.9207,-0.2008,-0.1498,-0.0866,-0.0247,-0.0125,0.0126,0.0756,0.088,0.0883,0.0898,0.0911,0.0932,0.1111,0.1177,0.1232,0.1405,0.1267,0.1604,0.2432,0.2464,0.2495,0.2688,0.2694,0.2695,0.2692,0.2692,0.2692,0.2692,0.2692,0.2692,0.2692,0.185,0.0841,0.0,-0.2686,-0.5365,-0.8052,-0.9721,-1.1558,-1.3403,-1.3403,-1.3403,-1.3403,-1.3403,-1.3403,-1.3403,-1.3403,-1.3072,-1.2567,-1.2567,-1.2407,-1.2087,-1.2087,-1.2166,-1.2319,-1.2564,-1.2235,-1.179,-1.179,-1.144,-1.1069,-1.0954,-1.0916,-1.0889,-1.078,-1.0824,-1.0911,-1.0927,-1.1003,-1.0881,-1.0428,-1.0233,-1.0038,-0.9598,-0.9141,-0.9036,-0.938,-0.9288,-0.9012,-0.9012,-0.9016,-0.8848,-0.8326,-0.8256,-0.8195,-0.8191,-0.8117,-0.806,-0.806,-0.806,-0.806,-0.806,-0.806,-0.806,-0.806,-0.806,-0.806,-0.8064,-0.8232,-0.8566,-0.9407,-0.916,-0.904,-0.9564,-0.9654,-0.9702,-0.9711,-0.9811,-0.9684,-0.9162,-0.9264,-0.913,-0.1492,-0.0868,-0.0124,0.0749,0.1139,0.1403,0.1516,0.1639,0.1532,0.1198,0.1071,0.1085,0.1282,0.1612,0.196,0.203,0.2064,0.2253,0.2623,0.2656,0.2679,0.2691,0.2692,0.2692,0.2692,0.2692,0.2692,0.2692,0.2692,0.2692,0.2692,0.2356,0.1682,0.0841,-0.0672,-0.2853,-0.5533,-0.7877,-0.9888,-1.1724,-1.2899,-1.3403,-1.3403,-1.3403,-1.3403,-1.3403,-1.3403,-1.3231,-1.3065,-1.2899,-1.2567,-1.242,-1.2421,-1.2246,-1.2179,-1.2448,-1.2063,-1.1548,-1.1548,-1.121,-1.0867,-1.0819,-1.0857,-1.0911,-1.0862,-1.0938,-1.1047,-1.1118,-1.1172,-1.1183,-1.0891,-1.0865,-1.0683,-1.0465,-1.0144,-0.9831,-1.0007,-0.9567,-0.9114,-0.9114,-0.8816,-0.8661,-0.8432,-0.8391,-0.833,-0.8215,-0.817,-0.8125,-0.8068,-0.806,-0.806,-0.806,-0.806,-0.806,-0.806,-0.8113,-0.8146,-0.8146,-0.8093,-0.8257,-0.8653,-0.8518,-0.8595,-0.8887,-0.8926,-0.9145,-0.9383,-0.9423,-0.9619,-0.9619,-0.9482,-0.9143,-0.0864,-0.037,0.0247,0.1249,0.1653,0.1932,0.2307,0.232,0.2099,0.1773,0.1786,0.1807,0.2027,0.2349,0.2538,0.2626,0.2694,0.2587,0.2627,0.2668,0.2692,0.2692,0.2692,0.2692,0.2692,0.2692,0.2692,0.2692,0.2692,0.2692,0.2692,0.2683,0.2176,0.1339,0.0667,-0.0833,-0.3503,-0.617,-0.8518,-1.0382,-1.2395,-1.3403,-1.3403,-1.3403,-1.3403,-1.3403,-1.3403,-1.3403,-1.3403,-1.3065,-1.2899,-1.2925,-1.2828,-1.2803,-1.2663,-1.2898,-1.2495,-1.1801,-1.1801,-1.1271,-1.0904,-1.0737,-1.0791,-1.0867,-1.0911,-1.1003,-1.1128,-1.1237,-1.1302,-1.1313,-1.1232,-1.1188,-1.1145,-1.1112,-1.061,-1.0289,-1.0289,-0.9499,-0.8867,-0.8867,-0.874,-0.8587,-0.8526,-0.8489,-0.8428,-0.8305,-0.826,-0.8207,-0.8117,-0.8105,-0.8093,-0.8064,-0.8089,-0.8105,-0.8105,-0.8187,-0.824,-0.824,-0.8183,-0.8174,-0.824,-0.8268,-0.8342,-0.8468,-0.8501,-0.8723,-0.9143,-0.9143,-0.9322,-0.9496,-0.9322,-0.9143,-0.0123,0.0,0.0247,0.1233,0.1262,0.1424,0.276,0.2967,0.2752,0.2752,0.3092,0.3447,0.3494,0.3278,0.3029,0.3031,0.2839,0.2601,0.2601,0.2654,0.2692,0.2692,0.2692,0.2692,0.2692,0.2692,0.2692,0.2692,0.2692,0.2691,0.2691,0.2662,0.215,0.1323,0.1308,0.0,-0.2639,-0.5273,-0.7616,-0.9369,-1.205,-1.3403,-1.3403,-1.3403,-1.3403,-1.3403,-1.3403,-1.3403,-1.3403,-1.3403,-1.3403,-1.3417,-1.3566,-1.3627,-1.3648,-1.3783,-1.3409,-1.2952,-1.2445,-1.1849,-1.1403,-1.0904,-1.0737,-1.0759,-1.0884,-1.1003,-1.1128,-1.1237,-1.1357,-1.1455,-1.1455,-1.1362,-1.1243,-1.1134,-1.0498,-0.9873,-0.9873,-0.9251,-0.8607,-0.8607,-0.8607,-0.8607,-0.8607,-0.8534,-0.8473,-0.8473,-0.8395,-0.8301,-0.8211,-0.8199,-0.8162,-0.8076,-0.8146,-0.8199,-0.8199,-0.8285,-0.8334,-0.8334,-0.8338,-0.8338,-0.8334,-0.8424,-0.8473,-0.8473,-0.8562,-0.8607,-0.8607,-0.9143,-0.9143,-0.8607,-0.9143,-0.8964,0.037,0.0851,0.1084,0.1989,0.2417,0.2597,0.2796,0.2871,0.2952,0.3325,0.3218,0.3108,0.3176,0.286,0.2564,0.2632,0.2831,0.2872,0.2596,0.2964,0.3003,0.269,0.2692,0.2692,0.2692,0.2692,0.2852,0.3161,0.316,0.3314,0.3453,0.3604,0.3433,0.3106,0.228,0.1302,0.049,-0.2464,-0.5116,-0.7447,-0.9667,-1.1552,-1.3403,-1.3403,-1.3403,-1.3403,-1.3403,-1.3403,-1.3403,-1.3403,-1.3403,-1.3417,-1.3566,-1.3566,-1.3485,-1.3634,-1.3257,-1.2798,-1.2631,-1.2272,-1.1902,-1.1403,-1.1299,-1.121,-1.0911,-1.1003,-1.1112,-1.1145,-1.1237,-1.133,-1.133,-1.1362,-1.1389,-1.1357,-1.0848,-1.0337,-0.9983,-0.9477,-0.8964,-0.8607,-0.8607,-0.8607,-0.8607,-0.8587,-0.8546,-0.8481,-0.8448,-0.8399,-0.8305,-0.824,-0.8211,-0.8248,-0.8277,-0.8293,-0.8293,-0.8379,-0.8432,-0.8432,-0.8493,-0.8497,-0.8432,-0.8456,-0.8501,-0.8566,-0.8595,-0.8607,-0.8607,-0.8786,-0.8786,-0.8607,-0.8786,-0.8786,0.1345,0.1696,0.1933,0.2484,0.268,0.2762,0.2736,0.2806,0.302,0.3569,0.3431,0.3291,0.3357,0.2875,0.2716,0.2623,0.282,0.286,0.2902,0.31,0.3295,0.3152,0.3155,0.3155,0.3155,0.3155,0.3312,0.3453,0.3615,0.3606,0.3907,0.3886,0.3876,0.3876,0.2894,0.241,0.2422,-0.0649,-0.326,-0.5401,-0.7773,-0.9978,-1.2148,-1.3039,-1.3403,-1.3403,-1.3403,-1.3403,-1.3403,-1.3403,-1.3403,-1.341,-1.3505,-1.3485,-1.341,-1.3505,-1.3311,-1.2899,-1.2733,-1.2567,-1.2235,-1.1902,-1.179,-1.1699,-1.1413,-1.1278,-1.1317,-1.1418,-1.1323,-1.1215,-1.1259,-1.1362,-1.1455,-1.1455,-1.1099,-1.0565,-1.0387,-0.9852,-0.9496,-0.8964,-0.8964,-0.8786,-0.8607,-0.8607,-0.8591,-0.8534,-0.8493,-0.8452,-0.8395,-0.8309,-0.8272,-0.833,-0.8366,-0.8391,-0.8391,-0.8473,-0.8526,-0.8526,-0.8579,-0.8583,-0.853,-0.8526,-0.855,-0.8607,-0.8607,-0.8607,-0.8607,-0.8607,-0.8607,-0.8607,-0.8607,-0.8607,0.2292,0.2433,0.2455,0.2472,0.2307,0.2283,0.2832,0.2891,0.2937,0.3462,0.3458,0.3448,0.3486,0.319,0.2888,0.2888,0.2814,0.2716,0.3037,0.3225,0.3412,0.374,0.3905,0.3905,0.3905,0.3905,0.3903,0.3899,0.3899,0.3897,0.4055,0.4012,0.3829,0.3829,0.3473,0.3156,0.319,0.0319,-0.1761,-0.3236,-0.6214,-0.8388,-0.9876,-1.2161,-1.3403,-1.3403,-1.3403,-1.3403,-1.3403,-1.3403,-1.3403,-1.3403,-1.3403,-1.3403,-1.3403,-1.3403,-1.3403,-1.3403,-1.2899,-1.2733,-1.2733,-1.2235,-1.2069,-1.2093,-1.2215,-1.1825,-1.1438,-1.1686,-1.1412,-1.1101,-1.1226,-1.1346,-1.1438,-1.1455,-1.1099,-1.0743,-1.0743,-1.0387,-0.9852,-0.95,-0.9322,-0.9143,-0.8786,-0.8607,-0.8607,-0.8607,-0.853,-0.8477,-0.8485,-0.8403,-0.835,-0.8358,-0.8436,-0.8485,-0.8485,-0.8558,-0.8607,-0.8607,-0.8607,-0.8607,-0.8607,-0.8607,-0.8607,-0.8607,-0.8607,-0.8607,-0.8607,-0.8607,-0.8607,-0.8607,-0.8607,-0.8607,0.2188,0.2397,0.2253,0.2141,0.2245,0.2344,0.2734,0.2619,0.2644,0.3462,0.3373,0.3261,0.3269,0.2805,0.2651,0.2651,0.2823,0.3004,0.2716,0.3205,0.3542,0.3412,0.3742,0.3905,0.3905,0.3905,0.4052,0.4337,0.4333,0.4474,0.4747,0.4731,0.4726,0.4726,0.4402,0.3931,0.3625,0.2703,0.0799,-0.1918,-0.3557,-0.5526,-0.7973,-1.0958,-1.2733,-1.3403,-1.3403,-1.3403,-1.3403,-1.3403,-1.3403,-1.3403,-1.3403,-1.3403,-1.3403,-1.3403,-1.3403,-1.3403,-1.3238,-1.3231,-1.3231,-1.2733,-1.2567,-1.2573,-1.2272,-1.1689,-1.1282,-1.1444,-1.1149,-1.0862,-1.1085,-1.1226,-1.1335,-1.1433,-1.1455,-1.1277,-1.0743,-1.0565,-1.0387,-0.9852,-0.9852,-0.9674,-0.9143,-0.9143,-0.8964,-0.8607,-0.853,-0.8497,-0.857,-0.8497,-0.8468,-0.8542,-0.8566,-0.8579,-0.8579,-0.8595,-0.8607,-0.8607,-0.8607,-0.8607,-0.8607,-0.8607,-0.8607,-0.8607,-0.8607,-0.8607,-0.8607,-0.8607,-0.8607,-0.8607,-0.8607,-0.8607,0.242,0.2411,0.23,0.2203,0.2154,0.2223,0.2601,0.2478,0.2493,0.2989,0.2907,0.2808,0.2823,0.2671,0.2514,0.2514,0.2671,0.2833,0.2851,0.3169,0.3495,0.3516,0.3679,0.3999,0.4159,0.4159,0.4307,0.4599,0.4754,0.4739,0.5022,0.5022,0.5022,0.5022,0.4554,0.4241,0.3768,0.3317,0.19,-0.0475,-0.144,-0.3224,-0.5835,-0.9897,-1.2338,-1.3403,-1.3403,-1.3403,-1.3403,-1.3403,-1.3403,-1.3403,-1.3403,-1.3403,-1.3403,-1.3403,-1.3403,-1.3403,-1.3403,-1.3403,-1.3403,-1.3065,-1.3065,-1.3065,-1.2733,-1.2301,-1.1891,-1.17,-1.1403,-1.1126,-1.1041,-1.1188,-1.1302,-1.1427,-1.1455,-1.1455,-1.1099,-1.1099,-1.0921,-1.0387,-1.0387,-1.0209,-0.9674,-0.9674,-0.9322,-0.8786,-0.8744,-0.8732,-0.8603,-0.8566,-0.8554,-0.8603,-0.8607,-0.8607,-0.8607,-0.8607,-0.8607,-0.8607,-0.8607,-0.8607,-0.8607,-0.8607,-0.8607,-0.8607,-0.8607,-0.8607,-0.8607,-0.8607,-0.8607,-0.8607,-0.8607,-0.8607,0.2508,0.2443,0.2394,0.226,0.2181,0.223,0.2313,0.2328,0.2335,0.2371,0.2423,0.247,0.25,0.2507,0.2508,0.2514,0.2514,0.2671,0.2983,0.2983,0.3297,0.3611,0.3768,0.3925,0.4241,0.4241,0.4397,0.4865,0.4865,0.4865,0.5022,0.5022,0.5022,0.5022,0.4709,0.4241,0.3925,0.3454,0.2511,0.1098,0.0317,-0.144,-0.404,-0.8152,-1.0874,-1.2649,-1.2986,-1.3171,-1.3363,-1.3363,-1.3376,-1.3403,-1.3403,-1.3403,-1.3403,-1.3403,-1.3403,-1.3403,-1.3403,-1.3403,-1.3403,-1.3403,-1.3403,-1.3403,-1.3403,-1.2966,-1.2546,-1.2363,-1.1718,-1.1265,-1.118,-1.1329,-1.145,-1.1395,-1.1616,-1.1632,-1.1455,-1.1455,-1.1455,-1.0921,-1.0743,-1.0565,-1.0209,-1.003,-0.9674,-0.8964,-0.9143,-0.9322,-0.8786,-0.8786,-0.8607,-0.8607,-0.8607,-0.8603,-0.8587,-0.8587,-0.8579,-0.8562,-0.8562,-0.8566,-0.8583,-0.8587,-0.8591,-0.8607,-0.8607,-0.8607,-0.8607,-0.8607,-0.8607,-0.8607,-0.8607,-0.8607,0.2346,0.2339,0.2197,0.2138,0.2198,0.2256,0.2319,0.2313,0.2312,0.2367,0.2406,0.2439,0.2469,0.2474,0.2484,0.251,0.2514,0.2514,0.2514,0.2826,0.3139,0.3139,0.3611,0.3768,0.3925,0.3925,0.4084,0.4397,0.4554,0.4709,0.5019,0.5022,0.5022,0.5022,0.5022,0.4709,0.4397,0.4241,0.3768,0.2825,0.1257,-0.079,-0.3351,-0.4155,-0.6267,-0.9744,-1.0895,-1.2106,-1.32,-1.32,-1.3281,-1.3403,-1.3403,-1.3403,-1.3403,-1.3403,-1.3403,-1.3403,-1.3403,-1.3403,-1.3403,-1.3403,-1.3403,-1.3403,-1.3403,-1.2966,-1.2546,-1.2694,-1.1983,-1.1294,-1.1553,-1.155,-1.1675,-1.1445,-1.1732,-1.1988,-1.1632,-1.1455,-1.1455,-1.1455,-1.1099,-1.0743,-1.0565,-1.0209,-1.003,-0.9852,-0.9852,-0.9674,-0.9317,-0.9143,-0.8964,-0.8607,-0.8607,-0.8575,-0.8497,-0.8489,-0.8456,-0.8375,-0.837,-0.8407,-0.8485,-0.8489,-0.8526,-0.8607,-0.8607,-0.8607,-0.8607,-0.8607,-0.8607,-0.8607,-0.8607,-0.8607,0.2132,0.2097,0.2053,0.2114,0.2162,0.2215,0.2292,0.23,0.2303,0.2345,0.2364,0.2387,0.2435,0.2443,0.2448,0.2461,0.2463,0.2469,0.2487,0.2643,0.2805,0.2825,0.2985,0.314,0.3454,0.3433,0.3585,0.4081,0.4213,0.4522,0.4709,0.4865,0.5006,0.4976,0.4818,0.4507,0.4042,0.3733,0.3433,0.2828,0.2042,0.1101,-0.0,-0.079,-0.3662,-0.8093,-0.8742,-0.9744,-1.1097,-1.183,-1.2225,-1.2294,-1.3032,-1.3403,-1.3403,-1.3403,-1.3403,-1.3403,-1.3403,-1.3403,-1.3403,-1.3403,-1.3403,-1.3403,-1.3403,-1.3191,-1.2986,-1.2714,-1.2357,-1.2026,-1.1716,-1.1863,-1.1991,-1.1417,-1.172,-1.1988,-1.1632,-1.1455,-1.1455,-1.1455,-1.1277,-1.1099,-1.0743,-1.0743,-1.0565,-1.003,-1.0155,-1.0117,-0.9768,-0.9541,-0.9329,-0.8803,-0.8803,-0.8786,-0.8399,-0.8395,-0.8379,-0.8338,-0.8383,-0.8428,-0.8468,-0.8522,-0.8566,-0.8607,-0.8607,-0.8607,-0.8607,-0.8607,-0.8607,-0.8607,-0.8607,-0.8607,0.1903,0.1963,0.202,0.2074,0.2127,0.2187,0.2262,0.2279,0.2289,0.2326,0.2327,0.2338,0.2391,0.2406,0.2414,0.2423,0.2424,0.2432,0.2454,0.2458,0.2466,0.2488,0.2491,0.2646,0.2956,0.2933,0.3084,0.3578,0.3859,0.4162,0.4199,0.4665,0.4802,0.4762,0.4606,0.4297,0.3991,0.3542,0.3254,0.2816,0.2667,0.2671,0.2514,0.157,-0.1265,-0.5299,-0.594,-0.6916,-0.8228,-0.9602,-1.0329,-1.0721,-1.2307,-1.2866,-1.3072,-1.3403,-1.3403,-1.3403,-1.3403,-1.3403,-1.3403,-1.3403,-1.3403,-1.3403,-1.3403,-1.3403,-1.3403,-1.2899,-1.2733,-1.2593,-1.2029,-1.2344,-1.249,-1.1552,-1.205,-1.2343,-1.1632,-1.1455,-1.1455,-1.1455,-1.1455,-1.1444,-1.0879,-1.1229,-1.1223,-1.0485,-1.0585,-1.0534,-1.001,-0.9937,-0.9716,-0.9194,-0.9194,-0.9012,-0.8473,-0.8469,-0.8461,-0.8268,-0.835,-0.8411,-0.8436,-0.8526,-0.8583,-0.8607,-0.8607,-0.8607,-0.8607,-0.8607,-0.8607,-0.8607,-0.8607,-0.8619,0.1872,0.1933,0.1986,0.2016,0.211,0.2206,0.224,0.2248,0.2264,0.232,0.2311,0.2303,0.2333,0.2361,0.239,0.2418,0.2424,0.2424,0.2425,0.2425,0.2427,0.2428,0.2428,0.2428,0.2428,0.2427,0.2578,0.3036,0.3186,0.3336,0.379,0.4096,0.4396,0.4394,0.4699,0.4699,0.4699,0.4446,0.4011,0.3704,0.3279,0.2826,0.2514,0.2357,0.1571,0.0,-0.2353,-0.4099,-0.5566,-0.685,-0.775,-0.8401,-1.0552,-1.1788,-1.2235,-1.3072,-1.3403,-1.3403,-1.3403,-1.3403,-1.3403,-1.3403,-1.3403,-1.3403,-1.3403,-1.3403,-1.3403,-1.3397,-1.3065,-1.2733,-1.2573,-1.2952,-1.2987,-1.1968,-1.2692,-1.323,-1.181,-1.1455,-1.1455,-1.1455,-1.1455,-1.1417,-1.1302,-1.1281,-1.1243,-1.1134,-1.1118,-1.094,-1.0422,-1.0417,-1.0239,-0.9711,-0.9711,-0.9501,-0.8893,-0.8884,-0.8675,-0.8081,-0.8162,-0.8252,-0.8338,-0.8428,-0.8522,-0.8607,-0.8607,-0.8607,-0.8607,-0.8607,-0.8607,-0.8607,-0.8607,-0.8652,0.1855,0.1915,0.1979,0.1989,0.2053,0.2121,0.2151,0.2203,0.2251,0.2273,0.2285,0.23,0.2327,0.2342,0.2353,0.2364,0.2365,0.2372,0.2391,0.2394,0.2402,0.2421,0.2424,0.2424,0.2424,0.2406,0.2402,0.2574,0.2857,0.3154,0.333,0.3633,0.407,0.4188,0.404,0.404,0.3891,0.3937,0.3825,0.37,0.3562,0.3428,0.3299,0.2983,0.2668,0.2196,0.0941,-0.0785,-0.2837,-0.4126,-0.4798,-0.5319,-0.7799,-0.9351,-1.0431,-1.1605,-1.2656,-1.3403,-1.3403,-1.3403,-1.3403,-1.3403,-1.3403,-1.3403,-1.3403,-1.3403,-1.3403,-1.3403,-1.3238,-1.3091,-1.3017,-1.3186,-1.3548,-1.3041,-1.2808,-1.252,-1.1988,-1.1632,-1.1455,-1.1455,-1.1455,-1.1417,-1.1291,-1.127,-1.1232,-1.1118,-1.1036,-1.0987,-1.0816,-1.0577,-1.0361,-1.0023,-1.0023,-0.9835,-0.9296,-0.9009,-0.8862,-0.8657,-0.8461,-0.8387,-0.8419,-0.8509,-0.8575,-0.8607,-0.8607,-0.8607,-0.8607,-0.8607,-0.8636,-0.8689,-0.8689,-0.8738,0.1846,0.1899,0.1966,0.1986,0.202,0.2063,0.2113,0.2155,0.2196,0.2237,0.2253,0.2273,0.2311,0.2319,0.2322,0.2331,0.2333,0.2339,0.236,0.2363,0.2371,0.2391,0.2393,0.2393,0.2393,0.2375,0.2371,0.2391,0.2672,0.2817,0.2841,0.314,0.3722,0.4133,0.384,0.384,0.384,0.4036,0.3926,0.3807,0.3839,0.3871,0.3745,0.3447,0.3297,0.3297,0.2985,0.1885,-0.0157,-0.1422,-0.2064,-0.2551,-0.4976,-0.6661,-0.7733,-0.8893,-0.9947,-1.071,-1.1048,-1.1214,-1.122,-1.1558,-1.1558,-1.1558,-1.1558,-1.2063,-1.2395,-1.2395,-1.2733,-1.3091,-1.3023,-1.3186,-1.3574,-1.3872,-1.3053,-1.2165,-1.2343,-1.1988,-1.1455,-1.1455,-1.1422,-1.1357,-1.1237,-1.1183,-1.1112,-1.0998,-1.0911,-1.0857,-1.0857,-1.0786,-1.057,-1.0404,-1.0237,-1.0085,-0.979,-0.9521,-0.9403,-0.9265,-0.9083,-0.9013,-0.9043,-0.9139,-0.9011,-0.8828,-0.8828,-0.8815,-0.8607,-0.8607,-0.8652,-0.8734,-0.8734,-0.8799,0.0,0.0,0.0,0.2001,0.2015,0.2038,0.2128,0.2104,0.2097,0.2217,0.2218,0.2218,0.2279,0.229,0.2298,0.2327,0.2331,0.233,0.233,0.233,0.2331,0.2331,0.2331,0.2331,0.2333,0.2333,0.2333,0.2333,0.2333,0.2333,0.2333,0.2624,0.3207,0.408,0.408,0.4226,0.4665,0.4722,0.4604,0.4161,0.4264,0.416,0.37,0.3745,0.3766,0.3766,0.3768,0.3299,0.2514,0.1256,0.0474,-0.0319,-0.2389,-0.3551,-0.4116,-0.4936,-0.5303,-0.5521,-0.6363,-0.67,-0.6871,-0.7714,-0.8052,-0.8052,-0.8052,-0.9221,-1.0554,-1.0226,-1.1231,-1.2567,-1.258,-1.2783,-1.323,-1.4048,-1.323,-1.2343,-1.2875,-1.2165,-1.1455,-1.1449,-1.1351,-1.1237,-1.1118,-1.0998,-1.0878,-1.0753,-1.0737,-1.0737,-1.0737,-1.0737,-1.0737,-1.0737,-1.0737,-1.0618,-1.0403,-1.0248,-1.0124,-0.9889,-0.9821,-0.993,-1.0035,-1.014,-1.0011,-0.9463,-0.9463,-0.9238,-0.8615,-0.8611,-0.8656,-0.8738,-0.8742,-0.884,0.1846,0.0,0.0,0.0,0.0,0.0,0.1982,0.2012,0.2053,0.2131,0.2158,0.2192,0.2275,0.2273,0.2267,0.2297,0.2283,0.227,0.227,0.227,0.2278,0.23,0.2303,0.2311,0.2331,0.2333,0.2333,0.2333,0.2333,0.2333,0.2333,0.2624,0.3063,0.3207,0.35,0.3791,0.4226,0.4241,0.4417,0.4607,0.4638,0.4678,0.4416,0.4316,0.4185,0.4185,0.391,0.3611,0.3454,0.2668,0.2202,0.1578,0.0158,-0.1271,-0.2414,-0.3406,-0.4586,-0.5462,-0.5677,-0.6196,-0.6703,-0.7038,-0.7543,-0.8052,-0.8052,-0.8386,-0.872,-0.8553,-0.8887,-0.9588,-1.1278,-1.1784,-1.2301,-1.3899,-1.3768,-1.323,-1.2875,-1.2343,-1.1959,-1.1516,-1.1297,-1.1204,-1.1003,-1.0944,-1.0878,-1.0753,-1.0737,-1.0737,-1.0737,-1.0737,-1.0737,-1.0737,-1.0737,-1.0786,-1.0742,-1.0491,-1.0447,-1.046,-1.0223,-1.0149,-1.0249,-1.0283,-1.0297,-1.0114,-1.0114,-1.01,-0.989,-0.9092,-0.8746,-0.8836,-0.8967,-0.9056,0.0,0.0,0.1933,0.194,0.0,0.0,0.194,0.1947,0.1962,0.2022,0.206,0.2104,0.2181,0.2192,0.2195,0.2213,0.22,0.2202,0.224,0.2245,0.2252,0.227,0.2273,0.2278,0.2294,0.2296,0.2301,0.2315,0.2315,0.232,0.2333,0.2478,0.2771,0.2917,0.3063,0.35,0.408,0.408,0.4387,0.4717,0.4744,0.4774,0.4812,0.4591,0.4473,0.4475,0.4374,0.4238,0.4084,0.3768,0.3454,0.2983,0.204,0.1105,0.0319,-0.0484,-0.1306,-0.2146,-0.2505,-0.3018,-0.3353,-0.3858,-0.453,-0.5203,-0.5203,-0.6022,-0.6839,-0.6703,-0.7216,-0.8093,-0.9469,-0.9913,-1.0524,-1.2644,-1.2692,-1.2514,-1.2875,-1.252,-1.1948,-1.1472,-1.1232,-1.1139,-1.0954,-1.0878,-1.0819,-1.0748,-1.0737,-1.0737,-1.0737,-1.0737,-1.0737,-1.0737,-1.0737,-1.0808,-1.0982,-1.072,-1.0878,-1.0973,-1.0875,-1.0801,-1.1135,-1.1146,-1.0961,-1.0776,-1.0776,-1.0591,-1.0406,-0.9752,-0.9386,-0.9486,-0.9454,-0.9522,0.0,0.0,0.0,0.1996,0.1954,0.0,0.196,0.1914,0.1876,0.1929,0.1962,0.2,0.2063,0.2095,0.2116,0.2119,0.212,0.2147,0.2225,0.2236,0.2237,0.224,0.224,0.2241,0.2245,0.2245,0.2256,0.2283,0.2286,0.2297,0.2322,0.2323,0.247,0.2765,0.2765,0.3203,0.3935,0.3935,0.4226,0.4665,0.4719,0.4744,0.4749,0.4864,0.4921,0.4929,0.4986,0.486,0.4397,0.4397,0.4241,0.3768,0.3297,0.3159,0.3195,0.2909,0.278,0.2646,0.184,0.1512,0.1345,0.0504,-0.0336,-0.1175,-0.1173,-0.2994,-0.4791,-0.4507,-0.5694,-0.6902,-0.7388,-0.7784,-0.8532,-1.0656,-1.0717,-1.0911,-1.2165,-1.2165,-1.1776,-1.1472,-1.1183,-1.1058,-1.0922,-1.0808,-1.0737,-1.0737,-1.0737,-1.0737,-1.0737,-1.0737,-1.0737,-1.0737,-1.0737,-1.0835,-1.1079,-1.1101,-1.1259,-1.1634,-1.1656,-1.1764,-1.1998,-1.2009,-1.1823,-1.145,-1.145,-1.1263,-1.0703,-1.0406,-1.0411,-1.0516,-1.0239,-0.9901,0.0,0.0,0.0,0.1951,0.197,0.0,0.1948,0.1963,0.1988,0.1999,0.2007,0.2037,0.2121,0.2142,0.2154,0.2178,0.2183,0.218,0.2173,0.2173,0.2181,0.2206,0.2208,0.2218,0.2243,0.2245,0.2248,0.2253,0.2253,0.2256,0.2262,0.2263,0.2274,0.2442,0.2442,0.2599,0.3061,0.3061,0.3498,0.4226,0.4236,0.4389,0.4684,0.4758,0.4818,0.4867,0.4927,0.4978,0.4865,0.4865,0.4395,0.3768,0.3768,0.3617,0.3629,0.3672,0.3555,0.3596,0.3472,0.3004,0.235,0.1831,0.0996,0.0,-0.0985,-0.1634,-0.2283,-0.278,-0.3294,-0.3826,-0.5555,-0.5989,-0.6612,-0.8628,-0.9065,-0.9304,-1.003,-1.0035,-1.0362,-1.1319,-1.1194,-1.1031,-1.0808,-1.0753,-1.0737,-1.0737,-1.0737,-1.0737,-1.0737,-1.0737,-1.0737,-1.0737,-1.0737,-1.0835,-1.1079,-1.1101,-1.1297,-1.1754,-1.1786,-1.1889,-1.2129,-1.2134,-1.2134,-1.1946,-1.1946,-1.1946,-1.1946,-1.0894,-1.0521,-1.0625,-1.0649,-1.0469,0.3282,0.2942,0.2835,0.2097,0.1975,0.0,0.0,0.193,0.1934,0.1949,0.1952,0.1975,0.2052,0.2065,0.208,0.2125,0.2108,0.2104,0.2148,0.2155,0.2161,0.2176,0.2177,0.2184,0.2199,0.22,0.2206,0.2222,0.2237,0.2245,0.2245,0.2245,0.2252,0.2267,0.2268,0.2425,0.2888,0.2888,0.3331,0.408,0.408,0.4371,0.4668,0.4728,0.4788,0.485,0.491,0.497,0.5022,0.5022,0.4709,0.4395,0.4238,0.4084,0.4088,0.3819,0.3852,0.388,0.395,0.3653,0.3166,0.2817,0.1985,0.1155,0.0326,-0.065,-0.1462,-0.2423,-0.2602,-0.2798,-0.3848,-0.4085,-0.4671,-0.667,-0.7105,-0.752,-0.8421,-0.9139,-0.9637,-0.9835,-1.0636,-1.1058,-1.0862,-1.0775,-1.0737,-1.0737,-1.0737,-1.0737,-1.0737,-1.0737,-1.0737,-1.0737,-1.0737,-1.0813,-1.0998,-1.1069,-1.1281,-1.1699,-1.1786,-1.1922,-1.2161,-1.2172,-1.2172,-1.2172,-1.2172,-1.2172,-1.2172,-1.1543,-1.136,-1.1416,-1.1227,-1.1037,0.4742,0.4514,0.4153,0.2783,0.238,0.2344,0.0,0.0,0.0,0.19,0.1903,0.1919,0.1974,0.1985,0.2,0.2048,0.2026,0.2034,0.2124,0.2142,0.215,0.2162,0.2143,0.2138,0.2161,0.2158,0.2165,0.2189,0.2214,0.2228,0.2228,0.2228,0.223,0.2236,0.2237,0.2391,0.2707,0.2715,0.3162,0.3921,0.393,0.4226,0.4519,0.4714,0.4777,0.4848,0.4897,0.4957,0.5022,0.5022,0.5022,0.5022,0.4709,0.4554,0.4402,0.4126,0.3988,0.4008,0.4093,0.4129,0.4135,0.363,0.2958,0.1962,0.1619,0.0323,-0.1128,-0.1917,-0.225,-0.2441,-0.2654,-0.2698,-0.3084,-0.4714,-0.5135,-0.5541,-0.6624,-0.7706,-0.8207,-0.8241,-0.9764,-1.109,-1.0916,-1.0802,-1.0737,-1.0737,-1.0737,-1.0737,-1.0737,-1.0737,-1.0737,-1.0737,-1.0737,-1.0786,-1.0911,-1.1009,-1.1232,-1.1612,-1.1726,-1.19,-1.2161,-1.2172,-1.2172,-1.2172,-1.2172,-1.2172,-1.2172,-1.2172,-1.2172,-1.2172,-1.1794,-1.1605,0.6701,0.6435,0.6038,0.4535,0.4218,0.3858,0.2376,0.0,0.2024,0.1977,0.0,0.1975,0.2008,0.0,0.0,0.2023,0.2063,0.209,0.2076,0.2097,0.2135,0.2188,0.2099,0.2076,0.2184,0.217,0.2157,0.2159,0.2163,0.2165,0.2165,0.2165,0.2177,0.2204,0.2206,0.2219,0.2249,0.2277,0.2578,0.3009,0.3337,0.3791,0.4226,0.4525,0.4736,0.4848,0.4853,0.4918,0.5022,0.5022,0.5022,0.5022,0.5022,0.4865,0.4865,0.487,0.4907,0.496,0.5026,0.5084,0.5119,0.4576,0.3533,0.2367,0.1892,0.1103,0.0157,-0.0629,-0.1111,-0.1604,-0.2412,-0.2635,-0.2706,-0.2911,-0.3139,-0.3194,-0.3404,-0.359,-0.4305,-0.6799,-0.936,-1.1096,-1.0829,-1.0759,-1.0737,-1.0737,-1.0737,-1.0737,-1.0737,-1.0737,-1.0737,-1.0737,-1.0737,-1.0786,-1.0911,-1.0933,-1.1139,-1.1607,-1.165,-1.1813,-1.2156,-1.2172,-1.2172,-1.2172,-1.2172,-1.2172,-1.2172,-1.2172,-1.2172,-1.2172,-1.2172,-1.2172,0.827,0.7892,0.7445,0.5885,0.5476,0.5049,0.352,0.0,0.2884,0.2126,0.0,0.0,0.0,0.0,0.0,0.0,0.2011,0.2014,0.2034,0.1989,0.2008,0.2157,0.2113,0.2091,0.2143,0.2136,0.2121,0.2104,0.2135,0.2147,0.2129,0.2146,0.2161,0.2173,0.2174,0.2188,0.2219,0.2249,0.2415,0.2861,0.3043,0.3354,0.3791,0.4226,0.4417,0.4494,0.4643,0.4861,0.4973,0.4973,0.4992,0.5022,0.5022,0.5022,0.5022,0.5022,0.5036,0.5074,0.5169,0.5196,0.5021,0.4353,0.366,0.2668,0.1885,0.1256,0.0785,-0.0,-0.0788,-0.1427,-0.1757,-0.2275,-0.2657,-0.2722,-0.2772,-0.2815,-0.2863,-0.2874,-0.3047,-0.3739,-0.4215,-0.6058,-1.0243,-1.0819,-1.0748,-1.0737,-1.0737,-1.0737,-1.0737,-1.0737,-1.0737,-1.0737,-1.0737,-1.0759,-1.0808,-1.0944,-1.1172,-1.1509,-1.1792,-1.2015,-1.2167,-1.2172,-1.2172,-1.2172,-1.2172,-1.2172,-1.2172,-1.2172,-1.2172,-1.2172,-1.2172,-1.2172,0.9734,0.9442,0.8967,0.7417,0.6891,0.637,0.4893,0.0,0.0,0.2768,0.2644,0.0,0.0,0.0,0.2003,0.2007,0.0,0.1977,0.2003,0.1932,0.194,0.2109,0.2125,0.2119,0.211,0.2109,0.2097,0.2067,0.2097,0.2108,0.2086,0.2113,0.2133,0.2142,0.215,0.2165,0.2188,0.2218,0.2388,0.2703,0.2883,0.3052,0.3354,0.3789,0.3962,0.4013,0.431,0.4525,0.4781,0.4781,0.4815,0.5022,0.5022,0.5022,0.5022,0.5022,0.5022,0.5036,0.5142,0.515,0.4952,0.4316,0.3805,0.3297,0.2356,0.1885,0.157,0.0942,0.0157,-0.0472,-0.0793,-0.1444,-0.2122,-0.2366,-0.2577,-0.2789,-0.2859,-0.2874,-0.2685,-0.1594,-0.0701,-0.1732,-0.7035,-0.9502,-1.077,-1.0753,-1.0748,-1.0742,-1.0742,-1.0737,-1.0737,-1.0737,-1.0737,-1.0737,-1.0737,-1.0933,-1.1183,-1.1487,-1.1922,-1.2172,-1.2172,-1.2172,-1.2172,-1.2172,-1.2172,-1.2172,-1.2172,-1.2172,-1.2172,-1.2172,-1.2172,-1.2172,1.107,0.0,1.0835,0.9198,0.0,0.0,0.0,0.0,0.5755,0.429,0.412,0.3924,0.2325,0.2061,0.0,0.0,0.2023,0.0,0.0,0.1974,0.1996,0.206,0.2119,0.2142,0.2112,0.2109,0.2097,0.2067,0.2038,0.2022,0.2022,0.205,0.208,0.211,0.2139,0.2155,0.2157,0.2187,0.2217,0.2247,0.2703,0.2881,0.2917,0.3354,0.3527,0.3569,0.3569,0.3922,0.4473,0.4473,0.4657,0.5022,0.5022,0.5022,0.5022,0.5022,0.5022,0.503,0.5093,0.5112,0.4952,0.4636,0.444,0.4241,0.3925,0.3454,0.2982,0.2511,0.2196,0.1569,0.0785,-0.0158,-0.0806,-0.1336,-0.2038,-0.2763,-0.2855,-0.2874,-0.2685,-0.1594,-0.0701,-0.0,-0.0342,-0.6096,-1.0624,-1.0624,-1.0775,-1.0764,-1.0764,-1.0748,-1.0737,-1.0737,-1.0737,-1.0737,-1.0737,-1.0851,-1.1128,-1.1601,-1.1971,-1.2172,-1.2172,-1.2172,-1.2172,-1.2172,-1.2172,-1.2172,-1.2172,-1.2172,-1.2172,-1.2172,-1.2172,-1.2172,0.0,0.0,1.0639,0.9949,0.0,0.0,0.0,0.0,0.7394,0.5886,0.5792,0.5919,0.5304,0.4336,0.3637,0.0,0.2667,0.2014,0.0,0.1947,0.1954,0.1974,0.2029,0.206,0.205,0.2033,0.2008,0.1978,0.1966,0.196,0.196,0.2026,0.2068,0.2079,0.2128,0.2155,0.2155,0.2185,0.2215,0.2245,0.2417,0.2449,0.2478,0.2917,0.307,0.3082,0.3378,0.3707,0.3918,0.3795,0.3988,0.419,0.4224,0.4395,0.4709,0.4865,0.5022,0.5025,0.5044,0.5079,0.4947,0.4594,0.4254,0.3925,0.3454,0.2983,0.2671,0.2514,0.2197,0.1726,0.1256,0.0633,-0.0,-0.1168,-0.1697,-0.2072,-0.2676,-0.2874,-0.2864,-0.248,-0.1051,0.0,0.0,-0.2034,-0.4372,-0.6892,-0.7223,-0.806,-1.0425,-1.0759,-1.0748,-1.0737,-1.0737,-1.0737,-1.0737,-1.1069,-1.1444,-1.1846,-1.2058,-1.2172,-1.2172,-1.2172,-1.2172,-1.2172,-1.2172,-1.2172,-1.2172,-1.2172,-1.2172,-1.2172,-1.2172,-1.2172,1.0054,1.0289,0.0,1.047,1.0511,0.0,0.927,0.0,0.8898,0.7505,0.7449,0.7626,0.7044,0.5964,0.5049,0.4583,0.3472,0.2637,0.0,0.1922,0.1919,0.1929,0.1982,0.2015,0.2004,0.1988,0.1964,0.1933,0.1911,0.1909,0.193,0.1986,0.2026,0.2048,0.2106,0.2144,0.2155,0.2174,0.2204,0.2245,0.2266,0.2294,0.2333,0.2624,0.2624,0.277,0.2917,0.3233,0.3423,0.3464,0.3507,0.3704,0.3749,0.3925,0.4241,0.4709,0.4865,0.5022,0.5022,0.5046,0.5074,0.4721,0.4238,0.3768,0.3454,0.2983,0.2671,0.2985,0.2826,0.2668,0.2512,0.1901,0.1127,-0.0,-0.0506,-0.1029,-0.1765,-0.2137,-0.249,-0.2804,-0.1568,-0.0346,-0.0,0.0,-0.0842,-0.3192,-0.3526,-0.5206,-1.0106,-1.078,-1.077,-1.0748,-1.0748,-1.0797,-1.0916,-1.1291,-1.1656,-1.1971,-1.2102,-1.2172,-1.2172,-1.2172,-1.2172,-1.2172,-1.2172,-1.2172,-1.2172,-1.2172,-1.2172,-1.2172,-1.2172,-1.2172]}]]